Wetterdaten: Dienstag, 10.04.2018
Datum Zeit Temp. A. Pool Temp. Feuchte A. Luftdruck Regen Wind Richtung Richtung Sonnenschein ET UV Solar Taupunkt Windchill Windben Empfang
10.04.2018 00:00 11,6 C 9,4 C 60 % 1003,4 hPa 0,0 l/m 4,8 km/h (1 Bft) S-SO 148 0 min 0,000 mm 0,0 UV-I 0 W/m 4,1 C 11,6 C 6,4 km/h (2 Bft) 100,00 %
10.04.2018 00:02 11,4 C 9,4 C 62 % 1003,4 hPa 0,0 l/m 5,4 km/h (1 Bft) S-SO 147 0 min 0,000 mm 0,0 UV-I 0 W/m 4,4 C 11,4 C 6,4 km/h (2 Bft) 94,74 %
10.04.2018 00:03 11,2 C 9,4 C 63 % 1003,4 hPa 0,0 l/m 5,4 km/h (1 Bft) S-SO 147 0 min 0,000 mm 0,0 UV-I 0 W/m 4,4 C 11,2 C 6,4 km/h (2 Bft) 91,67 %
10.04.2018 00:04 11,2 C 9,4 C 63 % 1003,4 hPa 0,0 l/m 6,4 km/h (2 Bft) S-SO 147 0 min 0,000 mm 0,0 UV-I 0 W/m 4,4 C 11,2 C 8,0 km/h (2 Bft) 100,00 %
10.04.2018 00:05 11,2 C 9,4 C 63 % 1003,4 hPa 0,0 l/m 4,2 km/h (1 Bft) S-SO 149 0 min 0,000 mm 0,0 UV-I 0 W/m 4,4 C 11,2 C 6,4 km/h (2 Bft) 87,50 %
10.04.2018 00:06 11,4 C 9,4 C 61 % 1003,4 hPa 0,0 l/m 3,5 km/h (1 Bft) S-SO 152 0 min 0,000 mm 0,0 UV-I 0 W/m 4,2 C 11,4 C 4,8 km/h (1 Bft) 100,00 %
10.04.2018 00:07 11,5 C 9,4 C 62 % 1003,4 hPa 0,0 l/m 3,6 km/h (1 Bft) S-SO 152 0 min 0,000 mm 0,0 UV-I 0 W/m 4,5 C 11,5 C 4,8 km/h (1 Bft) 92,59 %
10.04.2018 00:08 11,4 C 9,4 C 62 % 1003,3 hPa 0,0 l/m 5,6 km/h (1 Bft) S-SO 152 0 min 0,000 mm 0,0 UV-I 0 W/m 4,4 C 11,4 C 6,4 km/h (2 Bft) 100,00 %
10.04.2018 00:09 11,4 C 9,4 C 63 % 1003,3 hPa 0,0 l/m 6,5 km/h (2 Bft) S-SO 152 0 min 0,000 mm 0,0 UV-I 0 W/m 4,6 C 11,4 C 8,0 km/h (2 Bft) 92,59 %
10.04.2018 00:10 11,5 C 9,4 C 62 % 1003,3 hPa 0,0 l/m 6,1 km/h (2 Bft) S-SO 151 0 min 0,000 mm 0,0 UV-I 0 W/m 4,5 C 11,5 C 8,0 km/h (2 Bft) 91,30 %
10.04.2018 00:11 11,4 C 9,4 C 62 % 1003,2 hPa 0,0 l/m 6,8 km/h (2 Bft) S-SO 151 0 min 0,000 mm 0,0 UV-I 0 W/m 4,4 C 11,1 C 8,0 km/h (2 Bft) 100,00 %
10.04.2018 00:12 11,3 C 9,4 C 63 % 1003,3 hPa 0,0 l/m 6,4 km/h (2 Bft) SO 144 0 min 0,000 mm 0,0 UV-I 0 W/m 4,5 C 11,3 C 8,0 km/h (2 Bft) 95,65 %
10.04.2018 00:13 11,2 C 9,4 C 64 % 1003,2 hPa 0,0 l/m 6,5 km/h (2 Bft) SO 138 0 min 0,000 mm 0,0 UV-I 0 W/m 4,6 C 11,2 C 8,0 km/h (2 Bft) 100,00 %
10.04.2018 00:14 11,2 C 9,4 C 63 % 1003,2 hPa 0,0 l/m 7,2 km/h (2 Bft) SO 142 0 min 0,000 mm 0,0 UV-I 0 W/m 4,4 C 10,6 C 9,7 km/h (2 Bft) 83,33 %
10.04.2018 00:15 11,4 C 9,4 C 62 % 1003,2 hPa 0,0 l/m 7,9 km/h (2 Bft) S 174 0 min 0,000 mm 0,0 UV-I 0 W/m 4,4 C 10,4 C 11,3 km/h (2 Bft) 100,00 %
10.04.2018 00:16 11,9 C 9,4 C 59 % 1003,3 hPa 0,0 l/m 7,9 km/h (2 Bft) S-SO 160 0 min 0,000 mm 0,0 UV-I 0 W/m 4,1 C 10,9 C 11,3 km/h (2 Bft) 91,30 %
10.04.2018 00:17 12,5 C 9,4 C 58 % 1003,3 hPa 0,0 l/m 6,8 km/h (2 Bft) S-SO 159 0 min 0,000 mm 0,0 UV-I 0 W/m 4,5 C 12,2 C 8,0 km/h (2 Bft) 92,59 %
10.04.2018 00:18 12,9 C 9,4 C 55 % 1003,2 hPa 0,0 l/m 5,7 km/h (1 Bft) S-SO 161 0 min 0,000 mm 0,0 UV-I 0 W/m 4,1 C 12,9 C 8,0 km/h (2 Bft) 100,00 %
10.04.2018 00:19 13,2 C 9,4 C 54 % 1003,2 hPa 0,0 l/m 6,6 km/h (2 Bft) S-SO 158 0 min 0,000 mm 0,0 UV-I 0 W/m 4,1 C 13,1 C 9,7 km/h (2 Bft) 93,10 %
10.04.2018 00:20 13,2 C 9,4 C 55 % 1003,2 hPa 0,0 l/m 4,7 km/h (1 Bft) S-SO 160 0 min 0,000 mm 0,0 UV-I 0 W/m 4,4 C 13,2 C 9,7 km/h (2 Bft) 100,00 %
10.04.2018 00:21 13,0 C 9,4 C 56 % 1003,1 hPa 0,0 l/m 5,9 km/h (2 Bft) S-SO 161 0 min 0,000 mm 0,0 UV-I 0 W/m 4,4 C 13,0 C 8,0 km/h (2 Bft) 92,31 %
10.04.2018 00:22 12,9 C 9,4 C 56 % 1003,1 hPa 0,0 l/m 6,7 km/h (2 Bft) S-SO 164 0 min 0,000 mm 0,0 UV-I 0 W/m 4,3 C 12,7 C 8,0 km/h (2 Bft) 100,00 %
10.04.2018 00:23 13,0 C 9,4 C 54 % 1003,1 hPa 0,0 l/m 6,8 km/h (2 Bft) S-SO 168 0 min 0,000 mm 0,0 UV-I 0 W/m 3,9 C 12,8 C 8,0 km/h (2 Bft) 93,10 %
10.04.2018 00:24 12,8 C 9,4 C 56 % 1003,1 hPa 0,0 l/m 7,2 km/h (2 Bft) S-SO 167 0 min 0,000 mm 0,0 UV-I 0 W/m 4,2 C 12,3 C 8,0 km/h (2 Bft) 100,00 %
10.04.2018 00:25 12,8 C 9,4 C 56 % 1003,1 hPa 0,0 l/m 6,5 km/h (2 Bft) S-SO 167 0 min 0,000 mm 0,0 UV-I 0 W/m 4,2 C 12,8 C 8,0 km/h (2 Bft) 92,31 %
10.04.2018 00:26 12,7 C 9,4 C 57 % 1003,2 hPa 0,0 l/m 5,8 km/h (2 Bft) S 172 0 min 0,000 mm 0,0 UV-I 0 W/m 4,4 C 12,7 C 8,0 km/h (2 Bft) 100,00 %
10.04.2018 00:27 12,5 C 9,4 C 58 % 1003,1 hPa 0,0 l/m 5,5 km/h (1 Bft) S 171 0 min 0,000 mm 0,0 UV-I 0 W/m 4,5 C 12,5 C 8,0 km/h (2 Bft) 92,31 %
10.04.2018 00:28 12,3 C 9,4 C 58 % 1003,1 hPa 0,0 l/m 5,0 km/h (1 Bft) S 171 0 min 0,000 mm 0,0 UV-I 0 W/m 4,3 C 12,3 C 6,4 km/h (2 Bft) 96,30 %
10.04.2018 00:29 12,3 C 9,4 C 59 % 1003,1 hPa 0,0 l/m 5,9 km/h (2 Bft) S 171 0 min 0,000 mm 0,0 UV-I 0 W/m 4,5 C 12,3 C 8,0 km/h (2 Bft) 95,65 %
10.04.2018 00:30 12,1 C 9,4 C 62 % 1003,1 hPa 0,0 l/m 5,8 km/h (2 Bft) S 170 0 min 0,000 mm 0,0 UV-I 0 W/m 5,0 C 12,1 C 6,4 km/h (2 Bft) 91,67 %
10.04.2018 00:31 11,7 C 9,4 C 62 % 1003,1 hPa 0,0 l/m 5,8 km/h (2 Bft) S 170 0 min 0,000 mm 0,0 UV-I 0 W/m 4,7 C 11,7 C 8,0 km/h (2 Bft) 100,00 %
10.04.2018 00:32 11,7 C 9,4 C 62 % 1003,1 hPa 0,0 l/m 7,6 km/h (2 Bft) S-SO 165 0 min 0,000 mm 0,0 UV-I 0 W/m 4,7 C 10,9 C 9,7 km/h (2 Bft) 91,67 %
10.04.2018 00:33 11,8 C 9,4 C 60 % 1003,1 hPa 0,0 l/m 7,5 km/h (2 Bft) S-SO 164 0 min 0,000 mm 0,0 UV-I 0 W/m 4,3 C 11,1 C 8,0 km/h (2 Bft) 96,55 %
10.04.2018 00:34 11,9 C 9,4 C 60 % 1003,1 hPa 0,0 l/m 7,3 km/h (2 Bft) S-SO 164 0 min 0,000 mm 0,0 UV-I 0 W/m 4,4 C 11,3 C 8,0 km/h (2 Bft) 91,67 %
10.04.2018 00:35 12,1 C 9,4 C 59 % 1003,1 hPa 0,0 l/m 7,1 km/h (2 Bft) S-SO 164 0 min 0,000 mm 0,0 UV-I 0 W/m 4,3 C 11,6 C 8,0 km/h (2 Bft) 100,00 %
10.04.2018 00:36 12,2 C 9,4 C 58 % 1003,0 hPa 0,0 l/m 6,5 km/h (2 Bft) S-SO 164 0 min 0,000 mm 0,0 UV-I 0 W/m 4,2 C 12,2 C 8,0 km/h (2 Bft) 91,30 %
10.04.2018 00:37 12,3 C 9,4 C 58 % 1002,9 hPa 0,0 l/m 6,1 km/h (2 Bft) S-SO 164 0 min 0,000 mm 0,0 UV-I 0 W/m 4,3 C 12,3 C 8,0 km/h (2 Bft) 100,00 %
10.04.2018 00:38 12,4 C 9,4 C 58 % 1002,8 hPa 0,0 l/m 6,3 km/h (2 Bft) S-SO 164 0 min 0,000 mm 0,0 UV-I 0 W/m 4,4 C 12,4 C 6,4 km/h (2 Bft) 95,65 %
10.04.2018 00:39 12,3 C 9,4 C 59 % 1002,9 hPa 0,0 l/m 7,4 km/h (2 Bft) S-SO 163 0 min 0,000 mm 0,0 UV-I 0 W/m 4,5 C 11,6 C 8,0 km/h (2 Bft) 100,00 %
10.04.2018 00:40 12,2 C 9,4 C 58 % 1002,8 hPa 0,0 l/m 8,1 km/h (2 Bft) S-SO 153 0 min 0,000 mm 0,0 UV-I 0 W/m 4,2 C 11,1 C 9,7 km/h (2 Bft) 95,83 %
10.04.2018 00:41 12,0 C 9,4 C 59 % 1002,8 hPa 0,0 l/m 7,5 km/h (2 Bft) S-SO 153 0 min 0,000 mm 0,0 UV-I 0 W/m 4,2 C 11,3 C 8,0 km/h (2 Bft) 100,00 %
10.04.2018 00:42 11,8 C 9,4 C 60 % 1002,8 hPa 0,0 l/m 7,0 km/h (2 Bft) S-SO 153 0 min 0,000 mm 0,0 UV-I 0 W/m 4,3 C 11,4 C 8,0 km/h (2 Bft) 96,15 %
10.04.2018 00:43 11,8 C 9,4 C 60 % 1002,8 hPa 0,0 l/m 7,8 km/h (2 Bft) S-SO 154 0 min 0,000 mm 0,0 UV-I 0 W/m 4,3 C 10,9 C 9,7 km/h (2 Bft) 92,59 %
10.04.2018 00:44 11,9 C 9,4 C 60 % 1002,8 hPa 0,0 l/m 8,7 km/h (2 Bft) S-SO 155 0 min 0,000 mm 0,0 UV-I 0 W/m 4,4 C 10,4 C 9,7 km/h (2 Bft) 100,00 %
10.04.2018 00:45 12,2 C 9,4 C 58 % 1002,8 hPa 0,0 l/m 9,5 km/h (2 Bft) S-SO 158 0 min 0,000 mm 0,0 UV-I 0 W/m 4,2 C 10,3 C 11,3 km/h (2 Bft) 96,30 %
10.04.2018 00:46 12,2 C 9,4 C 58 % 1002,8 hPa 0,0 l/m 8,3 km/h (2 Bft) S-SO 155 0 min 0,000 mm 0,0 UV-I 0 W/m 4,2 C 11,0 C 11,3 km/h (2 Bft) 100,00 %
10.04.2018 00:47 12,0 C 9,4 C 60 % 1002,8 hPa 0,0 l/m 8,8 km/h (2 Bft) SO 142 0 min 0,000 mm 0,0 UV-I 0 W/m 4,5 C 10,5 C 11,3 km/h (2 Bft) 96,30 %
10.04.2018 00:48 11,9 C 9,4 C 60 % 1002,8 hPa 0,0 l/m 7,9 km/h (2 Bft) SO 142 0 min 0,000 mm 0,0 UV-I 0 W/m 4,4 C 10,9 C 9,7 km/h (2 Bft) 100,00 %
10.04.2018 00:49 11,8 C 9,4 C 61 % 1002,8 hPa 0,0 l/m 7,9 km/h (2 Bft) SO 138 0 min 0,000 mm 0,0 UV-I 0 W/m 4,5 C 10,8 C 9,7 km/h (2 Bft) 95,83 %
10.04.2018 00:50 11,9 C 9,4 C 60 % 1002,8 hPa 0,0 l/m 7,9 km/h (2 Bft) SO 138 0 min 0,000 mm 0,0 UV-I 0 W/m 4,4 C 10,9 C 9,7 km/h (2 Bft) 100,00 %
10.04.2018 00:51 12,1 C 9,4 C 60 % 1002,8 hPa 0,0 l/m 7,4 km/h (2 Bft) S-SO 148 0 min 0,000 mm 0,0 UV-I 0 W/m 4,6 C 11,4 C 9,7 km/h (2 Bft) 95,83 %
10.04.2018 00:52 12,2 C 9,4 C 59 % 1002,7 hPa 0,0 l/m 7,0 km/h (2 Bft) SO 143 0 min 0,000 mm 0,0 UV-I 0 W/m 4,4 C 11,8 C 9,7 km/h (2 Bft) 92,31 %
10.04.2018 00:53 12,3 C 9,4 C 58 % 1002,8 hPa 0,0 l/m 6,9 km/h (2 Bft) S-SO 148 0 min 0,000 mm 0,0 UV-I 0 W/m 4,3 C 12,0 C 9,7 km/h (2 Bft) 100,00 %
10.04.2018 00:54 12,6 C 9,4 C 57 % 1002,7 hPa 0,0 l/m 7,2 km/h (2 Bft) S-SO 148 0 min 0,000 mm 0,0 UV-I 0 W/m 4,3 C 12,1 C 8,0 km/h (2 Bft) 96,30 %
10.04.2018 00:55 12,8 C 9,4 C 56 % 1002,7 hPa 0,0 l/m 6,4 km/h (2 Bft) S-SO 156 0 min 0,000 mm 0,0 UV-I 0 W/m 4,2 C 12,8 C 8,0 km/h (2 Bft) 100,00 %
10.04.2018 00:56 12,9 C 9,4 C 56 % 1002,7 hPa 0,0 l/m 6,7 km/h (2 Bft) S-SO 152 0 min 0,000 mm 0,0 UV-I 0 W/m 4,3 C 12,7 C 8,0 km/h (2 Bft) 96,15 %
10.04.2018 00:57 12,9 C 9,4 C 56 % 1002,6 hPa 0,0 l/m 6,6 km/h (2 Bft) S-SO 152 0 min 0,000 mm 0,0 UV-I 0 W/m 4,3 C 12,8 C 8,0 km/h (2 Bft) 100,00 %
10.04.2018 00:58 12,8 C 9,4 C 56 % 1002,7 hPa 0,0 l/m 5,9 km/h (2 Bft) S-SO 152 0 min 0,000 mm 0,0 UV-I 0 W/m 4,2 C 12,8 C 8,0 km/h (2 Bft) 91,67 %
10.04.2018 00:59 12,9 C 9,4 C 56 % 1002,7 hPa 0,0 l/m 5,8 km/h (2 Bft) S-SO 150 0 min 0,000 mm 0,0 UV-I 0 W/m 4,3 C 12,9 C 8,0 km/h (2 Bft) 100,00 %
10.04.2018 01:00 13,0 C 9,4 C 55 % 1002,7 hPa 0,0 l/m 6,3 km/h (2 Bft) S-SO 150 0 min 0,000 mm 0,0 UV-I 0 W/m 4,2 C 13,0 C 8,0 km/h (2 Bft) 86,67 %
10.04.2018 01:01 13,1 C 9,4 C 55 % 1002,7 hPa 0,0 l/m 5,0 km/h (1 Bft) S-SO 150 0 min 0,025 mm 0,0 UV-I 0 W/m 4,3 C 13,1 C 8,0 km/h (2 Bft) 100,00 %
10.04.2018 01:02 13,2 C 9,4 C 55 % 1002,7 hPa 0,0 l/m 4,8 km/h (1 Bft) S-SO 150 0 min 0,000 mm 0,0 UV-I 0 W/m 4,4 C 13,2 C 6,4 km/h (2 Bft) 96,97 %
10.04.2018 01:03 13,1 C 9,4 C 55 % 1002,7 hPa 0,0 l/m 5,8 km/h (2 Bft) S-SO 150 0 min 0,000 mm 0,0 UV-I 0 W/m 4,3 C 13,1 C 6,4 km/h (2 Bft) 95,65 %
10.04.2018 01:04 13,0 C 9,4 C 55 % 1002,7 hPa 0,0 l/m 4,3 km/h (1 Bft) S-SO 150 0 min 0,000 mm 0,0 UV-I 0 W/m 4,2 C 13,0 C 6,4 km/h (2 Bft) 100,00 %
10.04.2018 01:05 12,9 C 9,4 C 56 % 1002,7 hPa 0,0 l/m 4,4 km/h (1 Bft) S-SO 150 0 min 0,000 mm 0,0 UV-I 0 W/m 4,3 C 12,9 C 6,4 km/h (2 Bft) 100,00 %
10.04.2018 01:06 12,9 C 9,4 C 56 % 1002,7 hPa 0,0 l/m 5,5 km/h (1 Bft) S-SO 151 0 min 0,000 mm 0,0 UV-I 0 W/m 4,3 C 12,9 C 6,4 km/h (2 Bft) 91,67 %
10.04.2018 01:07 12,9 C 9,4 C 55 % 1002,7 hPa 0,0 l/m 6,2 km/h (2 Bft) S-SO 155 0 min 0,000 mm 0,0 UV-I 0 W/m 4,1 C 12,9 C 9,7 km/h (2 Bft) 97,62 %
10.04.2018 01:08 13,1 C 9,4 C 55 % 1002,7 hPa 0,0 l/m 5,7 km/h (1 Bft) S-SO 155 0 min 0,000 mm 0,0 UV-I 0 W/m 4,3 C 13,1 C 9,7 km/h (2 Bft) 100,00 %
10.04.2018 01:09 13,2 C 9,4 C 54 % 1002,7 hPa 0,0 l/m 3,6 km/h (1 Bft) S-SO 155 0 min 0,000 mm 0,0 UV-I 0 W/m 4,1 C 13,2 C 4,8 km/h (1 Bft) 91,67 %
10.04.2018 01:10 13,2 C 9,4 C 56 % 1002,7 hPa 0,0 l/m 4,5 km/h (1 Bft) S-SO 158 0 min 0,000 mm 0,0 UV-I 0 W/m 4,6 C 13,2 C 6,4 km/h (2 Bft) 100,00 %
10.04.2018 01:11 13,0 C 9,4 C 57 % 1002,7 hPa 0,0 l/m 3,6 km/h (1 Bft) S-SO 159 0 min 0,000 mm 0,0 UV-I 0 W/m 4,7 C 13,0 C 6,4 km/h (2 Bft) 96,55 %
10.04.2018 01:12 12,7 C 9,4 C 59 % 1002,7 hPa 0,0 l/m 1,6 km/h (1 Bft) S-SO 159 0 min 0,000 mm 0,0 UV-I 0 W/m 4,9 C 12,7 C 3,2 km/h (1 Bft) 100,00 %
10.04.2018 01:13 12,5 C 9,4 C 59 % 1002,7 hPa 0,0 l/m 2,2 km/h (1 Bft) S-SO 159 0 min 0,000 mm 0,0 UV-I 0 W/m 4,7 C 12,5 C 3,2 km/h (1 Bft) 96,30 %
10.04.2018 01:14 12,3 C 9,4 C 59 % 1002,7 hPa 0,0 l/m 6,1 km/h (2 Bft) S 173 0 min 0,000 mm 0,0 UV-I 0 W/m 4,5 C 12,3 C 8,0 km/h (2 Bft) 96,55 %
10.04.2018 01:15 12,1 C 9,4 C 61 % 1002,7 hPa 0,0 l/m 5,1 km/h (1 Bft) S 173 0 min 0,000 mm 0,0 UV-I 0 W/m 4,8 C 12,1 C 8,0 km/h (2 Bft) 95,83 %
10.04.2018 01:16 12,0 C 9,4 C 61 % 1002,7 hPa 0,0 l/m 5,2 km/h (1 Bft) S 173 0 min 0,000 mm 0,0 UV-I 0 W/m 4,7 C 12,0 C 8,0 km/h (2 Bft) 96,55 %
10.04.2018 01:17 12,0 C 9,4 C 62 % 1002,7 hPa 0,0 l/m 4,9 km/h (1 Bft) S 174 0 min 0,000 mm 0,0 UV-I 0 W/m 4,9 C 12,0 C 8,0 km/h (2 Bft) 96,23 %
10.04.2018 01:18 11,9 C 9,4 C 62 % 1002,7 hPa 0,0 l/m 4,8 km/h (1 Bft) S 174 0 min 0,000 mm 0,0 UV-I 0 W/m 4,9 C 11,9 C 8,0 km/h (2 Bft) 95,12 %
10.04.2018 01:19 11,9 C 9,4 C 62 % 1002,7 hPa 0,0 l/m 6,6 km/h (2 Bft) S 190 0 min 0,000 mm 0,0 UV-I 0 W/m 4,9 C 11,8 C 8,0 km/h (2 Bft) 100,00 %
10.04.2018 01:20 11,9 C 9,4 C 61 % 1002,7 hPa 0,0 l/m 5,3 km/h (1 Bft) S 190 0 min 0,000 mm 0,0 UV-I 0 W/m 4,6 C 11,9 C 6,4 km/h (2 Bft) 94,12 %
10.04.2018 01:21 12,0 C 9,4 C 62 % 1002,6 hPa 0,0 l/m 5,2 km/h (1 Bft) S 190 0 min 0,000 mm 0,0 UV-I 0 W/m 4,9 C 12,0 C 6,4 km/h (2 Bft) 95,83 %
10.04.2018 01:22 12,0 C 9,4 C 62 % 1002,7 hPa 0,0 l/m 5,7 km/h (1 Bft) S-SW 200 0 min 0,000 mm 0,0 UV-I 0 W/m 4,9 C 12,0 C 8,0 km/h (2 Bft) 96,15 %
10.04.2018 01:23 12,0 C 9,4 C 61 % 1002,6 hPa 0,0 l/m 4,5 km/h (1 Bft) S-SW 200 0 min 0,000 mm 0,0 UV-I 0 W/m 4,7 C 12,0 C 6,4 km/h (2 Bft) 100,00 %
10.04.2018 01:24 12,0 C 9,4 C 62 % 1002,6 hPa 0,0 l/m 3,8 km/h (1 Bft) S-SW 200 0 min 0,000 mm 0,0 UV-I 0 W/m 4,9 C 12,0 C 4,8 km/h (1 Bft) 96,15 %
10.04.2018 01:25 12,0 C 9,4 C 62 % 1002,6 hPa 0,0 l/m 5,0 km/h (1 Bft) S-SW 200 0 min 0,000 mm 0,0 UV-I 0 W/m 4,9 C 12,0 C 6,4 km/h (2 Bft) 100,00 %
10.04.2018 01:26 12,0 C 9,4 C 62 % 1002,5 hPa 0,0 l/m 5,7 km/h (1 Bft) S-SW 200 0 min 0,000 mm 0,0 UV-I 0 W/m 4,9 C 12,0 C 6,4 km/h (2 Bft) 92,31 %
10.04.2018 01:27 12,1 C 9,4 C 62 % 1002,5 hPa 0,0 l/m 6,8 km/h (2 Bft) S 185 0 min 0,000 mm 0,0 UV-I 0 W/m 5,0 C 11,8 C 8,0 km/h (2 Bft) 96,30 %
10.04.2018 01:28 12,2 C 9,4 C 61 % 1002,6 hPa 0,0 l/m 5,5 km/h (1 Bft) S 185 0 min 0,000 mm 0,0 UV-I 0 W/m 4,9 C 12,2 C 6,4 km/h (2 Bft) 100,00 %
10.04.2018 01:29 12,4 C 9,4 C 60 % 1002,6 hPa 0,0 l/m 4,4 km/h (1 Bft) S 185 0 min 0,000 mm 0,0 UV-I 0 W/m 4,9 C 12,4 C 6,4 km/h (2 Bft) 95,83 %
10.04.2018 01:30 12,6 C 9,4 C 60 % 1002,6 hPa 0,0 l/m 4,0 km/h (1 Bft) S 184 0 min 0,000 mm 0,0 UV-I 0 W/m 5,0 C 12,6 C 4,8 km/h (1 Bft) 100,00 %
10.04.2018 01:31 12,6 C 9,4 C 60 % 1002,6 hPa 0,0 l/m 3,0 km/h (1 Bft) S 184 0 min 0,000 mm 0,0 UV-I 0 W/m 5,0 C 12,6 C 4,8 km/h (1 Bft) 100,00 %
10.04.2018 01:32 12,6 C 9,4 C 60 % 1002,6 hPa 0,0 l/m 2,0 km/h (1 Bft) S 184 0 min 0,000 mm 0,0 UV-I 0 W/m 5,0 C 12,6 C 3,2 km/h (1 Bft) 100,00 %
10.04.2018 01:33 12,6 C 9,4 C 60 % 1002,6 hPa 0,0 l/m 1,5 km/h (1 Bft) S 184 0 min 0,000 mm 0,0 UV-I 0 W/m 5,0 C 12,6 C 3,2 km/h (1 Bft) 100,00 %
10.04.2018 01:34 12,7 C 9,4 C 59 % 1002,6 hPa 0,0 l/m 2,9 km/h (1 Bft) O 85 0 min 0,000 mm 0,0 UV-I 0 W/m 4,9 C 12,7 C 4,8 km/h (1 Bft) 96,43 %
10.04.2018 01:35 12,7 C 9,4 C 60 % 1002,6 hPa 0,0 l/m 7,1 km/h (2 Bft) NO 56 0 min 0,000 mm 0,0 UV-I 0 W/m 5,1 C 12,3 C 8,0 km/h (2 Bft) 100,00 %
10.04.2018 01:36 12,4 C 9,4 C 62 % 1002,6 hPa 0,0 l/m 5,1 km/h (1 Bft) NO 55 0 min 0,000 mm 0,0 UV-I 0 W/m 5,3 C 12,4 C 6,4 km/h (2 Bft) 100,00 %
10.04.2018 01:37 11,9 C 9,4 C 64 % 1002,6 hPa 0,0 l/m 4,9 km/h (1 Bft) NO 55 0 min 0,000 mm 0,0 UV-I 0 W/m 5,3 C 11,9 C 6,4 km/h (2 Bft) 100,00 %
10.04.2018 01:38 11,5 C 9,4 C 65 % 1002,6 hPa 0,0 l/m 3,8 km/h (1 Bft) NO 55 0 min 0,000 mm 0,0 UV-I 0 W/m 5,2 C 11,5 C 4,8 km/h (1 Bft) 100,00 %
10.04.2018 01:39 11,2 C 9,4 C 66 % 1002,6 hPa 0,0 l/m 4,0 km/h (1 Bft) NO 55 0 min 0,000 mm 0,0 UV-I 0 W/m 5,1 C 11,2 C 4,8 km/h (1 Bft) 100,00 %
10.04.2018 01:40 11,0 C 9,4 C 68 % 1002,6 hPa 0,0 l/m 2,9 km/h (1 Bft) NO 55 0 min 0,000 mm 0,0 UV-I 0 W/m 5,3 C 11,0 C 3,2 km/h (1 Bft) 100,00 %
10.04.2018 01:41 10,9 C 9,4 C 68 % 1002,5 hPa 0,0 l/m 3,1 km/h (1 Bft) NO 55 0 min 0,000 mm 0,0 UV-I 0 W/m 5,2 C 10,9 C 3,2 km/h (1 Bft) 100,00 %
10.04.2018 01:42 10,9 C 9,4 C 68 % 1002,5 hPa 0,0 l/m 3,0 km/h (1 Bft) NO 55 0 min 0,000 mm 0,0 UV-I 0 W/m 5,2 C 10,9 C 3,2 km/h (1 Bft) 95,83 %
10.04.2018 01:43 11,0 C 9,4 C 68 % 1002,5 hPa 0,0 l/m 3,4 km/h (1 Bft) NO 55 0 min 0,000 mm 0,0 UV-I 0 W/m 5,3 C 11,0 C 4,8 km/h (1 Bft) 100,00 %
10.04.2018 01:44 11,1 C 9,4 C 67 % 1002,5 hPa 0,0 l/m 2,9 km/h (1 Bft) NO 55 0 min 0,000 mm 0,0 UV-I 0 W/m 5,2 C 11,1 C 4,8 km/h (1 Bft) 100,00 %
10.04.2018 01:45 11,2 C 9,4 C 67 % 1002,5 hPa 0,0 l/m 2,8 km/h (1 Bft) NO 55 0 min 0,000 mm 0,0 UV-I 0 W/m 5,3 C 11,2 C 3,2 km/h (1 Bft) 100,00 %
10.04.2018 01:46 11,4 C 9,4 C 66 % 1002,4 hPa 0,0 l/m 2,9 km/h (1 Bft) NO 55 0 min 0,000 mm 0,0 UV-I 0 W/m 5,3 C 11,4 C 3,2 km/h (1 Bft) 100,00 %
10.04.2018 01:47 11,6 C 9,4 C 65 % 1002,4 hPa 0,0 l/m 3,5 km/h (1 Bft) NO 55 0 min 0,000 mm 0,0 UV-I 0 W/m 5,2 C 11,6 C 4,8 km/h (1 Bft) 100,00 %
10.04.2018 01:48 11,7 C 9,4 C 65 % 1002,4 hPa 0,0 l/m 2,0 km/h (1 Bft) NO 55 0 min 0,000 mm 0,0 UV-I 0 W/m 5,3 C 11,7 C 3,2 km/h (1 Bft) 100,00 %
10.04.2018 01:49 11,9 C 9,4 C 64 % 1002,4 hPa 0,0 l/m 2,7 km/h (1 Bft) NO 55 0 min 0,000 mm 0,0 UV-I 0 W/m 5,3 C 11,9 C 3,2 km/h (1 Bft) 100,00 %
10.04.2018 01:50 11,9 C 9,4 C 64 % 1002,3 hPa 0,0 l/m 3,7 km/h (1 Bft) NO 55 0 min 0,000 mm 0,0 UV-I 0 W/m 5,3 C 11,9 C 4,8 km/h (1 Bft) 100,00 %
10.04.2018 01:51 12,1 C 9,4 C 63 % 1002,3 hPa 0,0 l/m 3,4 km/h (1 Bft) NO 55 0 min 0,000 mm 0,0 UV-I 0 W/m 5,3 C 12,1 C 4,8 km/h (1 Bft) 100,00 %
10.04.2018 01:52 12,1 C 9,4 C 62 % 1002,3 hPa 0,0 l/m 2,4 km/h (1 Bft) NO 55 0 min 0,000 mm 0,0 UV-I 0 W/m 5,0 C 12,1 C 3,2 km/h (1 Bft) 96,15 %
10.04.2018 01:53 12,2 C 9,4 C 62 % 1002,3 hPa 0,0 l/m 1,8 km/h (1 Bft) NO 55 0 min 0,000 mm 0,0 UV-I 0 W/m 5,1 C 12,2 C 3,2 km/h (1 Bft) 100,00 %
10.04.2018 01:54 12,2 C 9,4 C 63 % 1002,3 hPa 0,0 l/m 2,1 km/h (1 Bft) NO 55 0 min 0,000 mm 0,0 UV-I 0 W/m 5,4 C 12,2 C 3,2 km/h (1 Bft) 100,00 %
10.04.2018 01:55 12,2 C 9,4 C 62 % 1002,3 hPa 0,0 l/m 2,2 km/h (1 Bft) NO 55 0 min 0,000 mm 0,0 UV-I 0 W/m 5,1 C 12,2 C 3,2 km/h (1 Bft) 100,00 %
10.04.2018 01:56 12,2 C 9,4 C 62 % 1002,2 hPa 0,0 l/m 3,7 km/h (1 Bft) NO 55 0 min 0,000 mm 0,0 UV-I 0 W/m 5,1 C 12,2 C 4,8 km/h (1 Bft) 100,00 %
10.04.2018 01:57 12,2 C 9,4 C 61 % 1002,2 hPa 0,0 l/m 2,9 km/h (1 Bft) NO 55 0 min 0,000 mm 0,0 UV-I 0 W/m 4,9 C 12,2 C 3,2 km/h (1 Bft) 100,00 %
10.04.2018 01:58 12,2 C 9,4 C 61 % 1002,3 hPa 0,0 l/m 3,2 km/h (1 Bft) NO 55 0 min 0,000 mm 0,0 UV-I 0 W/m 4,9 C 12,2 C 4,8 km/h (1 Bft) 96,15 %
10.04.2018 01:59 12,2 C 9,4 C 62 % 1002,3 hPa 0,0 l/m 4,7 km/h (1 Bft) NO 55 0 min 0,000 mm 0,0 UV-I 0 W/m 5,1 C 12,2 C 6,4 km/h (2 Bft) 100,00 %
10.04.2018 02:00 12,0 C 9,4 C 62 % 1002,3 hPa 0,0 l/m 5,0 km/h (1 Bft) NO 55 0 min 0,000 mm 0,0 UV-I 0 W/m 4,9 C 12,0 C 6,4 km/h (2 Bft) 100,00 %
10.04.2018 02:01 11,8 C 9,4 C 63 % 1002,2 hPa 0,0 l/m 6,1 km/h (2 Bft) NO 55 0 min 0,026 mm 0,0 UV-I 0 W/m 5,0 C 11,8 C 8,0 km/h (2 Bft) 95,83 %
10.04.2018 02:02 11,8 C 9,4 C 62 % 1002,2 hPa 0,0 l/m 7,3 km/h (2 Bft) NO 55 0 min 0,000 mm 0,0 UV-I 0 W/m 4,8 C 11,2 C 8,0 km/h (2 Bft) 100,00 %
10.04.2018 02:03 11,7 C 9,4 C 63 % 1002,3 hPa 0,0 l/m 7,5 km/h (2 Bft) NO 52 0 min 0,000 mm 0,0 UV-I 0 W/m 4,9 C 11,0 C 9,7 km/h (2 Bft) 100,00 %
10.04.2018 02:04 11,7 C 9,4 C 64 % 1002,2 hPa 0,0 l/m 7,8 km/h (2 Bft) NO 48 0 min 0,000 mm 0,0 UV-I 0 W/m 5,1 C 10,8 C 9,7 km/h (2 Bft) 100,00 %
10.04.2018 02:05 11,6 C 9,4 C 64 % 1002,2 hPa 0,0 l/m 7,7 km/h (2 Bft) NO 49 0 min 0,000 mm 0,0 UV-I 0 W/m 5,0 C 10,7 C 9,7 km/h (2 Bft) 100,00 %
10.04.2018 02:06 11,4 C 9,4 C 65 % 1002,2 hPa 0,0 l/m 6,4 km/h (2 Bft) NO 50 0 min 0,000 mm 0,0 UV-I 0 W/m 5,1 C 11,4 C 8,0 km/h (2 Bft) 100,00 %
10.04.2018 02:07 11,4 C 9,4 C 65 % 1002,2 hPa 0,0 l/m 5,3 km/h (1 Bft) NO 49 0 min 0,000 mm 0,0 UV-I 0 W/m 5,1 C 11,4 C 6,4 km/h (2 Bft) 100,00 %
10.04.2018 02:08 11,4 C 9,4 C 65 % 1002,2 hPa 0,0 l/m 4,7 km/h (1 Bft) NO 47 0 min 0,000 mm 0,0 UV-I 0 W/m 5,1 C 11,4 C 6,4 km/h (2 Bft) 100,00 %
10.04.2018 02:09 11,4 C 9,4 C 65 % 1002,2 hPa 0,0 l/m 4,3 km/h (1 Bft) NO 47 0 min 0,000 mm 0,0 UV-I 0 W/m 5,1 C 11,4 C 6,4 km/h (2 Bft) 100,00 %
10.04.2018 02:10 11,4 C 9,4 C 64 % 1002,2 hPa 0,0 l/m 4,0 km/h (1 Bft) NO 47 0 min 0,000 mm 0,0 UV-I 0 W/m 4,8 C 11,4 C 4,8 km/h (1 Bft) 100,00 %
10.04.2018 02:11 11,5 C 9,4 C 64 % 1002,2 hPa 0,0 l/m 3,9 km/h (1 Bft) NO 47 0 min 0,000 mm 0,0 UV-I 0 W/m 4,9 C 11,5 C 4,8 km/h (1 Bft) 96,30 %
10.04.2018 02:12 11,6 C 9,4 C 64 % 1002,2 hPa 0,0 l/m 3,5 km/h (1 Bft) NO 47 0 min 0,000 mm 0,0 UV-I 0 W/m 5,0 C 11,6 C 4,8 km/h (1 Bft) 100,00 %
10.04.2018 02:13 11,7 C 9,4 C 63 % 1002,1 hPa 0,0 l/m 3,2 km/h (1 Bft) NO 47 0 min 0,000 mm 0,0 UV-I 0 W/m 4,9 C 11,7 C 4,8 km/h (1 Bft) 100,00 %
10.04.2018 02:14 11,8 C 9,4 C 63 % 1002,2 hPa 0,0 l/m 2,3 km/h (1 Bft) NO 47 0 min 0,000 mm 0,0 UV-I 0 W/m 5,0 C 11,8 C 3,2 km/h (1 Bft) 100,00 %
10.04.2018 02:15 11,8 C 9,4 C 63 % 1002,1 hPa 0,0 l/m 3,2 km/h (1 Bft) NO 47 0 min 0,000 mm 0,0 UV-I 0 W/m 5,0 C 11,8 C 4,8 km/h (1 Bft) 100,00 %
10.04.2018 02:16 11,8 C 9,4 C 62 % 1002,1 hPa 0,0 l/m 3,9 km/h (1 Bft) NO 47 0 min 0,000 mm 0,0 UV-I 0 W/m 4,8 C 11,8 C 4,8 km/h (1 Bft) 100,00 %
10.04.2018 02:17 11,9 C 9,4 C 62 % 1002,1 hPa 0,0 l/m 4,2 km/h (1 Bft) NO 47 0 min 0,000 mm 0,0 UV-I 0 W/m 4,9 C 11,9 C 4,8 km/h (1 Bft) 100,00 %
10.04.2018 02:18 12,0 C 9,4 C 61 % 1002,1 hPa 0,0 l/m 4,9 km/h (1 Bft) NO 54 0 min 0,000 mm 0,0 UV-I 0 W/m 4,7 C 12,0 C 6,4 km/h (2 Bft) 100,00 %
10.04.2018 02:19 12,1 C 9,4 C 61 % 1002,2 hPa 0,0 l/m 5,1 km/h (1 Bft) NO 54 0 min 0,000 mm 0,0 UV-I 0 W/m 4,8 C 12,1 C 6,4 km/h (2 Bft) 95,65 %
10.04.2018 02:20 12,2 C 9,4 C 60 % 1002,1 hPa 0,0 l/m 5,2 km/h (1 Bft) NO 54 0 min 0,000 mm 0,0 UV-I 0 W/m 4,7 C 12,2 C 6,4 km/h (2 Bft) 100,00 %
10.04.2018 02:21 12,2 C 9,4 C 60 % 1002,1 hPa 0,0 l/m 4,9 km/h (1 Bft) NO 54 0 min 0,000 mm 0,0 UV-I 0 W/m 4,7 C 12,2 C 6,4 km/h (2 Bft) 100,00 %
10.04.2018 02:22 12,3 C 9,4 C 60 % 1002,1 hPa 0,0 l/m 5,2 km/h (1 Bft) NO 53 0 min 0,000 mm 0,0 UV-I 0 W/m 4,8 C 12,3 C 6,4 km/h (2 Bft) 95,83 %
10.04.2018 02:23 12,2 C 9,4 C 60 % 1002,1 hPa 0,0 l/m 6,1 km/h (2 Bft) NO 53 0 min 0,000 mm 0,0 UV-I 0 W/m 4,7 C 12,2 C 6,4 km/h (2 Bft) 95,65 %
10.04.2018 02:24 12,1 C 9,4 C 60 % 1002,1 hPa 0,0 l/m 6,4 km/h (2 Bft) NO 53 0 min 0,000 mm 0,0 UV-I 0 W/m 4,6 C 12,1 C 8,0 km/h (2 Bft) 100,00 %
10.04.2018 02:25 12,0 C 9,4 C 61 % 1002,1 hPa 0,0 l/m 6,4 km/h (2 Bft) O-NO 58 0 min 0,000 mm 0,0 UV-I 0 W/m 4,7 C 12,0 C 8,0 km/h (2 Bft) 96,15 %
10.04.2018 02:26 12,0 C 9,4 C 61 % 1002,1 hPa 0,0 l/m 6,2 km/h (2 Bft) O-NO 65 0 min 0,000 mm 0,0 UV-I 0 W/m 4,7 C 12,0 C 8,0 km/h (2 Bft) 100,00 %
10.04.2018 02:27 12,1 C 9,4 C 60 % 1002,1 hPa 0,0 l/m 5,7 km/h (1 Bft) O-NO 71 0 min 0,000 mm 0,0 UV-I 0 W/m 4,6 C 12,1 C 6,4 km/h (2 Bft) 91,67 %
10.04.2018 02:28 12,1 C 9,4 C 60 % 1002,1 hPa 0,0 l/m 6,7 km/h (2 Bft) O-NO 60 0 min 0,000 mm 0,0 UV-I 0 W/m 4,6 C 11,9 C 8,0 km/h (2 Bft) 97,56 %
10.04.2018 02:29 12,2 C 9,4 C 60 % 1002,1 hPa 0,0 l/m 5,7 km/h (1 Bft) O-NO 75 0 min 0,000 mm 0,0 UV-I 0 W/m 4,7 C 12,2 C 8,0 km/h (2 Bft) 100,00 %
10.04.2018 02:30 12,3 C 9,4 C 60 % 1002,1 hPa 0,0 l/m 5,8 km/h (2 Bft) O-NO 76 0 min 0,000 mm 0,0 UV-I 0 W/m 4,8 C 12,3 C 6,4 km/h (2 Bft) 96,15 %
10.04.2018 02:31 12,3 C 9,4 C 60 % 1002,1 hPa 0,0 l/m 5,4 km/h (1 Bft) O-NO 76 0 min 0,000 mm 0,0 UV-I 0 W/m 4,8 C 12,3 C 6,4 km/h (2 Bft) 100,00 %
10.04.2018 02:32 12,3 C 9,4 C 59 % 1002,1 hPa 0,0 l/m 5,5 km/h (1 Bft) O 94 0 min 0,000 mm 0,0 UV-I 0 W/m 4,5 C 12,3 C 8,0 km/h (2 Bft) 95,65 %
10.04.2018 02:33 12,4 C 9,4 C 59 % 1002,0 hPa 0,0 l/m 4,4 km/h (1 Bft) O 87 0 min 0,000 mm 0,0 UV-I 0 W/m 4,6 C 12,4 C 6,4 km/h (2 Bft) 100,00 %
10.04.2018 02:34 12,5 C 9,4 C 59 % 1002,0 hPa 0,0 l/m 6,6 km/h (2 Bft) O-SO 103 0 min 0,000 mm 0,0 UV-I 0 W/m 4,7 C 12,4 C 9,7 km/h (2 Bft) 95,65 %
10.04.2018 02:35 12,6 C 9,4 C 59 % 1002,0 hPa 0,0 l/m 7,0 km/h (2 Bft) O 92 0 min 0,000 mm 0,0 UV-I 0 W/m 4,8 C 12,2 C 9,7 km/h (2 Bft) 100,00 %
10.04.2018 02:36 12,6 C 9,4 C 59 % 1002,0 hPa 0,0 l/m 5,6 km/h (1 Bft) O 84 0 min 0,000 mm 0,0 UV-I 0 W/m 4,8 C 12,6 C 9,7 km/h (2 Bft) 96,55 %
10.04.2018 02:37 12,7 C 9,4 C 59 % 1002,0 hPa 0,0 l/m 6,9 km/h (2 Bft) O 89 0 min 0,000 mm 0,0 UV-I 0 W/m 4,9 C 12,4 C 9,7 km/h (2 Bft) 96,30 %
10.04.2018 02:38 12,8 C 9,4 C 58 % 1002,0 hPa 0,0 l/m 9,3 km/h (2 Bft) O-NO 58 0 min 0,000 mm 0,0 UV-I 0 W/m 4,7 C 11,1 C 12,9 km/h (3 Bft) 100,00 %
10.04.2018 02:39 12,9 C 9,4 C 58 % 1002,0 hPa 0,0 l/m 9,7 km/h (2 Bft) O-NO 65 0 min 0,000 mm 0,0 UV-I 0 W/m 4,8 C 11,0 C 11,3 km/h (2 Bft) 96,30 %
10.04.2018 02:40 13,1 C 9,4 C 57 % 1001,9 hPa 0,0 l/m 9,3 km/h (2 Bft) O-NO 69 0 min 0,000 mm 0,0 UV-I 0 W/m 4,8 C 11,4 C 12,9 km/h (3 Bft) 100,00 %
10.04.2018 02:41 13,1 C 9,4 C 57 % 1001,9 hPa 0,0 l/m 11,3 km/h (2 Bft) O-NO 74 0 min 0,000 mm 0,0 UV-I 0 W/m 4,8 C 10,4 C 12,9 km/h (3 Bft) 96,30 %
10.04.2018 02:42 13,2 C 9,4 C 57 % 1001,9 hPa 0,0 l/m 11,3 km/h (2 Bft) O 84 0 min 0,000 mm 0,0 UV-I 0 W/m 4,9 C 10,5 C 14,5 km/h (3 Bft) 100,00 %
10.04.2018 02:43 13,1 C 9,4 C 57 % 1001,9 hPa 0,0 l/m 10,7 km/h (2 Bft) O-NO 70 0 min 0,000 mm 0,0 UV-I 0 W/m 4,8 C 10,7 C 12,9 km/h (3 Bft) 91,67 %
10.04.2018 02:44 13,0 C 9,4 C 57 % 1001,9 hPa 0,0 l/m 9,1 km/h (2 Bft) O-NO 65 0 min 0,000 mm 0,0 UV-I 0 W/m 4,7 C 11,4 C 11,3 km/h (2 Bft) 96,88 %
10.04.2018 02:45 12,9 C 9,4 C 59 % 1001,9 hPa 0,0 l/m 7,3 km/h (2 Bft) O-NO 58 0 min 0,000 mm 0,0 UV-I 0 W/m 5,1 C 12,3 C 8,0 km/h (2 Bft) 100,00 %
10.04.2018 02:46 12,7 C 9,4 C 60 % 1001,8 hPa 0,0 l/m 8,0 km/h (2 Bft) O-NO 72 0 min 0,000 mm 0,0 UV-I 0 W/m 5,1 C 11,7 C 11,3 km/h (2 Bft) 96,30 %
10.04.2018 02:47 12,4 C 9,4 C 62 % 1001,9 hPa 0,0 l/m 6,0 km/h (2 Bft) O 80 0 min 0,000 mm 0,0 UV-I 0 W/m 5,3 C 12,4 C 8,0 km/h (2 Bft) 100,00 %
10.04.2018 02:48 12,2 C 9,4 C 63 % 1001,8 hPa 0,0 l/m 4,6 km/h (1 Bft) O 82 0 min 0,000 mm 0,0 UV-I 0 W/m 5,4 C 12,2 C 6,4 km/h (2 Bft) 96,30 %
10.04.2018 02:49 12,0 C 9,4 C 63 % 1001,8 hPa 0,0 l/m 6,0 km/h (2 Bft) O 84 0 min 0,000 mm 0,0 UV-I 0 W/m 5,2 C 12,0 C 8,0 km/h (2 Bft) 100,00 %
10.04.2018 02:50 11,9 C 9,4 C 64 % 1001,8 hPa 0,0 l/m 7,2 km/h (2 Bft) O 96 0 min 0,000 mm 0,0 UV-I 0 W/m 5,3 C 11,4 C 9,7 km/h (2 Bft) 91,67 %
10.04.2018 02:51 11,9 C 9,4 C 64 % 1001,8 hPa 0,0 l/m 9,1 km/h (2 Bft) O 94 0 min 0,000 mm 0,0 UV-I 0 W/m 5,3 C 10,2 C 11,3 km/h (2 Bft) 100,00 %
10.04.2018 02:52 12,0 C 9,4 C 63 % 1001,8 hPa 0,0 l/m 8,3 km/h (2 Bft) O 92 0 min 0,000 mm 0,0 UV-I 0 W/m 5,2 C 10,8 C 11,3 km/h (2 Bft) 95,83 %
10.04.2018 02:53 12,2 C 9,4 C 63 % 1001,8 hPa 0,0 l/m 9,7 km/h (2 Bft) O-SO 109 0 min 0,000 mm 0,0 UV-I 0 W/m 5,4 C 10,2 C 11,3 km/h (2 Bft) 96,55 %
10.04.2018 02:54 12,3 C 9,4 C 62 % 1001,8 hPa 0,0 l/m 10,2 km/h (2 Bft) O 94 0 min 0,000 mm 0,0 UV-I 0 W/m 5,2 C 10,0 C 14,5 km/h (3 Bft) 100,00 %
10.04.2018 02:55 12,5 C 9,4 C 61 % 1001,8 hPa 0,0 l/m 9,1 km/h (2 Bft) O 89 0 min 0,000 mm 0,0 UV-I 0 W/m 5,2 C 10,8 C 11,3 km/h (2 Bft) 100,00 %
10.04.2018 02:56 12,7 C 9,4 C 60 % 1001,8 hPa 0,0 l/m 8,9 km/h (2 Bft) O 92 0 min 0,000 mm 0,0 UV-I 0 W/m 5,1 C 11,2 C 12,9 km/h (3 Bft) 100,00 %
10.04.2018 02:57 12,9 C 9,4 C 59 % 1001,8 hPa 0,0 l/m 12,2 km/h (2 Bft) O-SO 105 0 min 0,000 mm 0,0 UV-I 0 W/m 5,1 C 9,8 C 14,5 km/h (3 Bft) 92,31 %
10.04.2018 02:58 13,1 C 9,4 C 59 % 1001,7 hPa 0,0 l/m 10,7 km/h (2 Bft) O-SO 105 0 min 0,000 mm 0,0 UV-I 0 W/m 5,3 C 10,7 C 12,9 km/h (3 Bft) 100,00 %
10.04.2018 02:59 13,2 C 9,4 C 58 % 1001,7 hPa 0,0 l/m 12,4 km/h (3 Bft) O-SO 113 0 min 0,000 mm 0,0 UV-I 0 W/m 5,1 C 10,0 C 14,5 km/h (3 Bft) 100,00 %
10.04.2018 03:00 13,3 C 9,4 C 58 % 1001,7 hPa 0,0 l/m 9,3 km/h (2 Bft) O-SO 117 0 min 0,025 mm 0,0 UV-I 0 W/m 5,2 C 11,6 C 12,9 km/h (3 Bft) 96,30 %
10.04.2018 03:01 13,3 C 9,4 C 58 % 1001,7 hPa 0,0 l/m 12,3 km/h (3 Bft) O-SO 109 0 min 0,000 mm 0,0 UV-I 0 W/m 5,2 C 10,2 C 12,9 km/h (3 Bft) 100,00 %
10.04.2018 03:02 13,4 C 9,4 C 57 % 1001,7 hPa 0,0 l/m 10,0 km/h (2 Bft) O 98 0 min 0,000 mm 0,0 UV-I 0 W/m 5,1 C 11,4 C 12,9 km/h (3 Bft) 100,00 %
10.04.2018 03:03 13,4 C 9,4 C 57 % 1001,7 hPa 0,0 l/m 9,5 km/h (2 Bft) O 96 0 min 0,000 mm 0,0 UV-I 0 W/m 5,1 C 11,6 C 12,9 km/h (3 Bft) 96,15 %
10.04.2018 03:04 13,5 C 9,4 C 56 % 1001,7 hPa 0,0 l/m 9,9 km/h (2 Bft) O 90 0 min 0,000 mm 0,0 UV-I 0 W/m 4,9 C 11,5 C 12,9 km/h (3 Bft) 100,00 %
10.04.2018 03:05 13,6 C 9,4 C 56 % 1001,7 hPa 0,0 l/m 7,7 km/h (2 Bft) O 90 0 min 0,000 mm 0,0 UV-I 0 W/m 5,0 C 12,8 C 11,3 km/h (2 Bft) 97,52 %
10.04.2018 03:06 13,5 C 9,4 C 57 % 1001,6 hPa 0,0 l/m 7,6 km/h (2 Bft) O-NO 74 0 min 0,000 mm 0,0 UV-I 0 W/m 5,2 C 12,8 C 11,3 km/h (2 Bft) 97,56 %
10.04.2018 03:07 13,4 C 9,4 C 57 % 1001,6 hPa 0,0 l/m 6,1 km/h (2 Bft) O 86 0 min 0,000 mm 0,0 UV-I 0 W/m 5,1 C 13,4 C 11,3 km/h (2 Bft) 100,00 %
10.04.2018 03:08 13,3 C 9,4 C 58 % 1001,7 hPa 0,0 l/m 8,9 km/h (2 Bft) O 96 0 min 0,000 mm 0,0 UV-I 0 W/m 5,2 C 11,8 C 11,3 km/h (2 Bft) 100,00 %
10.04.2018 03:09 13,1 C 9,4 C 58 % 1001,7 hPa 0,0 l/m 10,0 km/h (2 Bft) O 86 0 min 0,000 mm 0,0 UV-I 0 W/m 5,0 C 11,0 C 12,9 km/h (3 Bft) 100,00 %
10.04.2018 03:10 13,0 C 9,4 C 59 % 1001,6 hPa 0,0 l/m 10,1 km/h (2 Bft) O 94 0 min 0,000 mm 0,0 UV-I 0 W/m 5,2 C 10,9 C 12,9 km/h (3 Bft) 100,00 %
10.04.2018 03:11 12,8 C 9,4 C 59 % 1001,6 hPa 0,0 l/m 8,9 km/h (2 Bft) O 83 0 min 0,000 mm 0,0 UV-I 0 W/m 5,0 C 11,3 C 12,9 km/h (3 Bft) 100,00 %
10.04.2018 03:12 12,8 C 9,4 C 60 % 1001,6 hPa 0,0 l/m 10,1 km/h (2 Bft) O-NO 67 0 min 0,000 mm 0,0 UV-I 0 W/m 5,2 C 10,6 C 12,9 km/h (3 Bft) 100,00 %
10.04.2018 03:13 12,7 C 9,4 C 60 % 1001,6 hPa 0,0 l/m 11,9 km/h (2 Bft) O 90 0 min 0,000 mm 0,0 UV-I 0 W/m 5,1 C 9,7 C 14,5 km/h (3 Bft) 100,00 %
10.04.2018 03:14 12,6 C 9,4 C 60 % 1001,6 hPa 0,0 l/m 11,3 km/h (2 Bft) O-NO 69 0 min 0,000 mm 0,0 UV-I 0 W/m 5,0 C 9,8 C 14,5 km/h (3 Bft) 96,88 %
10.04.2018 03:15 12,6 C 9,4 C 60 % 1001,6 hPa 0,0 l/m 8,9 km/h (2 Bft) O-NO 73 0 min 0,000 mm 0,0 UV-I 0 W/m 5,0 C 11,1 C 12,9 km/h (3 Bft) 100,00 %
10.04.2018 03:16 12,4 C 9,4 C 61 % 1001,6 hPa 0,0 l/m 8,5 km/h (2 Bft) O 84 0 min 0,000 mm 0,0 UV-I 0 W/m 5,1 C 11,1 C 11,3 km/h (2 Bft) 100,00 %
10.04.2018 03:17 12,4 C 9,4 C 61 % 1001,6 hPa 0,0 l/m 8,2 km/h (2 Bft) O-NO 65 0 min 0,000 mm 0,0 UV-I 0 W/m 5,1 C 11,3 C 11,3 km/h (2 Bft) 100,00 %
10.04.2018 03:18 12,2 C 9,4 C 62 % 1001,6 hPa 0,0 l/m 6,9 km/h (2 Bft) O-NO 69 0 min 0,000 mm 0,0 UV-I 0 W/m 5,1 C 11,9 C 8,0 km/h (2 Bft) 100,00 %
10.04.2018 03:19 12,2 C 9,4 C 62 % 1001,6 hPa 0,0 l/m 6,4 km/h (2 Bft) O-NO 78 0 min 0,000 mm 0,0 UV-I 0 W/m 5,1 C 12,2 C 6,4 km/h (2 Bft) 100,00 %
10.04.2018 03:20 12,1 C 9,4 C 63 % 1001,6 hPa 0,0 l/m 7,0 km/h (2 Bft) O-NO 74 0 min 0,000 mm 0,0 UV-I 0 W/m 5,3 C 11,7 C 8,0 km/h (2 Bft) 92,86 %
10.04.2018 03:21 12,1 C 9,4 C 63 % 1001,6 hPa 0,0 l/m 8,1 km/h (2 Bft) O-NO 71 0 min 0,000 mm 0,0 UV-I 0 W/m 5,3 C 11,0 C 11,3 km/h (2 Bft) 100,00 %
10.04.2018 03:22 12,1 C 9,4 C 63 % 1001,6 hPa 0,0 l/m 7,4 km/h (2 Bft) O-NO 66 0 min 0,000 mm 0,0 UV-I 0 W/m 5,3 C 11,4 C 11,3 km/h (2 Bft) 100,00 %
10.04.2018 03:23 12,0 C 9,4 C 63 % 1001,6 hPa 0,0 l/m 8,6 km/h (2 Bft) O-NO 76 0 min 0,000 mm 0,0 UV-I 0 W/m 5,2 C 10,6 C 11,3 km/h (2 Bft) 100,00 %
10.04.2018 03:24 12,0 C 9,4 C 63 % 1001,6 hPa 0,0 l/m 9,3 km/h (2 Bft) O-NO 67 0 min 0,000 mm 0,0 UV-I 0 W/m 5,2 C 10,2 C 12,9 km/h (3 Bft) 100,00 %
10.04.2018 03:25 12,1 C 9,4 C 63 % 1001,6 hPa 0,0 l/m 7,3 km/h (2 Bft) O 82 0 min 0,000 mm 0,0 UV-I 0 W/m 5,3 C 11,5 C 9,7 km/h (2 Bft) 100,00 %
10.04.2018 03:26 12,0 C 9,4 C 63 % 1001,6 hPa 0,0 l/m 7,2 km/h (2 Bft) O-NO 74 0 min 0,000 mm 0,0 UV-I 0 W/m 5,2 C 11,5 C 8,0 km/h (2 Bft) 100,00 %
10.04.2018 03:27 11,9 C 9,4 C 64 % 1001,5 hPa 0,0 l/m 7,7 km/h (2 Bft) O-NO 73 0 min 0,000 mm 0,0 UV-I 0 W/m 5,3 C 11,0 C 8,0 km/h (2 Bft) 92,31 %
10.04.2018 03:28 11,9 C 9,4 C 64 % 1001,5 hPa 0,0 l/m 7,2 km/h (2 Bft) O-NO 69 0 min 0,000 mm 0,0 UV-I 0 W/m 5,3 C 11,4 C 9,7 km/h (2 Bft) 100,00 %
10.04.2018 03:29 11,9 C 9,4 C 64 % 1001,5 hPa 0,0 l/m 7,9 km/h (2 Bft) O 94 0 min 0,000 mm 0,0 UV-I 0 W/m 5,3 C 10,9 C 11,3 km/h (2 Bft) 100,00 %
10.04.2018 03:30 11,8 C 9,4 C 64 % 1001,5 hPa 0,0 l/m 13,0 km/h (3 Bft) O 89 0 min 0,000 mm 0,0 UV-I 0 W/m 5,2 C 8,1 C 14,5 km/h (3 Bft) 100,00 %
10.04.2018 03:31 11,8 C 9,4 C 64 % 1001,5 hPa 0,0 l/m 9,7 km/h (2 Bft) O 95 0 min 0,000 mm 0,0 UV-I 0 W/m 5,2 C 9,7 C 12,9 km/h (3 Bft) 100,00 %
10.04.2018 03:32 11,8 C 9,4 C 64 % 1001,5 hPa 0,0 l/m 10,1 km/h (2 Bft) O 87 0 min 0,000 mm 0,0 UV-I 0 W/m 5,2 C 9,5 C 12,9 km/h (3 Bft) 100,00 %
10.04.2018 03:33 11,9 C 9,4 C 64 % 1001,5 hPa 0,0 l/m 13,3 km/h (3 Bft) O-NO 68 0 min 0,000 mm 0,0 UV-I 0 W/m 5,3 C 8,1 C 17,7 km/h (3 Bft) 95,65 %
10.04.2018 03:34 12,0 C 9,4 C 63 % 1001,5 hPa 0,0 l/m 11,1 km/h (2 Bft) O-NO 68 0 min 0,000 mm 0,0 UV-I 0 W/m 5,2 C 9,2 C 14,5 km/h (3 Bft) 100,00 %
10.04.2018 03:35 12,1 C 9,4 C 63 % 1001,5 hPa 0,0 l/m 10,2 km/h (2 Bft) O 84 0 min 0,000 mm 0,0 UV-I 0 W/m 5,3 C 9,8 C 12,9 km/h (3 Bft) 100,00 %
10.04.2018 03:36 12,1 C 9,4 C 63 % 1001,5 hPa 0,0 l/m 8,2 km/h (2 Bft) O 80 0 min 0,000 mm 0,0 UV-I 0 W/m 5,3 C 10,9 C 11,3 km/h (2 Bft) 100,00 %
10.04.2018 03:37 12,0 C 9,4 C 63 % 1001,5 hPa 0,0 l/m 8,6 km/h (2 Bft) O 98 0 min 0,000 mm 0,0 UV-I 0 W/m 5,2 C 10,6 C 12,9 km/h (3 Bft) 100,00 %
10.04.2018 03:38 11,9 C 9,4 C 64 % 1001,5 hPa 0,0 l/m 10,8 km/h (2 Bft) O-NO 75 0 min 0,000 mm 0,0 UV-I 0 W/m 5,3 C 9,3 C 12,9 km/h (3 Bft) 96,30 %
10.04.2018 03:39 11,9 C 9,4 C 64 % 1001,5 hPa 0,0 l/m 10,3 km/h (2 Bft) O 82 0 min 0,000 mm 0,0 UV-I 0 W/m 5,3 C 9,5 C 12,9 km/h (3 Bft) 91,30 %
10.04.2018 03:40 11,9 C 9,4 C 64 % 1001,4 hPa 0,0 l/m 9,5 km/h (2 Bft) O-NO 67 0 min 0,000 mm 0,0 UV-I 0 W/m 5,3 C 10,0 C 12,9 km/h (3 Bft) 100,00 %
10.04.2018 03:41 11,9 C 9,4 C 64 % 1001,5 hPa 0,0 l/m 11,3 km/h (2 Bft) O-NO 77 0 min 0,000 mm 0,0 UV-I 0 W/m 5,3 C 9,0 C 12,9 km/h (3 Bft) 100,00 %
10.04.2018 03:42 11,9 C 9,4 C 64 % 1001,4 hPa 0,0 l/m 8,3 km/h (2 Bft) O-NO 76 0 min 0,000 mm 0,0 UV-I 0 W/m 5,3 C 10,7 C 9,7 km/h (2 Bft) 96,15 %
10.04.2018 03:43 11,9 C 9,4 C 64 % 1001,4 hPa 0,0 l/m 7,7 km/h (2 Bft) O 88 0 min 0,000 mm 0,0 UV-I 0 W/m 5,3 C 11,0 C 11,3 km/h (2 Bft) 100,00 %
10.04.2018 03:44 11,8 C 9,4 C 65 % 1001,5 hPa 0,0 l/m 9,7 km/h (2 Bft) O 87 0 min 0,000 mm 0,0 UV-I 0 W/m 5,4 C 9,7 C 14,5 km/h (3 Bft) 100,00 %
10.04.2018 03:45 11,7 C 9,4 C 65 % 1001,4 hPa 0,0 l/m 8,4 km/h (2 Bft) O 92 0 min 0,000 mm 0,0 UV-I 0 W/m 5,3 C 10,4 C 12,9 km/h (3 Bft) 100,00 %
10.04.2018 03:46 11,7 C 9,4 C 65 % 1001,4 hPa 0,0 l/m 12,6 km/h (3 Bft) O-NO 73 0 min 0,000 mm 0,0 UV-I 0 W/m 5,3 C 8,2 C 19,3 km/h (3 Bft) 91,67 %
10.04.2018 03:47 11,8 C 9,4 C 65 % 1001,5 hPa 0,0 l/m 15,6 km/h (3 Bft) O-NO 61 0 min 0,000 mm 0,0 UV-I 0 W/m 5,4 C 7,1 C 17,7 km/h (3 Bft) 100,00 %
10.04.2018 03:48 11,9 C 9,4 C 64 % 1001,5 hPa 0,0 l/m 12,2 km/h (2 Bft) NO 52 0 min 0,000 mm 0,0 UV-I 0 W/m 5,3 C 8,6 C 14,5 km/h (3 Bft) 100,00 %
10.04.2018 03:49 12,1 C 9,4 C 64 % 1001,5 hPa 0,0 l/m 13,5 km/h (3 Bft) O 94 0 min 0,000 mm 0,0 UV-I 0 W/m 5,5 C 8,3 C 16,1 km/h (3 Bft) 100,00 %
10.04.2018 03:50 12,1 C 9,4 C 64 % 1001,5 hPa 0,0 l/m 14,1 km/h (3 Bft) O 98 0 min 0,000 mm 0,0 UV-I 0 W/m 5,5 C 8,0 C 17,7 km/h (3 Bft) 100,00 %
10.04.2018 03:51 12,0 C 9,4 C 64 % 1001,5 hPa 0,0 l/m 11,3 km/h (2 Bft) O 92 0 min 0,000 mm 0,0 UV-I 0 W/m 5,4 C 9,1 C 16,1 km/h (3 Bft) 100,00 %
10.04.2018 03:52 11,9 C 9,4 C 64 % 1001,5 hPa 0,0 l/m 7,6 km/h (2 Bft) O-NO 77 0 min 0,000 mm 0,0 UV-I 0 W/m 5,3 C 11,1 C 11,3 km/h (2 Bft) 100,00 %
10.04.2018 03:53 11,8 C 9,4 C 65 % 1001,5 hPa 0,0 l/m 8,3 km/h (2 Bft) O-SO 106 0 min 0,000 mm 0,0 UV-I 0 W/m 5,4 C 10,6 C 14,5 km/h (3 Bft) 100,00 %
10.04.2018 03:54 11,8 C 9,4 C 65 % 1001,4 hPa 0,0 l/m 14,2 km/h (3 Bft) O-SO 111 0 min 0,000 mm 0,0 UV-I 0 W/m 5,4 C 7,6 C 16,1 km/h (3 Bft) 100,00 %
10.04.2018 03:55 11,9 C 9,4 C 65 % 1001,5 hPa 0,0 l/m 11,8 km/h (2 Bft) O 84 0 min 0,000 mm 0,0 UV-I 0 W/m 5,5 C 8,8 C 14,5 km/h (3 Bft) 91,67 %
10.04.2018 03:56 11,9 C 9,4 C 64 % 1001,5 hPa 0,0 l/m 13,1 km/h (3 Bft) O 81 0 min 0,000 mm 0,0 UV-I 0 W/m 5,3 C 8,2 C 16,1 km/h (3 Bft) 100,00 %
10.04.2018 03:57 11,9 C 9,4 C 64 % 1001,5 hPa 0,0 l/m 11,7 km/h (2 Bft) O-NO 69 0 min 0,000 mm 0,0 UV-I 0 W/m 5,3 C 8,8 C 14,5 km/h (3 Bft) 100,00 %
10.04.2018 03:58 11,9 C 9,4 C 64 % 1001,5 hPa 0,0 l/m 12,3 km/h (3 Bft) O 84 0 min 0,000 mm 0,0 UV-I 0 W/m 5,3 C 8,6 C 14,5 km/h (3 Bft) 100,00 %
10.04.2018 03:59 11,9 C 9,4 C 64 % 1001,5 hPa 0,0 l/m 11,0 km/h (2 Bft) O 94 0 min 0,000 mm 0,0 UV-I 0 W/m 5,3 C 9,2 C 12,9 km/h (3 Bft) 100,00 %
10.04.2018 04:00 11,9 C 9,4 C 64 % 1001,5 hPa 0,0 l/m 11,6 km/h (2 Bft) O 83 0 min 0,051 mm 0,0 UV-I 0 W/m 5,3 C 8,9 C 14,5 km/h (3 Bft) 100,00 %
10.04.2018 04:01 11,9 C 9,4 C 64 % 1001,5 hPa 0,0 l/m 10,5 km/h (2 Bft) O 80 0 min 0,000 mm 0,0 UV-I 0 W/m 5,3 C 9,4 C 12,9 km/h (3 Bft) 100,00 %
10.04.2018 04:03 11,8 C 9,4 C 64 % 1001,4 hPa 0,0 l/m 9,0 km/h (2 Bft) O-NO 59 0 min 0,000 mm 0,0 UV-I 0 W/m 5,2 C 10,1 C 12,9 km/h (3 Bft) 93,33 %
10.04.2018 04:04 11,8 C 9,4 C 64 % 1001,5 hPa 0,0 l/m 10,6 km/h (2 Bft) O 86 0 min 0,000 mm 0,0 UV-I 0 W/m 5,2 C 9,3 C 12,9 km/h (3 Bft) 100,00 %
10.04.2018 04:05 11,8 C 9,4 C 65 % 1001,4 hPa 0,0 l/m 8,8 km/h (2 Bft) O-NO 72 0 min 0,000 mm 0,0 UV-I 0 W/m 5,4 C 10,3 C 12,9 km/h (3 Bft) 95,83 %
10.04.2018 04:06 11,8 C 9,4 C 65 % 1001,5 hPa 0,0 l/m 7,3 km/h (2 Bft) O 84 0 min 0,000 mm 0,0 UV-I 0 W/m 5,4 C 11,2 C 11,3 km/h (2 Bft) 96,15 %
10.04.2018 04:07 11,7 C 9,4 C 65 % 1001,5 hPa 0,0 l/m 8,3 km/h (2 Bft) O 92 0 min 0,000 mm 0,0 UV-I 0 W/m 5,3 C 10,5 C 11,3 km/h (2 Bft) 100,00 %
10.04.2018 04:08 11,7 C 9,4 C 65 % 1001,5 hPa 0,0 l/m 8,2 km/h (2 Bft) O-NO 69 0 min 0,000 mm 0,0 UV-I 0 W/m 5,3 C 10,5 C 11,3 km/h (2 Bft) 100,00 %
10.04.2018 04:09 11,8 C 9,4 C 65 % 1001,4 hPa 0,0 l/m 9,4 km/h (2 Bft) O 84 0 min 0,000 mm 0,0 UV-I 0 W/m 5,4 C 9,9 C 12,9 km/h (3 Bft) 100,00 %
10.04.2018 04:10 11,8 C 9,4 C 65 % 1001,4 hPa 0,0 l/m 9,4 km/h (2 Bft) O-NO 67 0 min 0,000 mm 0,0 UV-I 0 W/m 5,4 C 9,9 C 12,9 km/h (3 Bft) 96,30 %
10.04.2018 04:11 11,8 C 9,4 C 65 % 1001,4 hPa 0,0 l/m 11,0 km/h (2 Bft) NO 43 0 min 0,000 mm 0,0 UV-I 0 W/m 5,4 C 9,1 C 14,5 km/h (3 Bft) 100,00 %
10.04.2018 04:12 11,8 C 9,4 C 65 % 1001,4 hPa 0,0 l/m 8,2 km/h (2 Bft) NO 55 0 min 0,000 mm 0,0 UV-I 0 W/m 5,4 C 10,6 C 11,3 km/h (2 Bft) 100,00 %
10.04.2018 04:13 11,8 C 9,4 C 65 % 1001,4 hPa 0,0 l/m 6,0 km/h (2 Bft) O 83 0 min 0,000 mm 0,0 UV-I 0 W/m 5,4 C 11,8 C 8,0 km/h (2 Bft) 92,59 %
10.04.2018 04:14 11,8 C 9,4 C 65 % 1001,4 hPa 0,0 l/m 7,6 km/h (2 Bft) O 89 0 min 0,000 mm 0,0 UV-I 0 W/m 5,4 C 11,0 C 11,3 km/h (2 Bft) 100,00 %
10.04.2018 04:15 11,7 C 9,4 C 65 % 1001,4 hPa 0,0 l/m 8,4 km/h (2 Bft) O-NO 67 0 min 0,000 mm 0,0 UV-I 0 W/m 5,3 C 10,4 C 11,3 km/h (2 Bft) 100,00 %
10.04.2018 04:16 11,7 C 9,4 C 65 % 1001,4 hPa 0,0 l/m 7,2 km/h (2 Bft) O 80 0 min 0,000 mm 0,0 UV-I 0 W/m 5,3 C 11,2 C 8,0 km/h (2 Bft) 100,00 %
10.04.2018 04:17 11,8 C 9,4 C 65 % 1001,4 hPa 0,0 l/m 8,5 km/h (2 Bft) O 94 0 min 0,000 mm 0,0 UV-I 0 W/m 5,4 C 10,4 C 12,9 km/h (3 Bft) 100,00 %
10.04.2018 04:18 11,8 C 9,4 C 65 % 1001,4 hPa 0,0 l/m 8,4 km/h (2 Bft) O-NO 65 0 min 0,000 mm 0,0 UV-I 0 W/m 5,4 C 10,5 C 12,9 km/h (3 Bft) 100,00 %
10.04.2018 04:19 11,8 C 9,4 C 65 % 1001,4 hPa 0,0 l/m 7,5 km/h (2 Bft) NO 56 0 min 0,000 mm 0,0 UV-I 0 W/m 5,4 C 11,1 C 8,0 km/h (2 Bft) 96,88 %
10.04.2018 04:20 11,8 C 9,4 C 65 % 1001,4 hPa 0,0 l/m 7,0 km/h (2 Bft) O-NO 69 0 min 0,000 mm 0,0 UV-I 0 W/m 5,4 C 11,4 C 9,7 km/h (2 Bft) 100,00 %
10.04.2018 04:21 11,8 C 9,4 C 65 % 1001,4 hPa 0,0 l/m 7,4 km/h (2 Bft) O-NO 67 0 min 0,000 mm 0,0 UV-I 0 W/m 5,4 C 11,1 C 11,3 km/h (2 Bft) 95,65 %
10.04.2018 04:22 11,8 C 9,4 C 65 % 1001,4 hPa 0,0 l/m 6,4 km/h (2 Bft) O-NO 65 0 min 0,000 mm 0,0 UV-I 0 W/m 5,4 C 11,8 C 9,7 km/h (2 Bft) 100,00 %
10.04.2018 04:23 11,8 C 9,4 C 65 % 1001,3 hPa 0,0 l/m 7,3 km/h (2 Bft) O 95 0 min 0,000 mm 0,0 UV-I 0 W/m 5,4 C 11,2 C 9,7 km/h (2 Bft) 97,14 %
10.04.2018 04:24 11,8 C 9,4 C 66 % 1001,3 hPa 0,0 l/m 9,2 km/h (2 Bft) O 92 0 min 0,000 mm 0,0 UV-I 0 W/m 5,7 C 10,0 C 12,9 km/h (3 Bft) 91,67 %
10.04.2018 04:25 11,8 C 9,4 C 66 % 1001,4 hPa 0,0 l/m 9,5 km/h (2 Bft) O 99 0 min 0,000 mm 0,0 UV-I 0 W/m 5,7 C 9,9 C 11,3 km/h (2 Bft) 93,10 %
10.04.2018 04:26 11,7 C 9,4 C 66 % 1001,3 hPa 0,0 l/m 8,6 km/h (2 Bft) O-NO 74 0 min 0,000 mm 0,0 UV-I 0 W/m 5,6 C 10,3 C 12,9 km/h (3 Bft) 100,00 %
10.04.2018 04:27 11,7 C 9,4 C 66 % 1001,3 hPa 0,0 l/m 11,1 km/h (2 Bft) O-NO 78 0 min 0,000 mm 0,0 UV-I 0 W/m 5,6 C 8,9 C 12,9 km/h (3 Bft) 91,67 %
10.04.2018 04:28 11,8 C 9,4 C 65 % 1001,3 hPa 0,0 l/m 11,7 km/h (2 Bft) O-NO 67 0 min 0,000 mm 0,0 UV-I 0 W/m 5,4 C 8,7 C 14,5 km/h (3 Bft) 100,00 %
10.04.2018 04:29 11,8 C 9,4 C 65 % 1001,3 hPa 0,0 l/m 13,3 km/h (3 Bft) O-NO 75 0 min 0,000 mm 0,0 UV-I 0 W/m 5,4 C 8,0 C 14,5 km/h (3 Bft) 96,67 %
10.04.2018 04:30 11,9 C 9,4 C 65 % 1001,3 hPa 0,0 l/m 10,2 km/h (2 Bft) O 80 0 min 0,000 mm 0,0 UV-I 0 W/m 5,5 C 9,6 C 12,9 km/h (3 Bft) 95,65 %
10.04.2018 04:31 11,9 C 9,4 C 65 % 1001,3 hPa 0,0 l/m 9,5 km/h (2 Bft) O-NO 75 0 min 0,000 mm 0,0 UV-I 0 W/m 5,5 C 10,0 C 12,9 km/h (3 Bft) 100,00 %
10.04.2018 04:32 11,9 C 9,4 C 65 % 1001,3 hPa 0,0 l/m 8,8 km/h (2 Bft) O-SO 102 0 min 0,000 mm 0,0 UV-I 0 W/m 5,5 C 10,4 C 12,9 km/h (3 Bft) 85,71 %
10.04.2018 04:33 11,9 C 9,4 C 65 % 1001,3 hPa 0,0 l/m 9,1 km/h (2 Bft) O 93 0 min 0,000 mm 0,0 UV-I 0 W/m 5,5 C 10,2 C 12,9 km/h (3 Bft) 100,00 %
10.04.2018 04:34 11,9 C 9,4 C 65 % 1001,2 hPa 0,0 l/m 9,1 km/h (2 Bft) O 95 0 min 0,000 mm 0,0 UV-I 0 W/m 5,5 C 10,2 C 12,9 km/h (3 Bft) 91,30 %
10.04.2018 04:35 11,9 C 9,4 C 65 % 1001,2 hPa 0,0 l/m 9,4 km/h (2 Bft) O 84 0 min 0,000 mm 0,0 UV-I 0 W/m 5,5 C 10,0 C 12,9 km/h (3 Bft) 100,00 %
10.04.2018 04:36 12,0 C 9,4 C 65 % 1001,2 hPa 0,0 l/m 8,4 km/h (2 Bft) O 90 0 min 0,000 mm 0,0 UV-I 0 W/m 5,6 C 10,7 C 11,3 km/h (2 Bft) 92,86 %
10.04.2018 04:37 12,1 C 9,4 C 64 % 1001,2 hPa 0,0 l/m 7,1 km/h (2 Bft) O 92 0 min 0,000 mm 0,0 UV-I 0 W/m 5,5 C 11,6 C 9,7 km/h (2 Bft) 100,00 %
10.04.2018 04:38 12,2 C 9,4 C 64 % 1001,2 hPa 0,0 l/m 8,6 km/h (2 Bft) O 92 0 min 0,000 mm 0,0 UV-I 0 W/m 5,6 C 10,8 C 11,3 km/h (2 Bft) 96,15 %
10.04.2018 04:39 12,2 C 9,4 C 64 % 1001,2 hPa 0,0 l/m 8,1 km/h (2 Bft) O-NO 76 0 min 0,000 mm 0,0 UV-I 0 W/m 5,6 C 11,1 C 11,3 km/h (2 Bft) 95,83 %
10.04.2018 04:40 12,3 C 9,4 C 64 % 1001,2 hPa 0,0 l/m 7,0 km/h (2 Bft) O 92 0 min 0,000 mm 0,0 UV-I 0 W/m 5,7 C 11,9 C 11,3 km/h (2 Bft) 100,00 %
10.04.2018 04:41 12,3 C 9,4 C 64 % 1001,2 hPa 0,0 l/m 7,5 km/h (2 Bft) O 98 0 min 0,000 mm 0,0 UV-I 0 W/m 5,7 C 11,6 C 9,7 km/h (2 Bft) 95,83 %
10.04.2018 04:42 12,3 C 9,4 C 64 % 1001,2 hPa 0,0 l/m 5,7 km/h (1 Bft) O-NO 71 0 min 0,000 mm 0,0 UV-I 0 W/m 5,7 C 12,3 C 6,4 km/h (2 Bft) 100,00 %
10.04.2018 04:43 12,3 C 9,4 C 64 % 1001,2 hPa 0,0 l/m 6,4 km/h (2 Bft) O-NO 74 0 min 0,000 mm 0,0 UV-I 0 W/m 5,7 C 12,3 C 8,0 km/h (2 Bft) 91,67 %
10.04.2018 04:44 12,3 C 9,4 C 64 % 1001,2 hPa 0,0 l/m 6,4 km/h (2 Bft) O-NO 73 0 min 0,000 mm 0,0 UV-I 0 W/m 5,7 C 12,3 C 8,0 km/h (2 Bft) 100,00 %
10.04.2018 04:45 12,2 C 9,4 C 64 % 1001,2 hPa 0,0 l/m 5,7 km/h (1 Bft) O-NO 73 0 min 0,000 mm 0,0 UV-I 0 W/m 5,6 C 12,2 C 6,4 km/h (2 Bft) 83,33 %
10.04.2018 04:46 12,1 C 9,4 C 65 % 1001,2 hPa 0,0 l/m 5,7 km/h (1 Bft) O-NO 63 0 min 0,000 mm 0,0 UV-I 0 W/m 5,7 C 12,1 C 8,0 km/h (2 Bft) 100,00 %
10.04.2018 04:47 11,9 C 9,4 C 66 % 1001,2 hPa 0,0 l/m 5,6 km/h (1 Bft) O-NO 61 0 min 0,000 mm 0,0 UV-I 0 W/m 5,8 C 11,9 C 8,0 km/h (2 Bft) 91,30 %
10.04.2018 04:48 11,8 C 9,4 C 66 % 1001,2 hPa 0,0 l/m 5,6 km/h (1 Bft) O-NO 69 0 min 0,000 mm 0,0 UV-I 0 W/m 5,7 C 11,8 C 8,0 km/h (2 Bft) 92,59 %
10.04.2018 04:49 11,7 C 9,4 C 67 % 1001,2 hPa 0,0 l/m 4,9 km/h (1 Bft) O-NO 57 0 min 0,000 mm 0,0 UV-I 0 W/m 5,8 C 11,7 C 6,4 km/h (2 Bft) 96,55 %
10.04.2018 04:50 11,7 C 9,4 C 67 % 1001,2 hPa 0,0 l/m 5,8 km/h (2 Bft) NO 53 0 min 0,000 mm 0,0 UV-I 0 W/m 5,8 C 11,7 C 6,4 km/h (2 Bft) 91,67 %
10.04.2018 04:51 11,6 C 9,4 C 68 % 1001,2 hPa 0,0 l/m 5,7 km/h (1 Bft) NO 54 0 min 0,000 mm 0,0 UV-I 0 W/m 5,9 C 11,6 C 6,4 km/h (2 Bft) 100,00 %
10.04.2018 04:52 11,5 C 9,4 C 68 % 1001,2 hPa 0,0 l/m 5,5 km/h (1 Bft) NO 49 0 min 0,000 mm 0,0 UV-I 0 W/m 5,8 C 11,5 C 8,0 km/h (2 Bft) 92,59 %
10.04.2018 04:53 11,5 C 9,4 C 68 % 1001,2 hPa 0,0 l/m 5,7 km/h (1 Bft) NO 51 0 min 0,000 mm 0,0 UV-I 0 W/m 5,8 C 11,5 C 6,4 km/h (2 Bft) 100,00 %
10.04.2018 04:54 11,4 C 9,4 C 68 % 1001,2 hPa 0,0 l/m 5,8 km/h (2 Bft) O-NO 59 0 min 0,000 mm 0,0 UV-I 0 W/m 5,7 C 11,4 C 6,4 km/h (2 Bft) 87,50 %
10.04.2018 04:55 11,4 C 9,4 C 68 % 1001,2 hPa 0,0 l/m 6,4 km/h (2 Bft) O-NO 62 0 min 0,000 mm 0,0 UV-I 0 W/m 5,7 C 11,4 C 8,0 km/h (2 Bft) 100,00 %
10.04.2018 04:57 11,6 C 9,4 C 68 % 1001,2 hPa 0,0 l/m 4,9 km/h (1 Bft) O-NO 75 0 min 0,000 mm 0,0 UV-I 0 W/m 5,9 C 11,6 C 8,0 km/h (2 Bft) 93,18 %
10.04.2018 04:58 11,7 C 9,4 C 67 % 1001,2 hPa 0,0 l/m 4,8 km/h (1 Bft) O-NO 78 0 min 0,000 mm 0,0 UV-I 0 W/m 5,8 C 11,7 C 6,4 km/h (2 Bft) 95,83 %
10.04.2018 04:59 11,7 C 9,4 C 67 % 1001,2 hPa 0,0 l/m 3,2 km/h (1 Bft) O-NO 78 0 min 0,000 mm 0,0 UV-I 0 W/m 5,8 C 11,7 C 4,8 km/h (1 Bft) 100,00 %
10.04.2018 05:00 11,8 C 9,4 C 66 % 1001,2 hPa 0,0 l/m 3,2 km/h (1 Bft) O-NO 78 0 min 0,025 mm 0,0 UV-I 0 W/m 5,7 C 11,8 C 4,8 km/h (1 Bft) 96,55 %
10.04.2018 05:02 11,8 C 9,4 C 67 % 1001,2 hPa 0,0 l/m 1,4 km/h (1 Bft) O-NO 78 0 min 0,000 mm 0,0 UV-I 0 W/m 5,9 C 11,8 C 3,2 km/h (1 Bft) 98,00 %
10.04.2018 05:03 11,8 C 9,4 C 67 % 1001,1 hPa 0,0 l/m 0,0 km/h (0 Bft) O-NO 78 0 min 0,000 mm 0,0 UV-I 0 W/m 5,9 C 11,8 C 0,0 km/h (0 Bft) 91,67 %
10.04.2018 05:04 11,8 C 9,4 C 67 % 1001,1 hPa 0,0 l/m 0,0 km/h (0 Bft) O-NO 78 0 min 0,000 mm 0,0 UV-I 0 W/m 5,9 C 11,8 C 0,0 km/h (0 Bft) 95,65 %
10.04.2018 05:05 11,8 C 9,4 C 67 % 1001,1 hPa 0,0 l/m 0,0 km/h (0 Bft) O-NO 78 0 min 0,000 mm 0,0 UV-I 0 W/m 5,9 C 11,8 C 0,0 km/h (0 Bft) 92,59 %
10.04.2018 05:07 11,7 C 9,4 C 67 % 1001,1 hPa 0,0 l/m 0,0 km/h (0 Bft) O-NO 78 0 min 0,000 mm 0,0 UV-I 0 W/m 5,8 C 11,7 C 0,0 km/h (0 Bft) 98,11 %
10.04.2018 05:08 11,6 C 9,4 C 68 % 1001,1 hPa 0,0 l/m 1,3 km/h (1 Bft) O-NO 78 0 min 0,000 mm 0,0 UV-I 0 W/m 5,9 C 11,6 C 3,2 km/h (1 Bft) 100,00 %
10.04.2018 05:09 11,4 C 9,4 C 68 % 1001,2 hPa 0,0 l/m 1,9 km/h (1 Bft) O-NO 78 0 min 0,000 mm 0,0 UV-I 0 W/m 5,7 C 11,4 C 3,2 km/h (1 Bft) 96,30 %
10.04.2018 05:10 11,4 C 9,4 C 68 % 1001,2 hPa 0,0 l/m 2,1 km/h (1 Bft) O-NO 78 0 min 0,000 mm 0,0 UV-I 0 W/m 5,7 C 11,4 C 3,2 km/h (1 Bft) 96,15 %
10.04.2018 05:11 11,3 C 9,4 C 69 % 1001,2 hPa 0,0 l/m 1,9 km/h (1 Bft) O-NO 78 0 min 0,000 mm 0,0 UV-I 0 W/m 5,8 C 11,3 C 3,2 km/h (1 Bft) 100,00 %
10.04.2018 05:12 11,3 C 9,4 C 69 % 1001,3 hPa 0,0 l/m 1,5 km/h (1 Bft) O-NO 78 0 min 0,000 mm 0,0 UV-I 0 W/m 5,8 C 11,3 C 3,2 km/h (1 Bft) 100,00 %
10.04.2018 05:13 11,3 C 9,4 C 69 % 1001,2 hPa 0,0 l/m 1,6 km/h (1 Bft) O-NO 78 0 min 0,000 mm 0,0 UV-I 0 W/m 5,8 C 11,3 C 1,6 km/h (1 Bft) 96,30 %
10.04.2018 05:14 11,2 C 9,4 C 69 % 1001,3 hPa 0,0 l/m 1,5 km/h (1 Bft) O-NO 78 0 min 0,000 mm 0,0 UV-I 0 W/m 5,7 C 11,2 C 3,2 km/h (1 Bft) 91,30 %
10.04.2018 05:15 11,2 C 9,4 C 69 % 1001,3 hPa 0,0 l/m 2,5 km/h (1 Bft) O-NO 78 0 min 0,000 mm 0,0 UV-I 0 W/m 5,7 C 11,2 C 3,2 km/h (1 Bft) 96,30 %
10.04.2018 05:16 11,2 C 9,4 C 70 % 1001,3 hPa 0,0 l/m 3,2 km/h (1 Bft) O-NO 78 0 min 0,000 mm 0,0 UV-I 0 W/m 5,9 C 11,2 C 4,8 km/h (1 Bft) 95,65 %
10.04.2018 05:17 11,2 C 9,4 C 69 % 1001,3 hPa 0,0 l/m 2,8 km/h (1 Bft) O-NO 78 0 min 0,000 mm 0,0 UV-I 0 W/m 5,7 C 11,2 C 3,2 km/h (1 Bft) 100,00 %
10.04.2018 05:18 11,2 C 9,4 C 69 % 1001,2 hPa 0,0 l/m 3,1 km/h (1 Bft) O-NO 78 0 min 0,000 mm 0,0 UV-I 0 W/m 5,7 C 11,2 C 4,8 km/h (1 Bft) 91,30 %
10.04.2018 05:19 11,3 C 9,4 C 69 % 1001,2 hPa 0,0 l/m 3,3 km/h (1 Bft) O-NO 78 0 min 0,000 mm 0,0 UV-I 0 W/m 5,8 C 11,3 C 4,8 km/h (1 Bft) 100,00 %
10.04.2018 05:20 11,3 C 9,4 C 69 % 1001,2 hPa 0,0 l/m 2,7 km/h (1 Bft) O-NO 78 0 min 0,000 mm 0,0 UV-I 0 W/m 5,8 C 11,3 C 3,2 km/h (1 Bft) 96,30 %
10.04.2018 05:21 11,3 C 9,4 C 69 % 1001,3 hPa 0,0 l/m 2,0 km/h (1 Bft) O-NO 78 0 min 0,000 mm 0,0 UV-I 0 W/m 5,8 C 11,3 C 3,2 km/h (1 Bft) 100,00 %
10.04.2018 05:22 11,3 C 9,4 C 70 % 1001,2 hPa 0,0 l/m 1,7 km/h (1 Bft) O-NO 78 0 min 0,000 mm 0,0 UV-I 0 W/m 6,0 C 11,3 C 3,2 km/h (1 Bft) 96,30 %
10.04.2018 05:23 11,2 C 9,4 C 70 % 1001,2 hPa 0,0 l/m 1,8 km/h (1 Bft) O-NO 78 0 min 0,000 mm 0,0 UV-I 0 W/m 5,9 C 11,2 C 3,2 km/h (1 Bft) 96,15 %
10.04.2018 05:24 11,1 C 9,4 C 72 % 1001,2 hPa 0,0 l/m 1,7 km/h (1 Bft) O-NO 78 0 min 0,000 mm 0,0 UV-I 0 W/m 6,2 C 11,1 C 3,2 km/h (1 Bft) 100,00 %
10.04.2018 05:25 11,0 C 9,4 C 72 % 1001,2 hPa 0,0 l/m 1,7 km/h (1 Bft) O-NO 78 0 min 0,000 mm 0,0 UV-I 0 W/m 6,2 C 11,0 C 3,2 km/h (1 Bft) 91,30 %
10.04.2018 05:27 10,9 C 9,4 C 73 % 1001,1 hPa 0,0 l/m 2,2 km/h (1 Bft) O-NO 78 0 min 0,000 mm 0,0 UV-I 0 W/m 6,3 C 10,9 C 3,2 km/h (1 Bft) 97,87 %
10.04.2018 05:28 10,9 C 9,4 C 72 % 1001,1 hPa 0,0 l/m 2,2 km/h (1 Bft) O-NO 78 0 min 0,000 mm 0,0 UV-I 0 W/m 6,1 C 10,9 C 3,2 km/h (1 Bft) 100,00 %
10.04.2018 05:29 10,9 C 9,4 C 71 % 1001,1 hPa 0,0 l/m 1,7 km/h (1 Bft) O-NO 78 0 min 0,000 mm 0,0 UV-I 0 W/m 5,9 C 10,9 C 3,2 km/h (1 Bft) 96,15 %
10.04.2018 05:30 11,0 C 9,4 C 71 % 1001,1 hPa 0,0 l/m 2,3 km/h (1 Bft) O-NO 78 0 min 0,000 mm 0,0 UV-I 0 W/m 5,9 C 11,0 C 3,2 km/h (1 Bft) 100,00 %
10.04.2018 05:32 11,1 C 9,4 C 71 % 1001,2 hPa 0,0 l/m 1,7 km/h (1 Bft) O-NO 78 0 min 0,000 mm 0,0 UV-I 0 W/m 6,0 C 11,1 C 3,2 km/h (1 Bft) 97,87 %
10.04.2018 05:33 11,1 C 9,4 C 71 % 1001,2 hPa 0,0 l/m 1,2 km/h (1 Bft) O-NO 78 0 min 0,000 mm 0,0 UV-I 0 W/m 6,0 C 11,1 C 1,6 km/h (1 Bft) 96,15 %
10.04.2018 05:34 11,1 C 9,4 C 71 % 1001,2 hPa 0,0 l/m 1,4 km/h (1 Bft) O-NO 78 0 min 0,000 mm 0,0 UV-I 0 W/m 6,0 C 11,1 C 3,2 km/h (1 Bft) 95,83 %
10.04.2018 05:35 11,1 C 9,4 C 71 % 1001,2 hPa 0,0 l/m 1,9 km/h (1 Bft) O-NO 78 0 min 0,000 mm 0,0 UV-I 0 W/m 6,0 C 11,1 C 3,2 km/h (1 Bft) 100,00 %
10.04.2018 05:36 11,1 C 9,4 C 71 % 1001,2 hPa 0,0 l/m 3,2 km/h (1 Bft) S-SO 165 0 min 0,000 mm 0,0 UV-I 0 W/m 6,0 C 11,1 C 6,4 km/h (2 Bft) 95,83 %
10.04.2018 05:37 11,0 C 9,4 C 72 % 1001,2 hPa 0,0 l/m 3,1 km/h (1 Bft) S-SO 165 0 min 0,000 mm 0,0 UV-I 0 W/m 6,2 C 11,0 C 3,2 km/h (1 Bft) 100,00 %
10.04.2018 05:38 10,9 C 9,4 C 72 % 1001,2 hPa 0,0 l/m 3,3 km/h (1 Bft) S-SO 165 0 min 0,000 mm 0,0 UV-I 0 W/m 6,1 C 10,9 C 6,4 km/h (2 Bft) 95,83 %
10.04.2018 05:39 10,9 C 9,4 C 73 % 1001,1 hPa 0,0 l/m 4,7 km/h (1 Bft) S-SO 165 0 min 0,000 mm 0,0 UV-I 0 W/m 6,3 C 10,9 C 6,4 km/h (2 Bft) 100,00 %
10.04.2018 05:40 10,8 C 9,4 C 73 % 1001,1 hPa 0,0 l/m 4,3 km/h (1 Bft) S-SO 165 0 min 0,000 mm 0,0 UV-I 0 W/m 6,2 C 10,8 C 6,4 km/h (2 Bft) 96,15 %
10.04.2018 05:41 10,8 C 9,4 C 74 % 1001,1 hPa 0,0 l/m 3,8 km/h (1 Bft) S-SO 165 0 min 0,000 mm 0,0 UV-I 0 W/m 6,4 C 10,8 C 6,4 km/h (2 Bft) 100,00 %
10.04.2018 05:42 10,8 C 9,4 C 73 % 1001,1 hPa 0,0 l/m 3,3 km/h (1 Bft) S-SO 165 0 min 0,000 mm 0,0 UV-I 0 W/m 6,2 C 10,8 C 6,4 km/h (2 Bft) 95,65 %
10.04.2018 05:43 10,8 C 9,4 C 73 % 1001,1 hPa 0,0 l/m 2,4 km/h (1 Bft) S-SO 165 0 min 0,000 mm 0,0 UV-I 0 W/m 6,2 C 10,8 C 3,2 km/h (1 Bft) 100,00 %
10.04.2018 05:44 10,7 C 9,4 C 74 % 1001,1 hPa 0,0 l/m 2,2 km/h (1 Bft) S-SO 165 0 min 0,000 mm 0,0 UV-I 0 W/m 6,3 C 10,7 C 3,2 km/h (1 Bft) 95,65 %
10.04.2018 05:45 10,6 C 9,4 C 74 % 1001,0 hPa 0,0 l/m 2,2 km/h (1 Bft) S-SO 165 0 min 0,000 mm 0,0 UV-I 0 W/m 6,2 C 10,6 C 3,2 km/h (1 Bft) 96,30 %
10.04.2018 05:46 10,7 C 9,4 C 74 % 1001,0 hPa 0,0 l/m 2,3 km/h (1 Bft) S-SO 165 0 min 0,000 mm 0,0 UV-I 0 W/m 6,3 C 10,7 C 3,2 km/h (1 Bft) 100,00 %
10.04.2018 05:47 10,7 C 9,4 C 73 % 1001,0 hPa 0,0 l/m 1,7 km/h (1 Bft) S-SO 165 0 min 0,000 mm 0,0 UV-I 0 W/m 6,1 C 10,7 C 3,2 km/h (1 Bft) 91,67 %
10.04.2018 05:48 10,7 C 9,4 C 74 % 1001,0 hPa 0,0 l/m 0,3 km/h (0 Bft) S-SO 165 0 min 0,000 mm 0,0 UV-I 0 W/m 6,3 C 10,7 C 1,6 km/h (1 Bft) 100,00 %
10.04.2018 05:49 10,7 C 9,4 C 74 % 1001,0 hPa 0,0 l/m 0,0 km/h (0 Bft) S-SO 165 0 min 0,000 mm 0,0 UV-I 0 W/m 6,3 C 10,7 C 0,0 km/h (0 Bft) 91,67 %
10.04.2018 05:50 10,8 C 9,4 C 73 % 1001,0 hPa 0,0 l/m 0,0 km/h (0 Bft) S-SO 165 0 min 0,000 mm 0,0 UV-I 0 W/m 6,2 C 10,8 C 0,0 km/h (0 Bft) 100,00 %
10.04.2018 05:51 10,8 C 9,4 C 73 % 1000,9 hPa 0,0 l/m 0,0 km/h (0 Bft) S-SO 165 0 min 0,000 mm 0,0 UV-I 0 W/m 6,2 C 10,8 C 0,0 km/h (0 Bft) 95,83 %
10.04.2018 05:52 10,8 C 9,4 C 73 % 1000,9 hPa 0,0 l/m 0,1 km/h (0 Bft) S-SO 165 0 min 0,000 mm 0,0 UV-I 0 W/m 6,2 C 10,8 C 1,6 km/h (1 Bft) 95,65 %
10.04.2018 05:53 10,8 C 9,4 C 73 % 1000,9 hPa 0,0 l/m 0,0 km/h (0 Bft) S-SO 165 0 min 0,000 mm 0,0 UV-I 0 W/m 6,2 C 10,8 C 0,0 km/h (0 Bft) 100,00 %
10.04.2018 05:54 10,8 C 9,4 C 73 % 1000,9 hPa 0,0 l/m 1,8 km/h (1 Bft) S-SO 165 0 min 0,000 mm 0,0 UV-I 0 W/m 6,2 C 10,8 C 3,2 km/h (1 Bft) 100,00 %
10.04.2018 05:55 10,8 C 9,4 C 73 % 1000,9 hPa 0,0 l/m 0,7 km/h (0 Bft) S-SO 165 0 min 0,000 mm 0,0 UV-I 0 W/m 6,2 C 10,8 C 1,6 km/h (1 Bft) 95,65 %
10.04.2018 05:56 10,8 C 9,4 C 73 % 1000,9 hPa 0,0 l/m 0,0 km/h (0 Bft) S-SO 165 0 min 0,000 mm 0,0 UV-I 0 W/m 6,2 C 10,8 C 0,0 km/h (0 Bft) 100,00 %
10.04.2018 05:57 10,8 C 9,4 C 72 % 1000,8 hPa 0,0 l/m 0,0 km/h (0 Bft) S-SO 165 0 min 0,000 mm 0,0 UV-I 0 W/m 6,0 C 10,8 C 0,0 km/h (0 Bft) 100,00 %
10.04.2018 05:58 10,8 C 9,4 C 73 % 1000,9 hPa 0,0 l/m 0,1 km/h (0 Bft) S-SO 165 0 min 0,000 mm 0,0 UV-I 0 W/m 6,2 C 10,8 C 1,6 km/h (1 Bft) 100,00 %
10.04.2018 05:59 10,8 C 9,4 C 73 % 1000,9 hPa 0,0 l/m 1,5 km/h (1 Bft) S-SO 165 0 min 0,000 mm 0,0 UV-I 0 W/m 6,2 C 10,8 C 1,6 km/h (1 Bft) 95,65 %
10.04.2018 06:00 10,8 C 9,4 C 73 % 1000,9 hPa 0,0 l/m 0,0 km/h (0 Bft) S-SO 157 0 min 0,000 mm 0,0 UV-I 0 W/m 6,2 C 10,8 C 3,2 km/h (1 Bft) 100,00 %
10.04.2018 06:02 10,8 C 9,4 C 73 % 1000,9 hPa 0,0 l/m 1,6 km/h (1 Bft) S-SO 165 0 min 0,000 mm 0,0 UV-I 0 W/m 6,2 C 10,8 C 1,6 km/h (1 Bft) 94,74 %
10.04.2018 06:03 10,8 C 9,4 C 73 % 1000,9 hPa 0,0 l/m 1,6 km/h (1 Bft) S-SO 165 0 min 0,000 mm 0,0 UV-I 0 W/m 6,2 C 10,8 C 1,6 km/h (1 Bft) 100,00 %
10.04.2018 06:04 10,8 C 9,4 C 73 % 1000,9 hPa 0,0 l/m 1,3 km/h (1 Bft) S-SO 165 0 min 0,000 mm 0,0 UV-I 0 W/m 6,2 C 10,8 C 3,2 km/h (1 Bft) 100,00 %
10.04.2018 06:05 10,8 C 9,4 C 73 % 1000,9 hPa 0,0 l/m 1,5 km/h (1 Bft) S-SO 165 0 min 0,000 mm 0,0 UV-I 0 W/m 6,2 C 10,8 C 1,6 km/h (1 Bft) 100,00 %
10.04.2018 06:06 10,8 C 9,4 C 73 % 1000,9 hPa 0,0 l/m 1,4 km/h (1 Bft) S-SO 165 0 min 0,000 mm 0,0 UV-I 0 W/m 6,2 C 10,8 C 1,6 km/h (1 Bft) 100,00 %
10.04.2018 06:07 10,7 C 9,4 C 73 % 1001,0 hPa 0,0 l/m 0,0 km/h (0 Bft) S-SO 165 0 min 0,000 mm 0,0 UV-I 0 W/m 6,1 C 10,7 C 0,0 km/h (0 Bft) 100,00 %
10.04.2018 06:08 10,7 C 9,4 C 74 % 1001,0 hPa 0,0 l/m 0,0 km/h (0 Bft) S-SO 165 0 min 0,000 mm 0,0 UV-I 0 W/m 6,3 C 10,7 C 0,0 km/h (0 Bft) 100,00 %
10.04.2018 06:09 10,6 C 9,4 C 74 % 1000,9 hPa 0,0 l/m 0,0 km/h (0 Bft) S-SO 165 0 min 0,000 mm 0,0 UV-I 0 W/m 6,2 C 10,6 C 0,0 km/h (0 Bft) 100,00 %
10.04.2018 06:10 10,6 C 9,4 C 75 % 1000,9 hPa 0,0 l/m 0,4 km/h (0 Bft) S-SO 165 0 min 0,000 mm 0,0 UV-I 0 W/m 6,4 C 10,6 C 1,6 km/h (1 Bft) 100,00 %
10.04.2018 06:12 10,6 C 9,4 C 74 % 1000,9 hPa 0,0 l/m 2,2 km/h (1 Bft) S-SO 165 0 min 0,000 mm 0,0 UV-I 0 W/m 6,2 C 10,6 C 3,2 km/h (1 Bft) 98,11 %
10.04.2018 06:13 10,6 C 9,4 C 75 % 1000,9 hPa 0,0 l/m 1,8 km/h (1 Bft) S-SO 165 0 min 0,000 mm 0,0 UV-I 0 W/m 6,4 C 10,6 C 3,2 km/h (1 Bft) 95,83 %
10.04.2018 06:14 10,6 C 9,4 C 75 % 1000,9 hPa 0,0 l/m 1,0 km/h (0 Bft) S-SO 165 0 min 0,000 mm 0,0 UV-I 0 W/m 6,4 C 10,6 C 1,6 km/h (1 Bft) 100,00 %
10.04.2018 06:15 10,6 C 9,4 C 75 % 1000,9 hPa 0,0 l/m 2,0 km/h (1 Bft) S-SO 165 0 min 0,000 mm 0,0 UV-I 0 W/m 6,4 C 10,6 C 3,2 km/h (1 Bft) 97,18 %
10.04.2018 06:16 10,6 C 9,4 C 75 % 1000,9 hPa 0,0 l/m 2,8 km/h (1 Bft) S-SO 165 0 min 0,000 mm 0,0 UV-I 0 W/m 6,4 C 10,6 C 3,2 km/h (1 Bft) 100,00 %
10.04.2018 06:17 10,4 C 9,4 C 76 % 1001,0 hPa 0,0 l/m 3,4 km/h (1 Bft) S-SO 165 0 min 0,000 mm 0,0 UV-I 0 W/m 6,4 C 10,4 C 6,4 km/h (2 Bft) 95,83 %
10.04.2018 06:18 10,4 C 9,4 C 76 % 1001,0 hPa 0,0 l/m 4,4 km/h (1 Bft) S-SO 165 0 min 0,000 mm 0,0 UV-I 5 W/m 6,4 C 10,4 C 6,4 km/h (2 Bft) 95,65 %
10.04.2018 06:19 10,3 C 9,4 C 76 % 1001,0 hPa 0,0 l/m 6,6 km/h (2 Bft) S 171 0 min 0,000 mm 0,0 UV-I 5 W/m 6,3 C 10,2 C 8,0 km/h (2 Bft) 100,00 %
10.04.2018 06:20 10,3 C 9,4 C 76 % 1001,0 hPa 0,0 l/m 8,0 km/h (2 Bft) S 174 0 min 0,000 mm 0,0 UV-I 5 W/m 6,3 C 9,2 C 9,7 km/h (2 Bft) 100,00 %
10.04.2018 06:21 10,3 C 9,4 C 75 % 1001,0 hPa 0,0 l/m 6,3 km/h (2 Bft) S-SW 194 0 min 0,000 mm 0,0 UV-I 5 W/m 6,1 C 10,3 C 8,0 km/h (2 Bft) 100,00 %
10.04.2018 06:22 10,3 C 9,4 C 75 % 1001,0 hPa 0,0 l/m 5,6 km/h (1 Bft) S-SW 198 0 min 0,000 mm 0,0 UV-I 5 W/m 6,1 C 10,3 C 6,4 km/h (2 Bft) 96,30 %
10.04.2018 06:23 10,4 C 9,4 C 75 % 1001,0 hPa 0,0 l/m 5,2 km/h (1 Bft) S-SW 209 0 min 0,000 mm 0,0 UV-I 5 W/m 6,2 C 10,4 C 6,4 km/h (2 Bft) 100,00 %
10.04.2018 06:24 10,4 C 9,4 C 75 % 1001,0 hPa 0,0 l/m 6,8 km/h (2 Bft) S-SW 202 0 min 0,000 mm 0,0 UV-I 5 W/m 6,2 C 10,1 C 8,0 km/h (2 Bft) 100,00 %
10.04.2018 06:25 10,4 C 9,4 C 75 % 1001,1 hPa 0,0 l/m 6,6 km/h (2 Bft) S-SW 206 0 min 0,000 mm 0,0 UV-I 6 W/m 6,2 C 10,3 C 8,0 km/h (2 Bft) 91,30 %
10.04.2018 06:26 10,4 C 9,4 C 75 % 1001,1 hPa 0,0 l/m 5,6 km/h (1 Bft) S-SW 200 0 min 0,000 mm 0,0 UV-I 7 W/m 6,2 C 10,4 C 8,0 km/h (2 Bft) 95,83 %
10.04.2018 06:27 10,4 C 9,4 C 74 % 1001,0 hPa 0,0 l/m 5,4 km/h (1 Bft) S-SW 196 0 min 0,000 mm 0,0 UV-I 7 W/m 6,0 C 10,4 C 9,7 km/h (2 Bft) 91,30 %
10.04.2018 06:28 10,4 C 9,4 C 74 % 1001,0 hPa 0,0 l/m 4,6 km/h (1 Bft) S-SW 192 0 min 0,000 mm 0,0 UV-I 7 W/m 6,0 C 10,4 C 6,4 km/h (2 Bft) 95,83 %
10.04.2018 06:29 10,4 C 9,4 C 74 % 1001,1 hPa 0,0 l/m 3,2 km/h (1 Bft) S-SW 192 0 min 0,000 mm 0,0 UV-I 7 W/m 6,0 C 10,4 C 4,8 km/h (1 Bft) 92,86 %
10.04.2018 06:30 10,4 C 9,4 C 74 % 1001,1 hPa 0,0 l/m 2,9 km/h (1 Bft) S-SW 192 0 min 0,000 mm 0,0 UV-I 5 W/m 6,0 C 10,4 C 4,8 km/h (1 Bft) 100,00 %
10.04.2018 06:31 10,4 C 9,4 C 74 % 1001,0 hPa 0,0 l/m 3,4 km/h (1 Bft) S-SW 192 0 min 0,000 mm 0,0 UV-I 5 W/m 6,0 C 10,4 C 4,8 km/h (1 Bft) 92,31 %
10.04.2018 06:32 10,5 C 9,4 C 74 % 1001,0 hPa 0,0 l/m 2,5 km/h (1 Bft) S-SW 192 0 min 0,000 mm 0,0 UV-I 5 W/m 6,1 C 10,5 C 4,8 km/h (1 Bft) 95,83 %
10.04.2018 06:33 10,5 C 9,4 C 74 % 1001,0 hPa 0,0 l/m 2,4 km/h (1 Bft) S-SW 192 0 min 0,000 mm 0,0 UV-I 7 W/m 6,1 C 10,5 C 3,2 km/h (1 Bft) 100,00 %
10.04.2018 06:34 10,6 C 9,4 C 74 % 1001,0 hPa 0,0 l/m 2,5 km/h (1 Bft) S-SW 192 0 min 0,000 mm 0,0 UV-I 9 W/m 6,2 C 10,6 C 3,2 km/h (1 Bft) 95,83 %
10.04.2018 06:35 10,5 C 9,4 C 74 % 1001,0 hPa 0,0 l/m 2,3 km/h (1 Bft) S-SW 192 1 min 0,000 mm 0,0 UV-I 9 W/m 6,1 C 10,5 C 3,2 km/h (1 Bft) 100,00 %
10.04.2018 06:36 10,5 C 9,4 C 74 % 1001,0 hPa 0,0 l/m 0,5 km/h (0 Bft) S-SW 192 1 min 0,000 mm 0,0 UV-I 11 W/m 6,1 C 10,5 C 1,6 km/h (1 Bft) 95,83 %
10.04.2018 06:37 10,5 C 9,4 C 74 % 1001,0 hPa 0,0 l/m 0,0 km/h (0 Bft) S-SW 192 0 min 0,000 mm 0,0 UV-I 11 W/m 6,1 C 10,5 C 0,0 km/h (0 Bft) 91,30 %
10.04.2018 06:38 10,4 C 9,4 C 74 % 1001,0 hPa 0,0 l/m 0,7 km/h (0 Bft) S-SW 192 0 min 0,000 mm 0,0 UV-I 11 W/m 6,0 C 10,4 C 3,2 km/h (1 Bft) 100,00 %
10.04.2018 06:39 10,4 C 9,4 C 75 % 1001,0 hPa 0,0 l/m 2,7 km/h (1 Bft) S-SW 192 0 min 0,000 mm 0,0 UV-I 12 W/m 6,2 C 10,4 C 3,2 km/h (1 Bft) 95,65 %
10.04.2018 06:40 10,4 C 9,4 C 74 % 1000,9 hPa 0,0 l/m 4,2 km/h (1 Bft) S-SW 195 0 min 0,000 mm 0,0 UV-I 12 W/m 6,0 C 10,4 C 6,4 km/h (2 Bft) 100,00 %
10.04.2018 06:41 10,4 C 9,4 C 74 % 1001,0 hPa 0,0 l/m 4,9 km/h (1 Bft) S-SW 201 0 min 0,000 mm 0,0 UV-I 12 W/m 6,0 C 10,4 C 6,4 km/h (2 Bft) 95,65 %
10.04.2018 06:42 10,5 C 9,4 C 74 % 1001,0 hPa 0,0 l/m 4,3 km/h (1 Bft) S-SW 201 0 min 0,000 mm 0,0 UV-I 14 W/m 6,1 C 10,5 C 4,8 km/h (1 Bft) 100,00 %
10.04.2018 06:43 10,5 C 9,4 C 74 % 1000,9 hPa 0,0 l/m 4,3 km/h (1 Bft) SW 222 0 min 0,000 mm 0,0 UV-I 14 W/m 6,1 C 10,5 C 4,8 km/h (1 Bft) 100,00 %
10.04.2018 06:44 10,4 C 9,4 C 74 % 1000,9 hPa 0,0 l/m 3,9 km/h (1 Bft) SW 222 0 min 0,000 mm 0,0 UV-I 14 W/m 6,0 C 10,4 C 4,8 km/h (1 Bft) 97,37 %
10.04.2018 06:45 10,3 C 9,4 C 75 % 1000,9 hPa 0,0 l/m 4,8 km/h (1 Bft) SW 222 0 min 0,000 mm 0,0 UV-I 14 W/m 6,1 C 10,3 C 6,4 km/h (2 Bft) 95,83 %
10.04.2018 06:46 10,3 C 9,4 C 76 % 1000,9 hPa 0,0 l/m 5,2 km/h (1 Bft) SW 222 0 min 0,000 mm 0,0 UV-I 16 W/m 6,3 C 10,3 C 6,4 km/h (2 Bft) 100,00 %
10.04.2018 06:47 10,3 C 9,4 C 77 % 1000,9 hPa 0,0 l/m 4,8 km/h (1 Bft) SW 222 0 min 0,000 mm 0,0 UV-I 16 W/m 6,4 C 10,3 C 6,4 km/h (2 Bft) 95,83 %
10.04.2018 06:48 10,2 C 9,4 C 77 % 1001,0 hPa 0,0 l/m 6,0 km/h (2 Bft) SW 222 0 min 0,000 mm 0,0 UV-I 16 W/m 6,4 C 10,2 C 6,4 km/h (2 Bft) 96,15 %
10.04.2018 06:49 10,1 C 9,4 C 77 % 1001,0 hPa 0,0 l/m 5,6 km/h (1 Bft) SW 221 0 min 0,000 mm 0,0 UV-I 18 W/m 6,3 C 10,1 C 6,4 km/h (2 Bft) 100,00 %
10.04.2018 06:50 10,1 C 9,4 C 78 % 1001,0 hPa 0,0 l/m 5,4 km/h (1 Bft) SW 221 0 min 0,000 mm 0,0 UV-I 18 W/m 6,4 C 10,1 C 6,4 km/h (2 Bft) 88,46 %
10.04.2018 06:51 10,0 C 9,4 C 78 % 1001,0 hPa 0,0 l/m 4,0 km/h (1 Bft) SW 221 0 min 0,000 mm 0,0 UV-I 19 W/m 6,3 C 10,0 C 6,4 km/h (2 Bft) 100,00 %
10.04.2018 06:52 10,0 C 9,4 C 79 % 1001,0 hPa 0,0 l/m 4,2 km/h (1 Bft) SW 221 0 min 0,000 mm 0,0 UV-I 21 W/m 6,5 C 10,0 C 6,4 km/h (2 Bft) 95,83 %
10.04.2018 06:53 9,9 C 9,4 C 79 % 1001,1 hPa 0,0 l/m 4,2 km/h (1 Bft) SW 221 0 min 0,000 mm 0,0 UV-I 21 W/m 6,4 C 9,9 C 6,4 km/h (2 Bft) 95,65 %
10.04.2018 06:54 9,9 C 9,4 C 78 % 1001,1 hPa 0,0 l/m 3,3 km/h (1 Bft) SW 221 0 min 0,000 mm 0,0 UV-I 24 W/m 6,2 C 9,9 C 4,8 km/h (1 Bft) 96,55 %
10.04.2018 06:55 10,0 C 9,4 C 78 % 1001,1 hPa 0,0 l/m 3,6 km/h (1 Bft) SW 221 0 min 0,000 mm 0,0 UV-I 26 W/m 6,3 C 10,0 C 4,8 km/h (1 Bft) 95,83 %
10.04.2018 06:56 10,1 C 9,4 C 78 % 1001,1 hPa 0,0 l/m 2,4 km/h (1 Bft) SW 221 0 min 0,000 mm 0,0 UV-I 29 W/m 6,4 C 10,1 C 3,2 km/h (1 Bft) 93,33 %
10.04.2018 06:57 10,1 C 9,4 C 77 % 1001,1 hPa 0,0 l/m 3,2 km/h (1 Bft) SW 221 0 min 0,000 mm 0,0 UV-I 32 W/m 6,3 C 10,1 C 4,8 km/h (1 Bft) 100,00 %
10.04.2018 06:58 10,1 C 9,4 C 77 % 1001,1 hPa 0,0 l/m 3,8 km/h (1 Bft) SW 221 0 min 0,000 mm 0,0 UV-I 35 W/m 6,3 C 10,1 C 4,8 km/h (1 Bft) 92,59 %
10.04.2018 06:59 10,2 C 9,4 C 77 % 1001,1 hPa 0,0 l/m 4,5 km/h (1 Bft) SW 221 0 min 0,000 mm 0,0 UV-I 36 W/m 6,4 C 10,2 C 4,8 km/h (1 Bft) 92,31 %
10.04.2018 07:00 10,2 C 9,4 C 77 % 1001,1 hPa 0,0 l/m 4,3 km/h (1 Bft) SW 221 0 min 0,026 mm 0,0 UV-I 39 W/m 6,4 C 10,2 C 6,4 km/h (2 Bft) 100,00 %
10.04.2018 07:01 10,2 C 9,4 C 77 % 1001,2 hPa 0,0 l/m 4,8 km/h (1 Bft) SW 221 0 min 0,000 mm 0,0 UV-I 41 W/m 6,4 C 10,2 C 6,4 km/h (2 Bft) 100,00 %
10.04.2018 07:02 10,2 C 9,4 C 77 % 1001,2 hPa 0,0 l/m 4,6 km/h (1 Bft) SW 221 0 min 0,000 mm 0,0 UV-I 43 W/m 6,4 C 10,2 C 6,4 km/h (2 Bft) 100,00 %
10.04.2018 07:03 10,2 C 9,4 C 77 % 1001,1 hPa 0,0 l/m 4,0 km/h (1 Bft) SW 221 0 min 0,000 mm 0,0 UV-I 46 W/m 6,4 C 10,2 C 4,8 km/h (1 Bft) 100,00 %
10.04.2018 07:04 10,2 C 9,4 C 76 % 1001,1 hPa 0,0 l/m 2,4 km/h (1 Bft) SW 221 0 min 0,000 mm 0,0 UV-I 51 W/m 6,2 C 10,2 C 3,2 km/h (1 Bft) 100,00 %
10.04.2018 07:05 10,3 C 9,4 C 76 % 1001,2 hPa 0,0 l/m 2,1 km/h (1 Bft) SW 221 0 min 0,000 mm 0,0 UV-I 54 W/m 6,3 C 10,3 C 3,2 km/h (1 Bft) 100,00 %
10.04.2018 07:06 10,3 C 9,4 C 76 % 1001,1 hPa 0,0 l/m 1,8 km/h (1 Bft) SW 221 1 min 0,000 mm 0,0 UV-I 58 W/m 6,3 C 10,3 C 3,2 km/h (1 Bft) 100,00 %
10.04.2018 07:07 10,3 C 9,4 C 76 % 1001,1 hPa 0,0 l/m 1,6 km/h (1 Bft) SW 221 1 min 0,000 mm 0,0 UV-I 64 W/m 6,3 C 10,3 C 3,2 km/h (1 Bft) 100,00 %
10.04.2018 07:08 10,3 C 9,4 C 76 % 1001,1 hPa 0,0 l/m 2,4 km/h (1 Bft) SW 221 1 min 0,000 mm 0,0 UV-I 65 W/m 6,3 C 10,3 C 3,2 km/h (1 Bft) 95,83 %
10.04.2018 07:09 10,4 C 9,4 C 75 % 1001,1 hPa 0,0 l/m 3,0 km/h (1 Bft) SW 221 1 min 0,000 mm 0,0 UV-I 72 W/m 6,2 C 10,4 C 4,8 km/h (1 Bft) 100,00 %
10.04.2018 07:10 10,4 C 9,4 C 75 % 1001,1 hPa 0,0 l/m 3,3 km/h (1 Bft) SW 221 1 min 0,000 mm 0,0 UV-I 77 W/m 6,2 C 10,4 C 4,8 km/h (1 Bft) 95,83 %
10.04.2018 07:11 10,5 C 9,4 C 75 % 1001,1 hPa 0,0 l/m 3,5 km/h (1 Bft) SW 221 1 min 0,000 mm 0,0 UV-I 83 W/m 6,3 C 10,5 C 4,8 km/h (1 Bft) 96,15 %
10.04.2018 07:12 10,5 C 9,4 C 75 % 1001,1 hPa 0,0 l/m 3,3 km/h (1 Bft) SW 221 1 min 0,000 mm 0,0 UV-I 84 W/m 6,3 C 10,5 C 4,8 km/h (1 Bft) 100,00 %
10.04.2018 07:13 10,6 C 9,4 C 75 % 1001,1 hPa 0,0 l/m 3,5 km/h (1 Bft) SW 221 1 min 0,000 mm 0,0 UV-I 87 W/m 6,4 C 10,6 C 4,8 km/h (1 Bft) 100,00 %
10.04.2018 07:14 10,5 C 9,4 C 75 % 1001,1 hPa 0,0 l/m 4,5 km/h (1 Bft) SW 221 1 min 0,000 mm 0,0 UV-I 89 W/m 6,3 C 10,5 C 4,8 km/h (1 Bft) 100,00 %
10.04.2018 07:15 10,5 C 9,4 C 75 % 1001,1 hPa 0,0 l/m 2,9 km/h (1 Bft) SW 221 1 min 0,000 mm 0,0 UV-I 91 W/m 6,3 C 10,5 C 4,8 km/h (1 Bft) 100,00 %
10.04.2018 07:16 10,6 C 9,4 C 75 % 1001,1 hPa 0,0 l/m 2,9 km/h (1 Bft) SW 221 1 min 0,000 mm 0,0 UV-I 90 W/m 6,4 C 10,6 C 3,2 km/h (1 Bft) 100,00 %
10.04.2018 07:17 10,6 C 9,4 C 75 % 1001,1 hPa 0,0 l/m 3,1 km/h (1 Bft) SW 221 0 min 0,000 mm 0,0 UV-I 66 W/m 6,4 C 10,6 C 4,8 km/h (1 Bft) 100,00 %
10.04.2018 07:18 10,6 C 9,4 C 75 % 1001,1 hPa 0,0 l/m 3,0 km/h (1 Bft) SW 221 0 min 0,000 mm 0,0 UV-I 50 W/m 6,4 C 10,6 C 4,8 km/h (1 Bft) 95,65 %
10.04.2018 07:19 10,6 C 9,4 C 75 % 1001,2 hPa 0,0 l/m 2,9 km/h (1 Bft) SW 221 0 min 0,000 mm 0,0 UV-I 35 W/m 6,4 C 10,6 C 3,2 km/h (1 Bft) 100,00 %
10.04.2018 07:20 10,6 C 9,4 C 75 % 1001,1 hPa 0,0 l/m 2,3 km/h (1 Bft) SW 221 0 min 0,000 mm 0,0 UV-I 49 W/m 6,4 C 10,6 C 3,2 km/h (1 Bft) 100,00 %
10.04.2018 07:21 10,6 C 9,4 C 75 % 1001,2 hPa 0,0 l/m 2,4 km/h (1 Bft) SW 220 0 min 0,000 mm 0,0 UV-I 66 W/m 6,4 C 10,6 C 3,2 km/h (1 Bft) 100,00 %
10.04.2018 07:22 10,7 C 9,4 C 75 % 1001,2 hPa 0,0 l/m 2,7 km/h (1 Bft) S-SW 209 0 min 0,000 mm 0,0 UV-I 71 W/m 6,5 C 10,7 C 4,8 km/h (1 Bft) 100,00 %
10.04.2018 07:23 10,7 C 9,4 C 76 % 1001,2 hPa 0,0 l/m 3,7 km/h (1 Bft) S-SW 209 0 min 0,000 mm 0,0 UV-I 62 W/m 6,6 C 10,7 C 4,8 km/h (1 Bft) 100,00 %
10.04.2018 07:24 10,7 C 9,4 C 75 % 1001,1 hPa 0,0 l/m 4,4 km/h (1 Bft) S-SW 209 0 min 0,000 mm 0,0 UV-I 60 W/m 6,5 C 10,7 C 4,8 km/h (1 Bft) 100,00 %
10.04.2018 07:25 10,7 C 9,4 C 74 % 1001,1 hPa 0,0 l/m 4,3 km/h (1 Bft) S-SW 209 0 min 0,000 mm 0,0 UV-I 60 W/m 6,3 C 10,7 C 6,4 km/h (2 Bft) 100,00 %
10.04.2018 07:26 10,7 C 9,4 C 74 % 1001,1 hPa 0,0 l/m 3,6 km/h (1 Bft) S-SW 209 0 min 0,000 mm 0,0 UV-I 59 W/m 6,3 C 10,7 C 4,8 km/h (1 Bft) 100,00 %
10.04.2018 07:27 10,8 C 9,4 C 74 % 1001,1 hPa 0,0 l/m 2,4 km/h (1 Bft) S-SW 209 0 min 0,000 mm 0,0 UV-I 56 W/m 6,4 C 10,8 C 3,2 km/h (1 Bft) 100,00 %
10.04.2018 07:28 10,8 C 9,4 C 74 % 1001,1 hPa 0,0 l/m 2,8 km/h (1 Bft) SW 225 0 min 0,000 mm 0,0 UV-I 56 W/m 6,4 C 10,8 C 3,2 km/h (1 Bft) 96,15 %
10.04.2018 07:29 10,8 C 9,4 C 74 % 1001,0 hPa 0,0 l/m 2,3 km/h (1 Bft) SW 225 0 min 0,000 mm 0,0 UV-I 56 W/m 6,4 C 10,8 C 3,2 km/h (1 Bft) 100,00 %
10.04.2018 07:30 10,8 C 9,4 C 74 % 1001,1 hPa 0,0 l/m 3,6 km/h (1 Bft) SW 225 0 min 0,000 mm 0,0 UV-I 56 W/m 6,4 C 10,8 C 4,8 km/h (1 Bft) 96,15 %
10.04.2018 07:31 10,8 C 9,4 C 73 % 1001,1 hPa 0,0 l/m 4,7 km/h (1 Bft) SW 225 0 min 0,000 mm 0,0 UV-I 56 W/m 6,2 C 10,8 C 4,8 km/h (1 Bft) 100,00 %
10.04.2018 07:32 10,8 C 9,4 C 73 % 1001,1 hPa 0,0 l/m 3,5 km/h (1 Bft) SW 225 0 min 0,000 mm 0,0 UV-I 57 W/m 6,2 C 10,8 C 4,8 km/h (1 Bft) 100,00 %
10.04.2018 07:33 10,8 C 9,4 C 73 % 1001,2 hPa 0,0 l/m 3,4 km/h (1 Bft) SW 223 0 min 0,000 mm 0,0 UV-I 60 W/m 6,2 C 10,8 C 4,8 km/h (1 Bft) 100,00 %
10.04.2018 07:34 10,8 C 9,4 C 73 % 1001,2 hPa 0,0 l/m 3,2 km/h (1 Bft) SW 223 0 min 0,000 mm 0,0 UV-I 62 W/m 6,2 C 10,8 C 4,8 km/h (1 Bft) 96,30 %
10.04.2018 07:35 10,9 C 9,4 C 75 % 1001,2 hPa 0,0 l/m 3,0 km/h (1 Bft) SW 223 0 min 0,000 mm 0,0 UV-I 63 W/m 6,6 C 10,9 C 4,8 km/h (1 Bft) 100,00 %
10.04.2018 07:36 10,8 C 9,4 C 75 % 1001,2 hPa 0,0 l/m 3,0 km/h (1 Bft) SW 223 0 min 0,000 mm 0,0 UV-I 64 W/m 6,5 C 10,8 C 4,8 km/h (1 Bft) 100,00 %
10.04.2018 07:37 10,8 C 9,4 C 75 % 1001,2 hPa 0,0 l/m 1,7 km/h (1 Bft) SW 223 0 min 0,000 mm 0,0 UV-I 66 W/m 6,5 C 10,8 C 3,2 km/h (1 Bft) 100,00 %
10.04.2018 07:38 10,8 C 9,4 C 75 % 1001,2 hPa 0,0 l/m 0,2 km/h (0 Bft) SW 223 0 min 0,000 mm 0,0 UV-I 67 W/m 6,5 C 10,8 C 1,6 km/h (1 Bft) 100,00 %
10.04.2018 07:39 10,8 C 9,4 C 75 % 1001,2 hPa 0,0 l/m 0,0 km/h (0 Bft) SW 223 0 min 0,000 mm 0,0 UV-I 67 W/m 6,5 C 10,8 C 0,0 km/h (0 Bft) 100,00 %
10.04.2018 07:40 10,9 C 9,4 C 75 % 1001,2 hPa 0,0 l/m 0,7 km/h (0 Bft) SW 223 0 min 0,000 mm 0,0 UV-I 67 W/m 6,6 C 10,9 C 1,6 km/h (1 Bft) 100,00 %
10.04.2018 07:41 10,9 C 9,4 C 75 % 1001,1 hPa 0,0 l/m 1,6 km/h (1 Bft) SW 223 0 min 0,000 mm 0,0 UV-I 64 W/m 6,6 C 10,9 C 3,2 km/h (1 Bft) 100,00 %
10.04.2018 07:42 10,9 C 9,4 C 74 % 1001,2 hPa 0,0 l/m 2,8 km/h (1 Bft) SW 223 0 min 0,000 mm 0,0 UV-I 63 W/m 6,5 C 10,9 C 3,2 km/h (1 Bft) 100,00 %
10.04.2018 07:43 10,9 C 9,4 C 74 % 1001,2 hPa 0,0 l/m 3,5 km/h (1 Bft) SW 223 0 min 0,000 mm 0,0 UV-I 63 W/m 6,5 C 10,9 C 4,8 km/h (1 Bft) 100,00 %
10.04.2018 07:44 11,0 C 9,4 C 74 % 1001,2 hPa 0,0 l/m 4,2 km/h (1 Bft) SW 223 0 min 0,000 mm 0,0 UV-I 62 W/m 6,5 C 11,0 C 4,8 km/h (1 Bft) 100,00 %
10.04.2018 07:45 11,1 C 9,4 C 74 % 1001,2 hPa 0,0 l/m 3,9 km/h (1 Bft) SW 223 0 min 0,000 mm 0,0 UV-I 62 W/m 6,6 C 11,1 C 4,8 km/h (1 Bft) 100,00 %
10.04.2018 07:46 11,1 C 9,4 C 74 % 1001,2 hPa 0,0 l/m 1,3 km/h (1 Bft) SW 223 0 min 0,000 mm 0,0 UV-I 60 W/m 6,6 C 11,1 C 3,2 km/h (1 Bft) 100,00 %
10.04.2018 07:47 11,1 C 9,4 C 74 % 1001,2 hPa 0,0 l/m 1,9 km/h (1 Bft) SW 223 0 min 0,000 mm 0,0 UV-I 58 W/m 6,6 C 11,1 C 3,2 km/h (1 Bft) 100,00 %
10.04.2018 07:48 11,0 C 9,4 C 74 % 1001,2 hPa 0,0 l/m 1,0 km/h (0 Bft) SW 223 0 min 0,000 mm 0,0 UV-I 64 W/m 6,5 C 11,0 C 3,2 km/h (1 Bft) 95,83 %
10.04.2018 07:49 11,0 C 9,4 C 74 % 1001,2 hPa 0,0 l/m 2,3 km/h (1 Bft) SW 223 0 min 0,000 mm 0,0 UV-I 64 W/m 6,5 C 11,0 C 3,2 km/h (1 Bft) 100,00 %
10.04.2018 07:50 11,0 C 9,4 C 74 % 1001,2 hPa 0,0 l/m 2,0 km/h (1 Bft) SW 223 0 min 0,000 mm 0,0 UV-I 58 W/m 6,5 C 11,0 C 3,2 km/h (1 Bft) 100,00 %
10.04.2018 07:51 11,1 C 9,4 C 74 % 1001,2 hPa 0,0 l/m 1,5 km/h (1 Bft) SW 223 0 min 0,000 mm 0,0 UV-I 60 W/m 6,6 C 11,1 C 3,2 km/h (1 Bft) 100,00 %
10.04.2018 07:52 11,1 C 9,4 C 74 % 1001,2 hPa 0,0 l/m 0,6 km/h (0 Bft) SW 223 0 min 0,000 mm 0,0 UV-I 60 W/m 6,6 C 11,1 C 1,6 km/h (1 Bft) 100,00 %
10.04.2018 07:53 11,1 C 9,4 C 74 % 1001,2 hPa 0,0 l/m 1,6 km/h (1 Bft) SW 221 0 min 0,000 mm 0,0 UV-I 62 W/m 6,6 C 11,1 C 3,2 km/h (1 Bft) 100,00 %
10.04.2018 07:54 11,1 C 9,4 C 74 % 1001,2 hPa 0,0 l/m 3,6 km/h (1 Bft) SW 220 0 min 0,000 mm 0,0 UV-I 64 W/m 6,6 C 11,1 C 4,8 km/h (1 Bft) 100,00 %
10.04.2018 07:55 11,1 C 9,4 C 74 % 1001,2 hPa 0,0 l/m 3,2 km/h (1 Bft) SW 217 0 min 0,000 mm 0,0 UV-I 67 W/m 6,6 C 11,1 C 4,8 km/h (1 Bft) 100,00 %
10.04.2018 07:56 11,1 C 9,4 C 74 % 1001,2 hPa 0,0 l/m 4,9 km/h (1 Bft) SW 217 0 min 0,000 mm 0,0 UV-I 70 W/m 6,6 C 11,1 C 6,4 km/h (2 Bft) 100,00 %
10.04.2018 07:57 11,1 C 9,4 C 74 % 1001,2 hPa 0,0 l/m 5,4 km/h (1 Bft) SW 217 0 min 0,000 mm 0,0 UV-I 72 W/m 6,6 C 11,1 C 6,4 km/h (2 Bft) 100,00 %
10.04.2018 07:58 11,1 C 9,4 C 74 % 1001,2 hPa 0,0 l/m 4,3 km/h (1 Bft) SW 217 0 min 0,000 mm 0,0 UV-I 74 W/m 6,6 C 11,1 C 6,4 km/h (2 Bft) 100,00 %
10.04.2018 07:59 11,1 C 9,4 C 74 % 1001,2 hPa 0,0 l/m 2,8 km/h (1 Bft) SW 217 0 min 0,000 mm 0,0 UV-I 78 W/m 6,6 C 11,1 C 3,2 km/h (1 Bft) 100,00 %
10.04.2018 08:00 11,1 C 9,4 C 74 % 1001,3 hPa 0,0 l/m 3,2 km/h (1 Bft) SW 217 0 min 0,051 mm 0,0 UV-I 81 W/m 6,6 C 11,1 C 4,8 km/h (1 Bft) 100,00 %
10.04.2018 08:01 11,1 C 9,4 C 75 % 1001,3 hPa 0,0 l/m 3,1 km/h (1 Bft) SW 217 0 min 0,000 mm 0,0 UV-I 84 W/m 6,8 C 11,1 C 3,2 km/h (1 Bft) 100,00 %
10.04.2018 08:02 11,2 C 9,4 C 75 % 1001,2 hPa 0,0 l/m 2,7 km/h (1 Bft) SW 217 0 min 0,000 mm 0,0 UV-I 87 W/m 6,9 C 11,2 C 3,2 km/h (1 Bft) 100,00 %
10.04.2018 08:03 11,2 C 9,4 C 76 % 1001,2 hPa 0,0 l/m 1,3 km/h (1 Bft) SW 217 0 min 0,000 mm 0,0 UV-I 91 W/m 7,1 C 11,2 C 1,6 km/h (1 Bft) 100,00 %
10.04.2018 08:04 11,2 C 9,4 C 76 % 1001,2 hPa 0,0 l/m 1,3 km/h (1 Bft) SW 217 0 min 0,000 mm 0,0 UV-I 96 W/m 7,1 C 11,2 C 1,6 km/h (1 Bft) 100,00 %
10.04.2018 08:05 11,1 C 9,4 C 76 % 1001,2 hPa 0,0 l/m 1,7 km/h (1 Bft) SW 217 0 min 0,000 mm 0,0 UV-I 99 W/m 7,0 C 11,1 C 3,2 km/h (1 Bft) 95,83 %
10.04.2018 08:06 11,1 C 9,4 C 76 % 1001,2 hPa 0,0 l/m 1,7 km/h (1 Bft) SW 217 0 min 0,000 mm 0,0 UV-I 104 W/m 7,0 C 11,1 C 3,2 km/h (1 Bft) 92,86 %
10.04.2018 08:07 11,0 C 9,4 C 76 % 1001,2 hPa 0,0 l/m 1,3 km/h (1 Bft) SW 217 0 min 0,000 mm 0,0 UV-I 106 W/m 6,9 C 11,0 C 1,6 km/h (1 Bft) 100,00 %
10.04.2018 08:08 10,9 C 9,4 C 76 % 1001,2 hPa 0,0 l/m 0,1 km/h (0 Bft) SW 217 0 min 0,000 mm 0,0 UV-I 108 W/m 6,8 C 10,9 C 1,6 km/h (1 Bft) 100,00 %
10.04.2018 08:09 10,9 C 9,4 C 75 % 1001,2 hPa 0,0 l/m 0,0 km/h (0 Bft) SW 217 0 min 0,000 mm 0,0 UV-I 111 W/m 6,6 C 10,9 C 0,0 km/h (0 Bft) 100,00 %
10.04.2018 08:10 10,9 C 9,4 C 76 % 1001,2 hPa 0,0 l/m 0,0 km/h (0 Bft) SW 217 0 min 0,000 mm 0,0 UV-I 113 W/m 6,8 C 10,9 C 0,0 km/h (0 Bft) 100,00 %
10.04.2018 08:12 10,9 C 9,4 C 76 % 1001,3 hPa 0,0 l/m 0,0 km/h (0 Bft) SW 217 0 min 0,000 mm 0,0 UV-I 113 W/m 6,8 C 10,9 C 0,0 km/h (0 Bft) 98,00 %
10.04.2018 08:13 10,9 C 9,4 C 76 % 1001,3 hPa 0,0 l/m 0,0 km/h (0 Bft) SW 217 0 min 0,000 mm 0,0 UV-I 115 W/m 6,8 C 10,9 C 0,0 km/h (0 Bft) 100,00 %
10.04.2018 08:14 11,0 C 9,4 C 76 % 1001,2 hPa 0,0 l/m 0,0 km/h (0 Bft) SW 217 0 min 0,000 mm 0,0 UV-I 116 W/m 6,9 C 11,0 C 0,0 km/h (0 Bft) 100,00 %
10.04.2018 08:15 11,1 C 9,4 C 76 % 1001,2 hPa 0,0 l/m 0,0 km/h (0 Bft) SW 217 0 min 0,000 mm 0,0 UV-I 118 W/m 7,0 C 11,1 C 0,0 km/h (0 Bft) 96,15 %
10.04.2018 08:16 11,1 C 9,4 C 75 % 1001,2 hPa 0,0 l/m 0,0 km/h (0 Bft) SW 217 0 min 0,000 mm 0,0 UV-I 120 W/m 6,8 C 11,1 C 0,0 km/h (0 Bft) 100,00 %
10.04.2018 08:17 11,1 C 9,4 C 75 % 1001,2 hPa 0,0 l/m 0,0 km/h (0 Bft) SW 217 0 min 0,000 mm 0,0 UV-I 120 W/m 6,8 C 11,1 C 0,0 km/h (0 Bft) 100,00 %
10.04.2018 08:18 11,2 C 9,4 C 75 % 1001,2 hPa 0,0 l/m 0,0 km/h (0 Bft) SW 217 0 min 0,000 mm 0,0 UV-I 120 W/m 6,9 C 11,2 C 0,0 km/h (0 Bft) 100,00 %
10.04.2018 08:19 11,2 C 9,4 C 74 % 1001,2 hPa 0,0 l/m 0,0 km/h (0 Bft) SW 218 0 min 0,000 mm 0,0 UV-I 119 W/m 6,7 C 11,2 C 0,0 km/h (0 Bft) 100,00 %
10.04.2018 08:20 11,3 C 9,4 C 74 % 1001,2 hPa 0,0 l/m 0,0 km/h (0 Bft) SW 219 0 min 0,000 mm 0,0 UV-I 118 W/m 6,8 C 11,3 C 0,0 km/h (0 Bft) 100,00 %
10.04.2018 08:21 11,4 C 9,4 C 73 % 1001,2 hPa 0,0 l/m 0,0 km/h (0 Bft) SW 219 0 min 0,000 mm 0,0 UV-I 118 W/m 6,7 C 11,4 C 0,0 km/h (0 Bft) 100,00 %
10.04.2018 08:22 11,4 C 9,4 C 73 % 1001,3 hPa 0,0 l/m 0,0 km/h (0 Bft) SW 220 0 min 0,000 mm 0,0 UV-I 118 W/m 6,7 C 11,4 C 0,0 km/h (0 Bft) 100,00 %
10.04.2018 08:23 11,4 C 9,4 C 73 % 1001,2 hPa 0,0 l/m 1,3 km/h (1 Bft) SW 220 0 min 0,000 mm 0,0 UV-I 119 W/m 6,7 C 11,4 C 3,2 km/h (1 Bft) 100,00 %
10.04.2018 08:24 11,4 C 9,4 C 75 % 1001,2 hPa 0,0 l/m 1,3 km/h (1 Bft) SW 220 0 min 0,000 mm 0,0 UV-I 120 W/m 7,1 C 11,4 C 3,2 km/h (1 Bft) 100,00 %
10.04.2018 08:25 11,4 C 9,4 C 75 % 1001,2 hPa 0,0 l/m 1,2 km/h (1 Bft) SW 221 0 min 0,000 mm 0,0 UV-I 120 W/m 7,1 C 11,4 C 1,6 km/h (1 Bft) 100,00 %
10.04.2018 08:26 11,4 C 9,4 C 75 % 1001,2 hPa 0,0 l/m 1,9 km/h (1 Bft) SW 223 0 min 0,000 mm 0,0 UV-I 120 W/m 7,1 C 11,4 C 3,2 km/h (1 Bft) 100,00 %
10.04.2018 08:27 11,4 C 9,4 C 74 % 1001,2 hPa 0,0 l/m 1,8 km/h (1 Bft) SW 226 0 min 0,000 mm 0,0 UV-I 120 W/m 6,9 C 11,4 C 3,2 km/h (1 Bft) 100,00 %
10.04.2018 08:28 11,4 C 9,4 C 74 % 1001,3 hPa 0,0 l/m 1,2 km/h (1 Bft) SW 227 0 min 0,000 mm 0,0 UV-I 122 W/m 6,9 C 11,4 C 1,6 km/h (1 Bft) 100,00 %
10.04.2018 08:29 11,4 C 9,4 C 74 % 1001,3 hPa 0,0 l/m 1,0 km/h (0 Bft) SW 227 0 min 0,000 mm 0,0 UV-I 124 W/m 6,9 C 11,4 C 1,6 km/h (1 Bft) 96,15 %
10.04.2018 08:30 11,4 C 9,4 C 74 % 1001,3 hPa 0,0 l/m 0,2 km/h (0 Bft) SW 227 0 min 0,000 mm 0,0 UV-I 126 W/m 6,9 C 11,4 C 1,6 km/h (1 Bft) 100,00 %
10.04.2018 08:31 11,4 C 9,4 C 74 % 1001,3 hPa 0,0 l/m 0,7 km/h (0 Bft) SW 228 0 min 0,000 mm 0,0 UV-I 128 W/m 6,9 C 11,4 C 1,6 km/h (1 Bft) 100,00 %
10.04.2018 08:32 11,5 C 9,4 C 73 % 1001,3 hPa 0,0 l/m 0,0 km/h (0 Bft) SW 229 0 min 0,000 mm 0,0 UV-I 130 W/m 6,8 C 11,5 C 0,0 km/h (0 Bft) 100,00 %
10.04.2018 08:33 11,6 C 9,4 C 73 % 1001,3 hPa 0,0 l/m 0,2 km/h (0 Bft) SW 229 0 min 0,000 mm 0,0 UV-I 130 W/m 6,9 C 11,6 C 1,6 km/h (1 Bft) 100,00 %
10.04.2018 08:34 11,6 C 9,4 C 73 % 1001,3 hPa 0,0 l/m 2,0 km/h (1 Bft) SW 229 0 min 0,000 mm 0,0 UV-I 133 W/m 6,9 C 11,6 C 3,2 km/h (1 Bft) 94,12 %
10.04.2018 08:35 11,6 C 9,4 C 73 % 1001,3 hPa 0,0 l/m 1,5 km/h (1 Bft) SW 234 0 min 0,000 mm 0,0 UV-I 134 W/m 6,9 C 11,6 C 1,6 km/h (1 Bft) 95,83 %
10.04.2018 08:36 11,7 C 9,4 C 72 % 1001,3 hPa 0,0 l/m 1,1 km/h (1 Bft) SW 234 0 min 0,000 mm 0,0 UV-I 135 W/m 6,8 C 11,7 C 3,2 km/h (1 Bft) 95,65 %
10.04.2018 08:37 11,7 C 9,4 C 72 % 1001,3 hPa 0,0 l/m 0,8 km/h (0 Bft) SW 234 0 min 0,000 mm 0,0 UV-I 136 W/m 6,8 C 11,7 C 1,6 km/h (1 Bft) 100,00 %
10.04.2018 08:38 11,7 C 9,4 C 73 % 1001,3 hPa 0,0 l/m 1,5 km/h (1 Bft) SW 234 0 min 0,000 mm 0,0 UV-I 139 W/m 7,0 C 11,7 C 3,2 km/h (1 Bft) 95,65 %
10.04.2018 08:39 11,7 C 9,4 C 73 % 1001,3 hPa 0,0 l/m 2,8 km/h (1 Bft) SW 234 0 min 0,000 mm 0,0 UV-I 141 W/m 7,0 C 11,7 C 3,2 km/h (1 Bft) 100,00 %
10.04.2018 08:40 11,7 C 9,4 C 73 % 1001,3 hPa 0,0 l/m 3,0 km/h (1 Bft) SW 234 0 min 0,000 mm 0,0 UV-I 143 W/m 7,0 C 11,7 C 3,2 km/h (1 Bft) 96,55 %
10.04.2018 08:41 11,7 C 9,4 C 73 % 1001,3 hPa 0,0 l/m 0,9 km/h (0 Bft) SW 234 0 min 0,000 mm 0,0 UV-I 144 W/m 7,0 C 11,7 C 3,2 km/h (1 Bft) 95,83 %
10.04.2018 08:42 11,8 C 9,4 C 73 % 1001,3 hPa 0,0 l/m 1,3 km/h (1 Bft) SW 234 0 min 0,000 mm 0,0 UV-I 145 W/m 7,1 C 11,8 C 3,2 km/h (1 Bft) 100,00 %
10.04.2018 08:43 11,8 C 9,4 C 73 % 1001,3 hPa 0,0 l/m 1,5 km/h (1 Bft) SW 234 0 min 0,000 mm 0,0 UV-I 146 W/m 7,1 C 11,8 C 1,6 km/h (1 Bft) 96,43 %
10.04.2018 08:44 11,8 C 9,4 C 72 % 1001,3 hPa 0,0 l/m 1,4 km/h (1 Bft) SW 234 0 min 0,000 mm 0,0 UV-I 146 W/m 6,9 C 11,8 C 3,2 km/h (1 Bft) 100,00 %
10.04.2018 08:45 11,7 C 9,4 C 72 % 1001,3 hPa 0,0 l/m 2,2 km/h (1 Bft) SW 234 0 min 0,000 mm 0,0 UV-I 146 W/m 6,8 C 11,7 C 3,2 km/h (1 Bft) 93,33 %
10.04.2018 08:46 11,7 C 9,4 C 72 % 1001,4 hPa 0,0 l/m 2,0 km/h (1 Bft) SW 234 0 min 0,000 mm 0,0 UV-I 147 W/m 6,8 C 11,7 C 3,2 km/h (1 Bft) 100,00 %
10.04.2018 08:47 11,7 C 9,4 C 72 % 1001,4 hPa 0,0 l/m 1,5 km/h (1 Bft) SW 234 0 min 0,000 mm 0,0 UV-I 148 W/m 6,8 C 11,7 C 3,2 km/h (1 Bft) 96,15 %
10.04.2018 08:48 11,7 C 9,4 C 72 % 1001,3 hPa 0,0 l/m 1,1 km/h (1 Bft) SW 234 0 min 0,000 mm 0,2 UV-I 148 W/m 6,8 C 11,7 C 3,2 km/h (1 Bft) 96,30 %
10.04.2018 08:49 11,7 C 9,4 C 72 % 1001,3 hPa 0,0 l/m 0,4 km/h (0 Bft) SW 234 0 min 0,000 mm 0,5 UV-I 148 W/m 6,8 C 11,7 C 1,6 km/h (1 Bft) 95,65 %
10.04.2018 08:50 11,7 C 9,4 C 73 % 1001,3 hPa 0,0 l/m 1,1 km/h (1 Bft) SW 236 0 min 0,000 mm 0,5 UV-I 148 W/m 7,0 C 11,7 C 1,6 km/h (1 Bft) 92,31 %
10.04.2018 08:51 11,8 C 9,4 C 73 % 1001,3 hPa 0,0 l/m 0,0 km/h (0 Bft) SW 236 0 min 0,000 mm 0,5 UV-I 149 W/m 7,1 C 11,8 C 0,0 km/h (0 Bft) 100,00 %
10.04.2018 08:52 11,8 C 9,4 C 73 % 1001,3 hPa 0,0 l/m 0,0 km/h (0 Bft) SW 236 0 min 0,000 mm 0,5 UV-I 149 W/m 7,1 C 11,8 C 0,0 km/h (0 Bft) 95,83 %
10.04.2018 08:53 11,8 C 9,4 C 72 % 1001,3 hPa 0,0 l/m 0,0 km/h (0 Bft) SW 236 0 min 0,000 mm 0,5 UV-I 148 W/m 6,9 C 11,8 C 0,0 km/h (0 Bft) 100,00 %
10.04.2018 08:54 11,8 C 9,4 C 72 % 1001,4 hPa 0,0 l/m 1,4 km/h (1 Bft) SW 236 0 min 0,000 mm 0,5 UV-I 147 W/m 6,9 C 11,8 C 3,2 km/h (1 Bft) 95,83 %
10.04.2018 08:55 11,8 C 9,4 C 73 % 1001,4 hPa 0,0 l/m 1,7 km/h (1 Bft) SW 236 0 min 0,000 mm 0,5 UV-I 143 W/m 7,1 C 11,8 C 3,2 km/h (1 Bft) 100,00 %
10.04.2018 08:56 11,9 C 9,4 C 73 % 1001,4 hPa 0,0 l/m 1,4 km/h (1 Bft) SW 236 0 min 0,000 mm 0,5 UV-I 141 W/m 7,2 C 11,9 C 3,2 km/h (1 Bft) 95,83 %
10.04.2018 08:57 11,9 C 9,4 C 73 % 1001,4 hPa 0,0 l/m 2,0 km/h (1 Bft) SW 236 0 min 0,000 mm 0,5 UV-I 143 W/m 7,2 C 11,9 C 3,2 km/h (1 Bft) 96,15 %
10.04.2018 08:58 12,0 C 9,4 C 73 % 1001,4 hPa 0,0 l/m 1,4 km/h (1 Bft) SW 236 0 min 0,000 mm 0,5 UV-I 145 W/m 7,3 C 12,0 C 3,2 km/h (1 Bft) 97,78 %
10.04.2018 08:59 12,0 C 9,4 C 73 % 1001,4 hPa 0,0 l/m 0,5 km/h (0 Bft) SW 236 0 min 0,000 mm 0,5 UV-I 147 W/m 7,3 C 12,0 C 1,6 km/h (1 Bft) 97,37 %
10.04.2018 09:00 12,0 C 9,4 C 73 % 1001,4 hPa 0,0 l/m 0,5 km/h (0 Bft) SW 236 0 min 0,076 mm 0,5 UV-I 148 W/m 7,3 C 12,0 C 1,6 km/h (1 Bft) 96,30 %
10.04.2018 09:01 12,1 C 9,4 C 73 % 1001,4 hPa 0,0 l/m 0,9 km/h (0 Bft) SW 236 0 min 0,000 mm 0,5 UV-I 148 W/m 7,4 C 12,1 C 1,6 km/h (1 Bft) 96,15 %
10.04.2018 09:02 12,0 C 9,4 C 72 % 1001,4 hPa 0,0 l/m 0,0 km/h (0 Bft) SW 236 0 min 0,000 mm 0,5 UV-I 149 W/m 7,1 C 12,0 C 0,0 km/h (0 Bft) 100,00 %
10.04.2018 09:03 11,9 C 9,4 C 74 % 1001,4 hPa 0,0 l/m 1,9 km/h (1 Bft) SW 236 0 min 0,000 mm 0,5 UV-I 152 W/m 7,4 C 11,9 C 3,2 km/h (1 Bft) 92,31 %
10.04.2018 09:04 11,9 C 9,4 C 74 % 1001,5 hPa 0,0 l/m 2,5 km/h (1 Bft) SW 236 0 min 0,000 mm 0,5 UV-I 157 W/m 7,4 C 11,9 C 3,2 km/h (1 Bft) 100,00 %
10.04.2018 09:05 11,9 C 9,4 C 74 % 1001,5 hPa 0,0 l/m 1,2 km/h (1 Bft) SW 236 0 min 0,000 mm 0,5 UV-I 165 W/m 7,4 C 11,9 C 1,6 km/h (1 Bft) 92,31 %
10.04.2018 09:06 11,9 C 9,4 C 73 % 1001,5 hPa 0,0 l/m 0,9 km/h (0 Bft) SW 236 0 min 0,000 mm 0,5 UV-I 176 W/m 7,2 C 11,9 C 1,6 km/h (1 Bft) 100,00 %
10.04.2018 09:07 11,9 C 9,4 C 73 % 1001,5 hPa 0,0 l/m 1,5 km/h (1 Bft) SW 236 0 min 0,000 mm 0,5 UV-I 179 W/m 7,2 C 11,9 C 3,2 km/h (1 Bft) 91,30 %
10.04.2018 09:08 11,9 C 9,4 C 73 % 1001,5 hPa 0,0 l/m 0,8 km/h (0 Bft) SW 236 0 min 0,000 mm 0,5 UV-I 178 W/m 7,2 C 11,9 C 1,6 km/h (1 Bft) 95,83 %
10.04.2018 09:09 12,0 C 9,4 C 74 % 1001,5 hPa 0,0 l/m 0,0 km/h (0 Bft) SW 236 0 min 0,000 mm 0,5 UV-I 174 W/m 7,5 C 12,0 C 0,0 km/h (0 Bft) 100,00 %
10.04.2018 09:10 12,0 C 9,4 C 73 % 1001,5 hPa 0,0 l/m 0,0 km/h (0 Bft) SW 236 0 min 0,000 mm 0,5 UV-I 173 W/m 7,3 C 12,0 C 0,0 km/h (0 Bft) 95,83 %
10.04.2018 09:11 12,1 C 9,4 C 73 % 1001,5 hPa 0,0 l/m 0,0 km/h (0 Bft) SW 236 0 min 0,000 mm 0,5 UV-I 171 W/m 7,4 C 12,1 C 0,0 km/h (0 Bft) 100,00 %
10.04.2018 09:12 12,1 C 9,4 C 72 % 1001,5 hPa 0,0 l/m 0,3 km/h (0 Bft) SW 236 0 min 0,000 mm 0,5 UV-I 171 W/m 7,2 C 12,1 C 1,6 km/h (1 Bft) 95,65 %
10.04.2018 09:13 12,2 C 9,4 C 72 % 1001,5 hPa 0,0 l/m 2,7 km/h (1 Bft) SW 236 0 min 0,000 mm 0,5 UV-I 169 W/m 7,3 C 12,2 C 4,8 km/h (1 Bft) 100,00 %
10.04.2018 09:14 12,3 C 9,4 C 73 % 1001,5 hPa 0,0 l/m 1,9 km/h (1 Bft) SW 236 0 min 0,000 mm 0,5 UV-I 169 W/m 7,6 C 12,3 C 3,2 km/h (1 Bft) 91,30 %
10.04.2018 09:15 12,3 C 9,4 C 72 % 1001,5 hPa 0,0 l/m 4,4 km/h (1 Bft) W-SW 240 0 min 0,000 mm 0,5 UV-I 169 W/m 7,4 C 12,3 C 6,4 km/h (2 Bft) 100,00 %
10.04.2018 09:16 12,4 C 9,4 C 72 % 1001,4 hPa 0,0 l/m 3,3 km/h (1 Bft) W-SW 240 0 min 0,000 mm 0,5 UV-I 170 W/m 7,5 C 12,4 C 4,8 km/h (1 Bft) 96,15 %
10.04.2018 09:17 12,4 C 9,4 C 71 % 1001,5 hPa 0,0 l/m 2,8 km/h (1 Bft) W-SW 240 0 min 0,000 mm 0,5 UV-I 171 W/m 7,3 C 12,4 C 4,8 km/h (1 Bft) 100,00 %
10.04.2018 09:18 12,3 C 9,4 C 71 % 1001,5 hPa 0,0 l/m 2,5 km/h (1 Bft) W-SW 240 0 min 0,000 mm 0,5 UV-I 172 W/m 7,2 C 12,3 C 4,8 km/h (1 Bft) 95,65 %
10.04.2018 09:19 12,3 C 9,4 C 72 % 1001,4 hPa 0,0 l/m 3,3 km/h (1 Bft) W-SW 240 0 min 0,000 mm 0,6 UV-I 176 W/m 7,4 C 12,3 C 4,8 km/h (1 Bft) 100,00 %
10.04.2018 09:20 12,3 C 9,4 C 72 % 1001,5 hPa 0,0 l/m 3,7 km/h (1 Bft) O-NO 62 0 min 0,000 mm 0,6 UV-I 182 W/m 7,4 C 12,3 C 4,8 km/h (1 Bft) 95,65 %
10.04.2018 09:21 12,4 C 9,4 C 72 % 1001,5 hPa 0,0 l/m 3,4 km/h (1 Bft) O-NO 62 0 min 0,000 mm 0,6 UV-I 187 W/m 7,5 C 12,4 C 4,8 km/h (1 Bft) 91,67 %
10.04.2018 09:22 12,3 C 9,4 C 72 % 1001,5 hPa 0,0 l/m 3,3 km/h (1 Bft) O-NO 63 0 min 0,000 mm 0,6 UV-I 191 W/m 7,4 C 12,3 C 4,8 km/h (1 Bft) 91,30 %
10.04.2018 09:23 12,4 C 9,4 C 73 % 1001,5 hPa 0,0 l/m 1,9 km/h (1 Bft) O-NO 63 0 min 0,000 mm 0,6 UV-I 192 W/m 7,7 C 12,4 C 3,2 km/h (1 Bft) 95,83 %
10.04.2018 09:24 12,4 C 9,4 C 73 % 1001,4 hPa 0,0 l/m 2,4 km/h (1 Bft) O-NO 63 0 min 0,000 mm 0,6 UV-I 196 W/m 7,7 C 12,4 C 3,2 km/h (1 Bft) 100,00 %
10.04.2018 09:25 12,4 C 9,4 C 74 % 1001,4 hPa 0,0 l/m 3,4 km/h (1 Bft) O-NO 63 0 min 0,000 mm 0,6 UV-I 200 W/m 7,9 C 12,4 C 4,8 km/h (1 Bft) 96,30 %
10.04.2018 09:26 12,5 C 9,4 C 72 % 1001,4 hPa 0,0 l/m 2,8 km/h (1 Bft) O-NO 63 0 min 0,000 mm 0,6 UV-I 205 W/m 7,6 C 12,5 C 3,2 km/h (1 Bft) 100,00 %
10.04.2018 09:27 12,6 C 9,4 C 72 % 1001,4 hPa 0,0 l/m 2,8 km/h (1 Bft) O-NO 62 0 min 0,000 mm 0,6 UV-I 211 W/m 7,7 C 12,6 C 3,2 km/h (1 Bft) 97,14 %
10.04.2018 09:28 12,6 C 9,4 C 72 % 1001,4 hPa 0,0 l/m 2,3 km/h (1 Bft) O-NO 62 0 min 0,000 mm 0,6 UV-I 214 W/m 7,7 C 12,6 C 3,2 km/h (1 Bft) 100,00 %
10.04.2018 09:29 12,6 C 9,4 C 71 % 1001,4 hPa 0,0 l/m 0,6 km/h (0 Bft) O-NO 62 0 min 0,000 mm 0,6 UV-I 218 W/m 7,5 C 12,6 C 1,6 km/h (1 Bft) 96,15 %
10.04.2018 09:30 12,6 C 9,4 C 71 % 1001,4 hPa 0,0 l/m 0,6 km/h (0 Bft) O-NO 62 0 min 0,000 mm 0,7 UV-I 221 W/m 7,5 C 12,6 C 1,6 km/h (1 Bft) 96,67 %
10.04.2018 09:31 12,5 C 9,4 C 71 % 1001,4 hPa 0,0 l/m 0,6 km/h (0 Bft) O-NO 65 0 min 0,000 mm 0,7 UV-I 223 W/m 7,4 C 12,5 C 1,6 km/h (1 Bft) 100,00 %
10.04.2018 09:32 12,5 C 9,4 C 71 % 1001,4 hPa 0,0 l/m 0,8 km/h (0 Bft) O-NO 65 0 min 0,000 mm 0,7 UV-I 223 W/m 7,4 C 12,5 C 1,6 km/h (1 Bft) 95,83 %
10.04.2018 09:33 12,5 C 9,4 C 72 % 1001,4 hPa 0,0 l/m 1,4 km/h (1 Bft) O-NO 65 0 min 0,000 mm 0,7 UV-I 220 W/m 7,6 C 12,5 C 3,2 km/h (1 Bft) 92,86 %
10.04.2018 09:34 12,6 C 9,4 C 73 % 1001,3 hPa 0,0 l/m 1,3 km/h (1 Bft) O-NO 65 0 min 0,000 mm 0,7 UV-I 216 W/m 7,9 C 12,6 C 3,2 km/h (1 Bft) 96,30 %
10.04.2018 09:35 12,7 C 9,4 C 71 % 1001,3 hPa 0,0 l/m 0,2 km/h (0 Bft) O-NO 65 0 min 0,000 mm 0,8 UV-I 214 W/m 7,6 C 12,7 C 1,6 km/h (1 Bft) 100,00 %
10.04.2018 09:36 12,8 C 9,4 C 72 % 1001,3 hPa 0,0 l/m 0,6 km/h (0 Bft) O-NO 65 0 min 0,000 mm 0,8 UV-I 214 W/m 7,9 C 12,8 C 1,6 km/h (1 Bft) 96,67 %
10.04.2018 09:37 12,8 C 9,4 C 71 % 1001,3 hPa 0,0 l/m 1,7 km/h (1 Bft) O-NO 65 0 min 0,000 mm 0,8 UV-I 207 W/m 7,7 C 12,8 C 3,2 km/h (1 Bft) 100,00 %
10.04.2018 09:38 12,8 C 9,4 C 70 % 1001,4 hPa 0,0 l/m 1,2 km/h (1 Bft) O-NO 65 0 min 0,000 mm 0,8 UV-I 198 W/m 7,5 C 12,8 C 1,6 km/h (1 Bft) 91,67 %
10.04.2018 09:39 12,8 C 9,4 C 71 % 1001,4 hPa 0,0 l/m 1,6 km/h (1 Bft) O-NO 65 0 min 0,000 mm 0,8 UV-I 192 W/m 7,7 C 12,8 C 3,2 km/h (1 Bft) 96,15 %
10.04.2018 09:40 12,8 C 9,4 C 70 % 1001,4 hPa 0,0 l/m 2,0 km/h (1 Bft) O-NO 65 0 min 0,000 mm 0,8 UV-I 190 W/m 7,5 C 12,8 C 3,2 km/h (1 Bft) 100,00 %
10.04.2018 09:41 12,8 C 9,4 C 71 % 1001,4 hPa 0,0 l/m 3,0 km/h (1 Bft) O-NO 65 0 min 0,000 mm 0,8 UV-I 188 W/m 7,7 C 12,8 C 3,2 km/h (1 Bft) 96,15 %
10.04.2018 09:42 12,8 C 9,4 C 70 % 1001,4 hPa 0,0 l/m 1,5 km/h (1 Bft) O-NO 65 0 min 0,000 mm 0,8 UV-I 190 W/m 7,5 C 12,8 C 3,2 km/h (1 Bft) 100,00 %
10.04.2018 09:43 12,7 C 9,4 C 70 % 1001,4 hPa 0,0 l/m 2,1 km/h (1 Bft) O-NO 65 0 min 0,000 mm 0,8 UV-I 190 W/m 7,4 C 12,7 C 3,2 km/h (1 Bft) 96,30 %
10.04.2018 09:44 12,7 C 9,4 C 71 % 1001,4 hPa 0,0 l/m 1,8 km/h (1 Bft) O-NO 65 0 min 0,000 mm 0,8 UV-I 192 W/m 7,6 C 12,7 C 3,2 km/h (1 Bft) 100,00 %
10.04.2018 09:45 12,8 C 9,4 C 72 % 1001,4 hPa 0,0 l/m 3,6 km/h (1 Bft) O-NO 65 0 min 0,000 mm 0,8 UV-I 193 W/m 7,9 C 12,8 C 4,8 km/h (1 Bft) 92,31 %
10.04.2018 09:46 12,8 C 9,4 C 70 % 1001,4 hPa 0,0 l/m 3,0 km/h (1 Bft) O-NO 65 0 min 0,000 mm 0,8 UV-I 194 W/m 7,5 C 12,8 C 4,8 km/h (1 Bft) 100,00 %
10.04.2018 09:47 12,8 C 9,4 C 71 % 1001,4 hPa 0,0 l/m 1,9 km/h (1 Bft) O-NO 65 0 min 0,000 mm 0,8 UV-I 195 W/m 7,7 C 12,8 C 3,2 km/h (1 Bft) 95,65 %
10.04.2018 09:48 12,8 C 9,4 C 71 % 1001,4 hPa 0,0 l/m 1,8 km/h (1 Bft) O-NO 65 0 min 0,000 mm 0,8 UV-I 199 W/m 7,7 C 12,8 C 3,2 km/h (1 Bft) 100,00 %
10.04.2018 09:49 12,9 C 9,4 C 70 % 1001,4 hPa 0,0 l/m 1,7 km/h (1 Bft) O-NO 65 0 min 0,000 mm 0,8 UV-I 209 W/m 7,6 C 12,9 C 3,2 km/h (1 Bft) 93,33 %
10.04.2018 09:50 12,9 C 9,4 C 71 % 1001,4 hPa 0,0 l/m 1,4 km/h (1 Bft) O-NO 65 0 min 0,000 mm 0,9 UV-I 221 W/m 7,8 C 12,9 C 3,2 km/h (1 Bft) 100,00 %
10.04.2018 09:51 13,1 C 9,4 C 72 % 1001,4 hPa 0,0 l/m 0,9 km/h (0 Bft) O-NO 65 0 min 0,000 mm 0,9 UV-I 233 W/m 8,2 C 13,1 C 1,6 km/h (1 Bft) 95,83 %
10.04.2018 09:52 13,2 C 9,4 C 71 % 1001,4 hPa 0,0 l/m 0,8 km/h (0 Bft) O-NO 65 0 min 0,000 mm 0,9 UV-I 243 W/m 8,1 C 13,2 C 1,6 km/h (1 Bft) 100,00 %
10.04.2018 09:53 13,3 C 9,4 C 71 % 1001,4 hPa 0,0 l/m 1,0 km/h (0 Bft) O-NO 65 0 min 0,000 mm 0,9 UV-I 252 W/m 8,2 C 13,3 C 1,6 km/h (1 Bft) 95,83 %
10.04.2018 09:54 13,4 C 9,4 C 70 % 1001,4 hPa 0,0 l/m 0,4 km/h (0 Bft) O-NO 65 0 min 0,000 mm 1,0 UV-I 259 W/m 8,0 C 13,4 C 1,6 km/h (1 Bft) 96,55 %
10.04.2018 09:55 13,4 C 9,4 C 70 % 1001,4 hPa 0,0 l/m 0,1 km/h (0 Bft) O-NO 65 0 min 0,000 mm 1,0 UV-I 266 W/m 8,0 C 13,4 C 1,6 km/h (1 Bft) 100,00 %
10.04.2018 09:56 13,5 C 9,4 C 70 % 1001,4 hPa 0,0 l/m 0,1 km/h (0 Bft) O-NO 65 0 min 0,000 mm 1,0 UV-I 273 W/m 8,1 C 13,5 C 1,6 km/h (1 Bft) 95,65 %
10.04.2018 09:57 13,5 C 9,4 C 68 % 1001,4 hPa 0,0 l/m 0,0 km/h (0 Bft) O-NO 65 0 min 0,000 mm 1,0 UV-I 282 W/m 7,7 C 13,5 C 0,0 km/h (0 Bft) 100,00 %
10.04.2018 09:58 13,6 C 9,4 C 67 % 1001,4 hPa 0,0 l/m 0,0 km/h (0 Bft) O-NO 65 0 min 0,000 mm 1,1 UV-I 290 W/m 7,6 C 13,6 C 0,0 km/h (0 Bft) 96,15 %
10.04.2018 09:59 13,6 C 9,4 C 67 % 1001,4 hPa 0,0 l/m 0,9 km/h (0 Bft) O-NO 57 0 min 0,000 mm 1,1 UV-I 304 W/m 7,6 C 13,6 C 3,2 km/h (1 Bft) 100,00 %
10.04.2018 10:00 13,6 C 9,4 C 68 % 1001,4 hPa 0,0 l/m 2,1 km/h (1 Bft) NO 53 1 min 0,000 mm 1,2 UV-I 308 W/m 7,8 C 13,6 C 3,2 km/h (1 Bft) 96,15 %
10.04.2018 10:02 13,6 C 9,4 C 68 % 1001,5 hPa 0,0 l/m 2,0 km/h (1 Bft) NO 55 2 min 0,101 mm 1,2 UV-I 359 W/m 7,8 C 13,6 C 3,2 km/h (1 Bft) 95,74 %
10.04.2018 10:03 13,6 C 9,4 C 67 % 1001,5 hPa 0,0 l/m 2,5 km/h (1 Bft) NO 55 1 min 0,000 mm 1,2 UV-I 403 W/m 7,6 C 13,6 C 3,2 km/h (1 Bft) 96,30 %
10.04.2018 10:04 13,7 C 9,4 C 68 % 1001,5 hPa 0,0 l/m 3,2 km/h (1 Bft) NO 55 1 min 0,000 mm 1,3 UV-I 423 W/m 7,9 C 13,7 C 4,8 km/h (1 Bft) 95,65 %
10.04.2018 10:05 13,7 C 9,4 C 67 % 1001,5 hPa 0,0 l/m 2,8 km/h (1 Bft) NO 56 1 min 0,000 mm 1,4 UV-I 489 W/m 7,7 C 13,7 C 4,8 km/h (1 Bft) 91,67 %
10.04.2018 10:07 13,9 C 9,4 C 70 % 1001,5 hPa 0,0 l/m 4,9 km/h (1 Bft) O-NO 78 2 min 0,000 mm 1,6 UV-I 594 W/m 8,5 C 13,9 C 8,0 km/h (2 Bft) 97,56 %
10.04.2018 10:08 13,9 C 9,4 C 68 % 1001,5 hPa 0,0 l/m 5,5 km/h (1 Bft) O-NO 73 1 min 0,000 mm 1,5 UV-I 617 W/m 8,1 C 13,9 C 6,4 km/h (2 Bft) 100,00 %
10.04.2018 10:09 13,8 C 9,4 C 68 % 1001,5 hPa 0,0 l/m 4,8 km/h (1 Bft) O 79 1 min 0,000 mm 1,4 UV-I 617 W/m 8,0 C 13,8 C 6,4 km/h (2 Bft) 95,65 %
10.04.2018 10:10 13,9 C 9,4 C 68 % 1001,5 hPa 0,0 l/m 4,5 km/h (1 Bft) O 80 1 min 0,000 mm 1,5 UV-I 617 W/m 8,1 C 13,9 C 6,4 km/h (2 Bft) 100,00 %
10.04.2018 10:12 14,2 C 9,4 C 69 % 1001,6 hPa 0,0 l/m 5,4 km/h (1 Bft) O-NO 78 2 min 0,000 mm 1,5 UV-I 594 W/m 8,6 C 14,2 C 8,0 km/h (2 Bft) 95,74 %
10.04.2018 10:13 14,2 C 9,4 C 67 % 1001,6 hPa 0,0 l/m 5,6 km/h (1 Bft) O-NO 68 1 min 0,000 mm 1,3 UV-I 334 W/m 8,2 C 14,2 C 8,0 km/h (2 Bft) 95,65 %
10.04.2018 10:14 14,3 C 9,4 C 69 % 1001,6 hPa 0,0 l/m 6,0 km/h (2 Bft) O-NO 72 0 min 0,000 mm 1,3 UV-I 322 W/m 8,7 C 14,3 C 8,0 km/h (2 Bft) 100,00 %
10.04.2018 10:15 14,3 C 9,4 C 69 % 1001,6 hPa 0,0 l/m 5,4 km/h (1 Bft) O 92 0 min 0,000 mm 1,3 UV-I 318 W/m 8,7 C 14,3 C 6,4 km/h (2 Bft) 92,31 %
10.04.2018 10:16 14,2 C 9,4 C 67 % 1001,6 hPa 0,0 l/m 4,6 km/h (1 Bft) O-NO 74 0 min 0,000 mm 1,3 UV-I 315 W/m 8,2 C 14,2 C 6,4 km/h (2 Bft) 95,83 %
10.04.2018 10:17 14,2 C 9,4 C 68 % 1001,6 hPa 0,0 l/m 6,4 km/h (2 Bft) O-NO 67 0 min 0,000 mm 1,3 UV-I 317 W/m 8,4 C 14,2 C 8,0 km/h (2 Bft) 100,00 %
10.04.2018 10:18 14,2 C 9,4 C 69 % 1001,6 hPa 0,0 l/m 5,1 km/h (1 Bft) NO 54 0 min 0,000 mm 1,3 UV-I 326 W/m 8,6 C 14,2 C 6,4 km/h (2 Bft) 100,00 %
10.04.2018 10:19 14,2 C 9,4 C 69 % 1001,6 hPa 0,0 l/m 4,8 km/h (1 Bft) O-NO 65 1 min 0,000 mm 1,3 UV-I 335 W/m 8,6 C 14,2 C 6,4 km/h (2 Bft) 100,00 %
10.04.2018 10:20 14,2 C 9,4 C 67 % 1001,6 hPa 0,0 l/m 4,3 km/h (1 Bft) N-NO 23 1 min 0,000 mm 1,3 UV-I 337 W/m 8,2 C 14,2 C 4,8 km/h (1 Bft) 91,67 %
10.04.2018 10:21 14,1 C 9,4 C 68 % 1001,6 hPa 0,0 l/m 4,0 km/h (1 Bft) NO 38 1 min 0,000 mm 1,3 UV-I 334 W/m 8,3 C 14,1 C 4,8 km/h (1 Bft) 96,55 %
10.04.2018 10:22 14,2 C 9,4 C 68 % 1001,6 hPa 0,0 l/m 4,5 km/h (1 Bft) NO 55 0 min 0,000 mm 1,3 UV-I 329 W/m 8,4 C 14,2 C 6,4 km/h (2 Bft) 96,30 %
10.04.2018 10:23 14,2 C 9,4 C 69 % 1001,6 hPa 0,0 l/m 5,4 km/h (1 Bft) O-NO 74 0 min 0,000 mm 1,3 UV-I 323 W/m 8,6 C 14,2 C 8,0 km/h (2 Bft) 100,00 %
10.04.2018 10:24 14,2 C 9,4 C 66 % 1001,6 hPa 0,0 l/m 5,0 km/h (1 Bft) O-NO 71 0 min 0,000 mm 1,3 UV-I 320 W/m 7,9 C 14,2 C 6,4 km/h (2 Bft) 95,83 %
10.04.2018 10:25 14,2 C 9,4 C 67 % 1001,6 hPa 0,0 l/m 4,3 km/h (1 Bft) O-NO 58 0 min 0,000 mm 1,3 UV-I 330 W/m 8,2 C 14,2 C 6,4 km/h (2 Bft) 100,00 %
10.04.2018 10:26 14,3 C 9,4 C 68 % 1001,6 hPa 0,0 l/m 6,1 km/h (2 Bft) O-NO 63 0 min 0,000 mm 1,3 UV-I 302 W/m 8,5 C 14,3 C 6,4 km/h (2 Bft) 96,55 %
10.04.2018 10:27 14,4 C 9,4 C 68 % 1001,6 hPa 0,0 l/m 4,7 km/h (1 Bft) O-NO 63 0 min 0,000 mm 1,3 UV-I 294 W/m 8,6 C 14,4 C 6,4 km/h (2 Bft) 96,30 %
10.04.2018 10:28 14,5 C 9,4 C 67 % 1001,6 hPa 0,0 l/m 6,5 km/h (2 Bft) NO 52 0 min 0,000 mm 1,2 UV-I 288 W/m 8,4 C 14,5 C 8,0 km/h (2 Bft) 100,00 %
10.04.2018 10:29 14,4 C 9,4 C 67 % 1001,6 hPa 0,0 l/m 5,7 km/h (1 Bft) O-NO 70 0 min 0,000 mm 1,2 UV-I 283 W/m 8,4 C 14,4 C 6,4 km/h (2 Bft) 100,00 %
10.04.2018 10:30 14,5 C 9,4 C 67 % 1001,6 hPa 0,0 l/m 4,6 km/h (1 Bft) O-NO 66 0 min 0,000 mm 1,3 UV-I 308 W/m 8,4 C 14,5 C 6,4 km/h (2 Bft) 97,56 %
10.04.2018 10:31 14,6 C 9,4 C 67 % 1001,6 hPa 0,0 l/m 4,5 km/h (1 Bft) O-NO 66 0 min 0,000 mm 1,3 UV-I 284 W/m 8,5 C 14,6 C 4,8 km/h (1 Bft) 96,30 %
10.04.2018 10:32 14,6 C 9,4 C 65 % 1001,6 hPa 0,0 l/m 4,2 km/h (1 Bft) O-NO 67 0 min 0,000 mm 1,2 UV-I 286 W/m 8,1 C 14,6 C 4,8 km/h (1 Bft) 100,00 %
10.04.2018 10:33 14,5 C 9,4 C 65 % 1001,6 hPa 0,0 l/m 2,9 km/h (1 Bft) O-NO 78 0 min 0,000 mm 1,2 UV-I 295 W/m 8,0 C 14,5 C 4,8 km/h (1 Bft) 96,30 %
10.04.2018 10:34 14,4 C 9,4 C 65 % 1001,6 hPa 0,0 l/m 2,9 km/h (1 Bft) O-NO 78 0 min 0,000 mm 1,3 UV-I 301 W/m 7,9 C 14,4 C 4,8 km/h (1 Bft) 96,15 %
10.04.2018 10:35 14,4 C 9,4 C 66 % 1001,6 hPa 0,0 l/m 2,0 km/h (1 Bft) O-NO 78 0 min 0,000 mm 1,3 UV-I 307 W/m 8,1 C 14,4 C 3,2 km/h (1 Bft) 100,00 %
10.04.2018 10:36 14,4 C 9,4 C 66 % 1001,6 hPa 0,0 l/m 1,7 km/h (1 Bft) O 83 0 min 0,000 mm 1,3 UV-I 311 W/m 8,1 C 14,4 C 3,2 km/h (1 Bft) 95,65 %
10.04.2018 10:37 14,4 C 9,4 C 67 % 1001,7 hPa 0,0 l/m 3,9 km/h (1 Bft) O 88 0 min 0,000 mm 1,3 UV-I 311 W/m 8,4 C 14,4 C 4,8 km/h (1 Bft) 100,00 %
10.04.2018 10:38 14,3 C 9,4 C 66 % 1001,7 hPa 0,0 l/m 4,0 km/h (1 Bft) O 85 0 min 0,000 mm 1,3 UV-I 311 W/m 8,0 C 14,3 C 4,8 km/h (1 Bft) 95,65 %
10.04.2018 10:39 14,3 C 9,4 C 66 % 1001,7 hPa 0,0 l/m 3,9 km/h (1 Bft) O 84 0 min 0,000 mm 1,3 UV-I 312 W/m 8,0 C 14,3 C 4,8 km/h (1 Bft) 100,00 %
10.04.2018 10:40 14,3 C 9,4 C 66 % 1001,7 hPa 0,0 l/m 3,1 km/h (1 Bft) O 85 0 min 0,000 mm 1,3 UV-I 315 W/m 8,0 C 14,3 C 4,8 km/h (1 Bft) 95,65 %
10.04.2018 10:41 14,3 C 9,4 C 66 % 1001,7 hPa 0,0 l/m 3,6 km/h (1 Bft) O 80 0 min 0,000 mm 1,3 UV-I 322 W/m 8,0 C 14,3 C 6,4 km/h (2 Bft) 100,00 %
10.04.2018 10:42 14,3 C 9,4 C 67 % 1001,7 hPa 0,0 l/m 3,8 km/h (1 Bft) O 80 0 min 0,000 mm 1,3 UV-I 330 W/m 8,3 C 14,3 C 4,8 km/h (1 Bft) 93,33 %
10.04.2018 10:43 14,4 C 9,4 C 66 % 1001,7 hPa 0,0 l/m 4,5 km/h (1 Bft) O 79 0 min 0,000 mm 1,3 UV-I 335 W/m 8,1 C 14,4 C 6,4 km/h (2 Bft) 96,55 %
10.04.2018 10:44 14,6 C 9,4 C 66 % 1001,7 hPa 0,0 l/m 4,2 km/h (1 Bft) O 82 0 min 0,000 mm 1,3 UV-I 337 W/m 8,3 C 14,6 C 6,4 km/h (2 Bft) 100,00 %
10.04.2018 10:45 14,7 C 9,4 C 67 % 1001,7 hPa 0,0 l/m 5,7 km/h (1 Bft) O 85 0 min 0,000 mm 1,3 UV-I 336 W/m 8,6 C 14,7 C 6,4 km/h (2 Bft) 95,65 %
10.04.2018 10:46 14,7 C 9,4 C 64 % 1001,7 hPa 0,0 l/m 4,9 km/h (1 Bft) O 90 0 min 0,000 mm 1,3 UV-I 326 W/m 8,0 C 14,7 C 8,0 km/h (2 Bft) 100,00 %
10.04.2018 10:47 14,7 C 9,4 C 63 % 1001,7 hPa 0,0 l/m 4,6 km/h (1 Bft) O 98 0 min 0,000 mm 1,2 UV-I 310 W/m 7,7 C 14,7 C 6,4 km/h (2 Bft) 96,15 %
10.04.2018 10:48 14,6 C 9,4 C 64 % 1001,8 hPa 0,0 l/m 3,8 km/h (1 Bft) O-NO 62 0 min 0,000 mm 1,2 UV-I 295 W/m 7,9 C 14,6 C 6,4 km/h (2 Bft) 100,00 %
10.04.2018 10:49 14,6 C 9,4 C 64 % 1001,8 hPa 0,0 l/m 5,3 km/h (1 Bft) O-NO 75 0 min 0,000 mm 1,2 UV-I 284 W/m 7,9 C 14,6 C 8,0 km/h (2 Bft) 95,65 %
10.04.2018 10:50 14,7 C 9,4 C 66 % 1001,8 hPa 0,0 l/m 6,8 km/h (2 Bft) O 98 0 min 0,000 mm 1,1 UV-I 274 W/m 8,4 C 14,5 C 9,7 km/h (2 Bft) 96,30 %
10.04.2018 10:51 14,7 C 9,4 C 63 % 1001,8 hPa 0,0 l/m 7,5 km/h (2 Bft) O-NO 77 0 min 0,000 mm 1,1 UV-I 268 W/m 7,7 C 14,1 C 9,7 km/h (2 Bft) 100,00 %
10.04.2018 10:52 14,8 C 9,4 C 63 % 1001,8 hPa 0,0 l/m 6,8 km/h (2 Bft) O 79 0 min 0,000 mm 1,1 UV-I 264 W/m 7,8 C 14,6 C 8,0 km/h (2 Bft) 96,55 %
10.04.2018 10:53 14,8 C 9,4 C 63 % 1001,8 hPa 0,0 l/m 6,3 km/h (2 Bft) O 89 0 min 0,000 mm 1,1 UV-I 262 W/m 7,8 C 14,8 C 8,0 km/h (2 Bft) 100,00 %
10.04.2018 10:54 14,8 C 9,4 C 63 % 1001,8 hPa 0,0 l/m 6,6 km/h (2 Bft) O-NO 74 0 min 0,000 mm 1,1 UV-I 262 W/m 7,8 C 14,7 C 8,0 km/h (2 Bft) 95,83 %
10.04.2018 10:55 14,8 C 9,4 C 63 % 1001,8 hPa 0,0 l/m 7,4 km/h (2 Bft) O-NO 74 0 min 0,000 mm 1,1 UV-I 262 W/m 7,8 C 14,2 C 11,3 km/h (2 Bft) 100,00 %
10.04.2018 10:56 14,9 C 9,4 C 65 % 1001,8 hPa 0,0 l/m 6,6 km/h (2 Bft) O-NO 73 0 min 0,000 mm 1,1 UV-I 264 W/m 8,4 C 14,8 C 8,0 km/h (2 Bft) 93,33 %
10.04.2018 10:57 14,9 C 9,4 C 64 % 1001,8 hPa 0,0 l/m 5,4 km/h (1 Bft) O 82 0 min 0,000 mm 1,1 UV-I 266 W/m 8,2 C 14,9 C 8,0 km/h (2 Bft) 100,00 %
10.04.2018 10:58 14,9 C 9,4 C 65 % 1001,8 hPa 0,0 l/m 5,9 km/h (2 Bft) O 88 0 min 0,000 mm 1,1 UV-I 268 W/m 8,4 C 14,9 C 8,0 km/h (2 Bft) 97,37 %
10.04.2018 10:59 14,9 C 9,4 C 64 % 1001,8 hPa 0,0 l/m 7,0 km/h (2 Bft) O-SO 115 0 min 0,000 mm 1,1 UV-I 272 W/m 8,2 C 14,6 C 11,3 km/h (2 Bft) 100,00 %
10.04.2018 11:00 14,9 C 9,4 C 63 % 1001,8 hPa 0,0 l/m 6,4 km/h (2 Bft) O 94 0 min 0,204 mm 1,1 UV-I 276 W/m 7,9 C 14,9 C 9,7 km/h (2 Bft) 95,83 %
10.04.2018 11:01 14,9 C 9,4 C 62 % 1001,8 hPa 0,0 l/m 7,0 km/h (2 Bft) O 88 0 min 0,000 mm 1,1 UV-I 278 W/m 7,7 C 14,6 C 9,7 km/h (2 Bft) 91,30 %
10.04.2018 11:02 15,0 C 9,4 C 61 % 1001,8 hPa 0,0 l/m 6,0 km/h (2 Bft) O 98 0 min 0,000 mm 1,1 UV-I 276 W/m 7,5 C 15,0 C 9,7 km/h (2 Bft) 100,00 %
10.04.2018 11:03 15,0 C 9,4 C 62 % 1001,9 hPa 0,0 l/m 5,3 km/h (1 Bft) O-SO 105 0 min 0,000 mm 1,1 UV-I 270 W/m 7,8 C 15,0 C 9,7 km/h (2 Bft) 100,00 %
10.04.2018 11:04 15,1 C 9,4 C 63 % 1001,8 hPa 0,0 l/m 6,6 km/h (2 Bft) O-NO 78 0 min 0,000 mm 1,1 UV-I 262 W/m 8,1 C 15,0 C 9,7 km/h (2 Bft) 100,00 %
10.04.2018 11:05 15,1 C 9,4 C 62 % 1001,9 hPa 0,0 l/m 8,4 km/h (2 Bft) O-NO 75 0 min 0,000 mm 1,1 UV-I 254 W/m 7,9 C 14,0 C 11,3 km/h (2 Bft) 100,00 %
10.04.2018 11:06 15,1 C 9,4 C 64 % 1001,9 hPa 0,0 l/m 6,8 km/h (2 Bft) O-NO 71 0 min 0,000 mm 1,0 UV-I 249 W/m 8,3 C 14,9 C 9,7 km/h (2 Bft) 95,65 %
10.04.2018 11:07 15,2 C 9,4 C 63 % 1001,9 hPa 0,0 l/m 4,6 km/h (1 Bft) O-NO 74 0 min 0,000 mm 1,0 UV-I 245 W/m 8,2 C 15,2 C 6,4 km/h (2 Bft) 100,00 %
10.04.2018 11:08 15,2 C 9,4 C 65 % 1001,9 hPa 0,0 l/m 5,5 km/h (1 Bft) O-NO 71 0 min 0,000 mm 1,0 UV-I 244 W/m 8,7 C 15,2 C 6,4 km/h (2 Bft) 100,00 %
10.04.2018 11:09 15,2 C 9,4 C 65 % 1001,9 hPa 0,0 l/m 8,7 km/h (2 Bft) O 86 0 min 0,000 mm 1,0 UV-I 245 W/m 8,7 C 14,0 C 12,9 km/h (3 Bft) 95,83 %
10.04.2018 11:10 15,2 C 9,4 C 65 % 1001,9 hPa 0,0 l/m 8,9 km/h (2 Bft) O-NO 65 0 min 0,000 mm 1,0 UV-I 249 W/m 8,7 C 13,9 C 11,3 km/h (2 Bft) 92,31 %
10.04.2018 11:11 15,3 C 9,4 C 66 % 1001,9 hPa 0,0 l/m 9,1 km/h (2 Bft) O-NO 73 0 min 0,000 mm 1,0 UV-I 255 W/m 9,0 C 13,9 C 12,9 km/h (3 Bft) 100,00 %
10.04.2018 11:12 15,3 C 9,4 C 66 % 1001,9 hPa 0,0 l/m 8,4 km/h (2 Bft) O 84 0 min 0,000 mm 1,1 UV-I 260 W/m 9,0 C 14,2 C 11,3 km/h (2 Bft) 95,65 %
10.04.2018 11:13 15,3 C 9,4 C 65 % 1001,9 hPa 0,0 l/m 7,2 km/h (2 Bft) O-NO 74 0 min 0,000 mm 1,1 UV-I 264 W/m 8,8 C 14,9 C 9,7 km/h (2 Bft) 100,00 %
10.04.2018 11:14 15,3 C 9,4 C 66 % 1001,9 hPa 0,0 l/m 7,2 km/h (2 Bft) O-NO 74 0 min 0,000 mm 1,1 UV-I 264 W/m 9,0 C 14,9 C 11,3 km/h (2 Bft) 100,00 %
10.04.2018 11:15 15,3 C 9,4 C 64 % 1001,9 hPa 0,0 l/m 7,6 km/h (2 Bft) O 80 0 min 0,000 mm 1,1 UV-I 264 W/m 8,5 C 14,6 C 11,3 km/h (2 Bft) 100,00 %
10.04.2018 11:16 15,3 C 9,4 C 64 % 1001,9 hPa 0,0 l/m 9,6 km/h (2 Bft) O 94 0 min 0,000 mm 1,1 UV-I 264 W/m 8,5 C 13,6 C 16,1 km/h (3 Bft) 100,00 %
10.04.2018 11:17 15,3 C 9,4 C 64 % 1001,9 hPa 0,0 l/m 9,0 km/h (2 Bft) O 87 0 min 0,000 mm 1,1 UV-I 264 W/m 8,5 C 13,9 C 12,9 km/h (3 Bft) 95,83 %
10.04.2018 11:18 15,4 C 9,4 C 64 % 1001,9 hPa 0,0 l/m 6,7 km/h (2 Bft) O 92 0 min 0,000 mm 1,1 UV-I 264 W/m 8,6 C 15,2 C 9,7 km/h (2 Bft) 100,00 %
10.04.2018 11:19 15,4 C 9,4 C 64 % 1001,9 hPa 0,0 l/m 9,0 km/h (2 Bft) O-NO 67 0 min 0,000 mm 1,1 UV-I 264 W/m 8,6 C 14,0 C 11,3 km/h (2 Bft) 100,00 %
10.04.2018 11:20 15,4 C 9,4 C 65 % 1001,9 hPa 0,0 l/m 9,2 km/h (2 Bft) O-NO 75 0 min 0,000 mm 1,1 UV-I 265 W/m 8,9 C 13,9 C 12,9 km/h (3 Bft) 100,00 %
10.04.2018 11:21 15,5 C 9,4 C 63 % 1001,9 hPa 0,0 l/m 7,6 km/h (2 Bft) O 89 0 min 0,000 mm 1,1 UV-I 265 W/m 8,5 C 14,8 C 9,7 km/h (2 Bft) 100,00 %
10.04.2018 11:22 15,5 C 9,4 C 64 % 1001,9 hPa 0,0 l/m 8,2 km/h (2 Bft) NO 55 0 min 0,000 mm 1,1 UV-I 264 W/m 8,7 C 14,5 C 11,3 km/h (2 Bft) 100,00 %
10.04.2018 11:23 15,6 C 9,4 C 63 % 1001,9 hPa 0,0 l/m 7,8 km/h (2 Bft) NO 48 0 min 0,000 mm 1,1 UV-I 264 W/m 8,6 C 14,8 C 11,3 km/h (2 Bft) 100,00 %
10.04.2018 11:24 15,6 C 9,4 C 63 % 1001,9 hPa 0,0 l/m 7,8 km/h (2 Bft) O-NO 61 0 min 0,000 mm 1,1 UV-I 264 W/m 8,6 C 14,8 C 11,3 km/h (2 Bft) 100,00 %
10.04.2018 11:25 15,6 C 9,4 C 63 % 1001,9 hPa 0,0 l/m 9,0 km/h (2 Bft) O-NO 65 0 min 0,000 mm 1,2 UV-I 264 W/m 8,6 C 14,2 C 12,9 km/h (3 Bft) 92,31 %
10.04.2018 11:26 15,6 C 9,4 C 65 % 1001,9 hPa 0,0 l/m 9,6 km/h (2 Bft) NO 54 0 min 0,000 mm 1,2 UV-I 265 W/m 9,0 C 14,0 C 12,9 km/h (3 Bft) 100,00 %
10.04.2018 11:27 15,7 C 9,4 C 63 % 1001,9 hPa 0,0 l/m 7,5 km/h (2 Bft) NO 40 0 min 0,000 mm 1,2 UV-I 265 W/m 8,7 C 15,1 C 11,3 km/h (2 Bft) 100,00 %
10.04.2018 11:28 15,8 C 9,4 C 63 % 1001,9 hPa 0,0 l/m 7,2 km/h (2 Bft) O-NO 57 0 min 0,000 mm 1,2 UV-I 265 W/m 8,8 C 15,4 C 9,7 km/h (2 Bft) 100,00 %
10.04.2018 11:29 15,8 C 9,4 C 64 % 1001,9 hPa 0,0 l/m 7,0 km/h (2 Bft) O-NO 77 0 min 0,000 mm 1,2 UV-I 265 W/m 9,0 C 15,5 C 12,9 km/h (3 Bft) 100,00 %
10.04.2018 11:30 15,8 C 9,4 C 62 % 1001,9 hPa 0,0 l/m 6,4 km/h (2 Bft) O 82 0 min 0,000 mm 1,2 UV-I 267 W/m 8,5 C 15,8 C 12,9 km/h (3 Bft) 95,83 %
10.04.2018 11:31 15,8 C 9,4 C 62 % 1001,9 hPa 0,0 l/m 8,2 km/h (2 Bft) O 98 0 min 0,000 mm 1,2 UV-I 268 W/m 8,5 C 14,8 C 11,3 km/h (2 Bft) 100,00 %
10.04.2018 11:32 15,8 C 9,4 C 62 % 1001,8 hPa 0,0 l/m 8,4 km/h (2 Bft) O 82 0 min 0,000 mm 1,2 UV-I 269 W/m 8,5 C 14,7 C 11,3 km/h (2 Bft) 100,00 %
10.04.2018 11:33 15,8 C 9,4 C 61 % 1001,9 hPa 0,0 l/m 8,0 km/h (2 Bft) O 93 0 min 0,000 mm 1,2 UV-I 269 W/m 8,3 C 14,9 C 12,9 km/h (3 Bft) 100,00 %
10.04.2018 11:34 15,8 C 9,4 C 62 % 1001,9 hPa 0,0 l/m 7,0 km/h (2 Bft) O-SO 103 0 min 0,000 mm 1,2 UV-I 271 W/m 8,5 C 15,5 C 9,7 km/h (2 Bft) 100,00 %
10.04.2018 11:35 15,8 C 9,4 C 62 % 1001,9 hPa 0,0 l/m 8,5 km/h (2 Bft) O-SO 104 0 min 0,000 mm 1,2 UV-I 271 W/m 8,5 C 14,7 C 11,3 km/h (2 Bft) 100,00 %
10.04.2018 11:36 15,9 C 9,4 C 62 % 1001,9 hPa 0,0 l/m 6,6 km/h (2 Bft) O-NO 75 0 min 0,000 mm 1,2 UV-I 273 W/m 8,6 C 15,8 C 14,5 km/h (3 Bft) 100,00 %
10.04.2018 11:37 15,9 C 9,4 C 61 % 1002,0 hPa 0,0 l/m 11,9 km/h (2 Bft) O-SO 105 0 min 0,000 mm 1,2 UV-I 279 W/m 8,4 C 13,3 C 14,5 km/h (3 Bft) 100,00 %
10.04.2018 11:38 15,9 C 9,4 C 58 % 1002,0 hPa 0,0 l/m 12,9 km/h (3 Bft) O 95 0 min 0,000 mm 1,2 UV-I 289 W/m 7,6 C 13,0 C 14,5 km/h (3 Bft) 100,00 %
10.04.2018 11:39 15,9 C 9,4 C 58 % 1001,9 hPa 0,0 l/m 9,5 km/h (2 Bft) O-SO 103 0 min 0,000 mm 1,4 UV-I 347 W/m 7,6 C 14,3 C 12,9 km/h (3 Bft) 100,00 %
10.04.2018 11:40 16,0 C 9,4 C 59 % 1001,9 hPa 0,0 l/m 8,6 km/h (2 Bft) O 101 0 min 0,000 mm 1,4 UV-I 313 W/m 8,0 C 14,9 C 11,3 km/h (2 Bft) 100,00 %
10.04.2018 11:41 16,1 C 9,4 C 59 % 1001,9 hPa 0,0 l/m 4,8 km/h (1 Bft) O 94 0 min 0,000 mm 1,3 UV-I 301 W/m 8,1 C 16,1 C 6,4 km/h (2 Bft) 100,00 %
10.04.2018 11:43 16,1 C 9,4 C 59 % 1001,9 hPa 0,0 l/m 8,9 km/h (2 Bft) O 88 0 min 0,000 mm 1,3 UV-I 295 W/m 8,1 C 14,8 C 12,9 km/h (3 Bft) 98,11 %
10.04.2018 11:44 16,1 C 9,4 C 59 % 1001,9 hPa 0,0 l/m 9,0 km/h (2 Bft) O-NO 74 0 min 0,000 mm 1,3 UV-I 296 W/m 8,1 C 14,8 C 12,9 km/h (3 Bft) 92,86 %
10.04.2018 11:45 16,2 C 9,4 C 58 % 1001,9 hPa 0,0 l/m 8,8 km/h (2 Bft) O 99 0 min 0,000 mm 1,3 UV-I 297 W/m 7,9 C 15,0 C 12,9 km/h (3 Bft) 100,00 %
10.04.2018 11:46 16,2 C 9,4 C 60 % 1001,9 hPa 0,0 l/m 6,9 km/h (2 Bft) O-SO 123 0 min 0,000 mm 1,3 UV-I 296 W/m 8,4 C 15,9 C 11,3 km/h (2 Bft) 95,65 %
10.04.2018 11:47 16,3 C 9,4 C 60 % 1001,9 hPa 0,0 l/m 8,0 km/h (2 Bft) O-NO 69 0 min 0,000 mm 1,3 UV-I 292 W/m 8,5 C 15,5 C 12,9 km/h (3 Bft) 100,00 %
10.04.2018 11:48 16,3 C 9,4 C 60 % 1001,9 hPa 0,0 l/m 10,2 km/h (2 Bft) O 87 0 min 0,000 mm 1,3 UV-I 290 W/m 8,5 C 14,5 C 14,5 km/h (3 Bft) 100,00 %
10.04.2018 11:49 16,3 C 9,4 C 59 % 1001,9 hPa 0,0 l/m 8,2 km/h (2 Bft) O-NO 77 0 min 0,000 mm 1,3 UV-I 289 W/m 8,3 C 15,4 C 11,3 km/h (2 Bft) 96,30 %
10.04.2018 11:50 16,3 C 9,4 C 59 % 1001,9 hPa 0,0 l/m 9,4 km/h (2 Bft) O-NO 71 0 min 0,000 mm 1,3 UV-I 288 W/m 8,3 C 14,8 C 12,9 km/h (3 Bft) 100,00 %
10.04.2018 11:51 16,3 C 9,4 C 60 % 1001,9 hPa 0,0 l/m 9,9 km/h (2 Bft) O 92 0 min 0,000 mm 1,3 UV-I 287 W/m 8,5 C 14,6 C 14,5 km/h (3 Bft) 96,30 %
10.04.2018 11:52 16,3 C 9,4 C 61 % 1001,9 hPa 0,0 l/m 13,7 km/h (3 Bft) O-NO 65 0 min 0,000 mm 1,3 UV-I 287 W/m 8,8 C 13,2 C 16,1 km/h (3 Bft) 95,00 %
10.04.2018 11:53 16,3 C 9,4 C 61 % 1001,9 hPa 0,0 l/m 10,0 km/h (2 Bft) O-NO 69 0 min 0,000 mm 1,3 UV-I 287 W/m 8,8 C 14,6 C 14,5 km/h (3 Bft) 100,00 %
10.04.2018 11:54 16,3 C 9,4 C 62 % 1001,9 hPa 0,0 l/m 7,5 km/h (2 Bft) O 79 0 min 0,000 mm 1,3 UV-I 284 W/m 9,0 C 15,7 C 11,3 km/h (2 Bft) 96,15 %
10.04.2018 11:55 16,3 C 9,4 C 61 % 1001,9 hPa 0,0 l/m 9,0 km/h (2 Bft) O-NO 65 0 min 0,000 mm 1,3 UV-I 282 W/m 8,8 C 15,0 C 11,3 km/h (2 Bft) 100,00 %
10.04.2018 11:56 16,3 C 9,4 C 61 % 1001,9 hPa 0,0 l/m 9,2 km/h (2 Bft) O 86 0 min 0,000 mm 1,3 UV-I 280 W/m 8,8 C 14,9 C 20,9 km/h (4 Bft) 100,00 %
10.04.2018 11:57 16,3 C 9,4 C 60 % 1001,8 hPa 0,0 l/m 14,4 km/h (3 Bft) O 85 0 min 0,000 mm 1,2 UV-I 275 W/m 8,5 C 13,0 C 17,7 km/h (3 Bft) 100,00 %
10.04.2018 11:58 16,3 C 9,4 C 60 % 1001,8 hPa 0,0 l/m 12,3 km/h (3 Bft) O 94 0 min 0,000 mm 1,2 UV-I 268 W/m 8,5 C 13,7 C 16,1 km/h (3 Bft) 100,00 %
10.04.2018 11:59 16,2 C 9,4 C 60 % 1001,8 hPa 0,0 l/m 9,9 km/h (2 Bft) O-SO 104 0 min 0,000 mm 1,2 UV-I 262 W/m 8,4 C 14,5 C 12,9 km/h (3 Bft) 95,83 %
10.04.2018 12:00 16,2 C 9,4 C 60 % 1001,8 hPa 0,0 l/m 7,0 km/h (2 Bft) O 83 0 min 0,177 mm 1,2 UV-I 254 W/m 8,4 C 15,9 C 11,3 km/h (2 Bft) 100,00 %
10.04.2018 12:02 16,1 C 9,4 C 61 % 1001,8 hPa 0,0 l/m 9,5 km/h (2 Bft) O-NO 65 0 min 0,000 mm 1,1 UV-I 244 W/m 8,6 C 14,6 C 12,9 km/h (3 Bft) 100,00 %
10.04.2018 12:03 16,1 C 9,4 C 61 % 1001,8 hPa 0,0 l/m 8,6 km/h (2 Bft) O-NO 64 0 min 0,000 mm 1,1 UV-I 234 W/m 8,6 C 15,0 C 11,3 km/h (2 Bft) 100,00 %
10.04.2018 12:05 16,2 C 9,4 C 63 % 1001,8 hPa 0,0 l/m 10,5 km/h (2 Bft) O-NO 57 0 min 0,000 mm 1,1 UV-I 229 W/m 9,1 C 14,2 C 14,5 km/h (3 Bft) 100,00 %
10.04.2018 12:06 16,2 C 9,4 C 62 % 1001,8 hPa 0,0 l/m 8,5 km/h (2 Bft) O-NO 64 0 min 0,000 mm 1,0 UV-I 226 W/m 8,9 C 15,1 C 9,7 km/h (2 Bft) 100,00 %
10.04.2018 12:07 16,2 C 9,4 C 61 % 1001,8 hPa 0,0 l/m 11,0 km/h (2 Bft) O-SO 112 0 min 0,000 mm 1,0 UV-I 224 W/m 8,7 C 14,0 C 14,5 km/h (3 Bft) 97,75 %
10.04.2018 12:10 16,1 C 9,4 C 61 % 1001,8 hPa 0,0 l/m 7,8 km/h (2 Bft) O-NO 77 0 min 0,000 mm 1,0 UV-I 220 W/m 8,6 C 15,4 C 9,7 km/h (2 Bft) 100,00 %
10.04.2018 12:11 16,2 C 9,4 C 61 % 1001,9 hPa 0,0 l/m 9,0 km/h (2 Bft) O 101 0 min 0,000 mm 1,0 UV-I 221 W/m 8,7 C 14,9 C 12,9 km/h (3 Bft) 100,00 %
10.04.2018 12:13 16,1 C 9,4 C 60 % 1001,8 hPa 0,0 l/m 9,7 km/h (2 Bft) O-NO 65 0 min 0,000 mm 1,0 UV-I 222 W/m 8,3 C 14,5 C 14,5 km/h (3 Bft) 95,24 %
10.04.2018 12:14 16,1 C 9,4 C 60 % 1001,8 hPa 0,0 l/m 6,6 km/h (2 Bft) O-NO 61 0 min 0,000 mm 1,0 UV-I 223 W/m 8,3 C 16,0 C 11,3 km/h (2 Bft) 100,00 %
10.04.2018 12:15 16,1 C 9,4 C 61 % 1001,8 hPa 0,0 l/m 6,8 km/h (2 Bft) O-NO 70 0 min 0,000 mm 1,0 UV-I 225 W/m 8,6 C 15,9 C 9,7 km/h (2 Bft) 100,00 %
10.04.2018 12:16 16,1 C 9,4 C 61 % 1001,8 hPa 0,0 l/m 8,2 km/h (2 Bft) NO 44 0 min 0,000 mm 1,0 UV-I 227 W/m 8,6 C 15,2 C 11,3 km/h (2 Bft) 100,00 %
10.04.2018 12:17 16,1 C 9,4 C 61 % 1001,8 hPa 0,0 l/m 7,8 km/h (2 Bft) O 92 0 min 0,000 mm 1,0 UV-I 229 W/m 8,6 C 15,4 C 9,7 km/h (2 Bft) 96,30 %
10.04.2018 12:18 16,1 C 9,4 C 63 % 1001,9 hPa 0,0 l/m 10,1 km/h (2 Bft) O-SO 121 0 min 0,000 mm 1,1 UV-I 231 W/m 9,1 C 14,3 C 12,9 km/h (3 Bft) 100,00 %
10.04.2018 12:19 16,1 C 9,4 C 61 % 1001,8 hPa 0,0 l/m 7,9 km/h (2 Bft) O 100 0 min 0,000 mm 1,1 UV-I 233 W/m 8,6 C 15,3 C 12,9 km/h (3 Bft) 100,00 %
10.04.2018 12:20 16,1 C 9,4 C 58 % 1001,8 hPa 0,0 l/m 8,7 km/h (2 Bft) O 92 0 min 0,000 mm 1,1 UV-I 236 W/m 7,8 C 14,9 C 12,9 km/h (3 Bft) 92,86 %
10.04.2018 12:22 16,1 C 9,4 C 59 % 1001,8 hPa 0,0 l/m 10,5 km/h (2 Bft) O-SO 103 0 min 0,000 mm 1,1 UV-I 237 W/m 8,1 C 14,1 C 14,5 km/h (3 Bft) 98,11 %
10.04.2018 12:23 16,1 C 9,4 C 59 % 1001,8 hPa 0,0 l/m 6,2 km/h (2 Bft) O 86 0 min 0,000 mm 1,1 UV-I 243 W/m 8,1 C 16,1 C 9,7 km/h (2 Bft) 100,00 %
10.04.2018 12:25 16,1 C 9,4 C 60 % 1001,8 hPa 0,0 l/m 9,2 km/h (2 Bft) O 92 0 min 0,000 mm 1,1 UV-I 247 W/m 8,3 C 14,7 C 14,5 km/h (3 Bft) 95,12 %
10.04.2018 12:26 16,1 C 9,4 C 62 % 1001,8 hPa 0,0 l/m 9,4 km/h (2 Bft) O 101 0 min 0,000 mm 1,2 UV-I 255 W/m 8,8 C 14,6 C 12,9 km/h (3 Bft) 89,66 %
10.04.2018 12:27 16,1 C 9,4 C 61 % 1001,7 hPa 0,0 l/m 10,2 km/h (2 Bft) O-NO 61 0 min 0,000 mm 1,2 UV-I 258 W/m 8,6 C 14,2 C 12,9 km/h (3 Bft) 91,67 %
10.04.2018 12:30 16,0 C 9,4 C 62 % 1001,8 hPa 0,0 l/m 8,5 km/h (2 Bft) O-NO 75 0 min 0,000 mm 1,2 UV-I 268 W/m 8,7 C 14,9 C 11,3 km/h (2 Bft) 100,00 %
10.04.2018 12:31 16,0 C 9,4 C 63 % 1001,8 hPa 0,0 l/m 7,5 km/h (2 Bft) O 87 0 min 0,000 mm 1,2 UV-I 272 W/m 9,0 C 15,4 C 12,9 km/h (3 Bft) 96,30 %
10.04.2018 12:32 16,0 C 9,4 C 62 % 1001,7 hPa 0,0 l/m 11,3 km/h (2 Bft) O-NO 74 0 min 0,000 mm 1,3 UV-I 279 W/m 8,7 C 13,7 C 14,5 km/h (3 Bft) 96,55 %
10.04.2018 12:33 16,0 C 9,4 C 63 % 1001,7 hPa 0,0 l/m 11,0 km/h (2 Bft) O-SO 105 0 min 0,000 mm 1,3 UV-I 289 W/m 9,0 C 13,8 C 12,9 km/h (3 Bft) 93,33 %
10.04.2018 12:34 16,1 C 9,4 C 63 % 1001,7 hPa 0,0 l/m 10,2 km/h (2 Bft) O 97 0 min 0,000 mm 1,3 UV-I 306 W/m 9,1 C 14,2 C 14,5 km/h (3 Bft) 95,65 %
10.04.2018 12:35 16,1 C 9,4 C 62 % 1001,8 hPa 0,0 l/m 11,1 km/h (2 Bft) O 86 0 min 0,000 mm 1,4 UV-I 320 W/m 8,8 C 13,9 C 14,5 km/h (3 Bft) 100,00 %
10.04.2018 12:36 16,1 C 9,4 C 61 % 1001,7 hPa 0,0 l/m 11,1 km/h (2 Bft) O 90 0 min 0,000 mm 1,4 UV-I 306 W/m 8,6 C 13,9 C 16,1 km/h (3 Bft) 91,30 %
10.04.2018 12:37 16,1 C 9,4 C 60 % 1001,7 hPa 0,0 l/m 11,9 km/h (2 Bft) O 88 0 min 0,000 mm 1,4 UV-I 307 W/m 8,3 C 13,6 C 14,5 km/h (3 Bft) 100,00 %
10.04.2018 12:38 16,1 C 9,4 C 59 % 1001,7 hPa 0,0 l/m 13,3 km/h (3 Bft) O-SO 114 0 min 0,000 mm 1,4 UV-I 306 W/m 8,1 C 13,1 C 16,1 km/h (3 Bft) 91,67 %
10.04.2018 12:39 16,1 C 9,4 C 59 % 1001,7 hPa 0,0 l/m 10,6 km/h (2 Bft) O 79 0 min 0,000 mm 1,4 UV-I 300 W/m 8,1 C 14,1 C 14,5 km/h (3 Bft) 100,00 %
10.04.2018 12:40 16,1 C 9,4 C 60 % 1001,7 hPa 0,0 l/m 11,7 km/h (2 Bft) O-SO 113 0 min 0,000 mm 1,3 UV-I 291 W/m 8,3 C 13,7 C 16,1 km/h (3 Bft) 92,31 %
10.04.2018 12:41 16,2 C 9,4 C 60 % 1001,7 hPa 0,0 l/m 10,4 km/h (2 Bft) O 96 0 min 0,000 mm 1,3 UV-I 284 W/m 8,4 C 14,3 C 14,5 km/h (3 Bft) 97,69 %
10.04.2018 12:42 16,2 C 9,4 C 60 % 1001,8 hPa 0,0 l/m 12,6 km/h (3 Bft) O-SO 108 0 min 0,000 mm 1,3 UV-I 280 W/m 8,4 C 13,4 C 16,1 km/h (3 Bft) 95,24 %
10.04.2018 12:43 16,2 C 9,4 C 60 % 1001,7 hPa 0,0 l/m 12,8 km/h (3 Bft) O 101 0 min 0,000 mm 1,3 UV-I 275 W/m 8,4 C 13,4 C 14,5 km/h (3 Bft) 89,66 %
10.04.2018 12:44 16,2 C 9,4 C 60 % 1001,7 hPa 0,0 l/m 11,5 km/h (2 Bft) O 90 0 min 0,000 mm 1,3 UV-I 274 W/m 8,4 C 13,8 C 14,5 km/h (3 Bft) 100,00 %
10.04.2018 12:45 16,2 C 9,4 C 60 % 1001,8 hPa 0,0 l/m 10,9 km/h (2 Bft) O-NO 69 0 min 0,000 mm 1,3 UV-I 277 W/m 8,4 C 14,1 C 14,5 km/h (3 Bft) 96,15 %
10.04.2018 12:46 16,2 C 9,4 C 60 % 1001,7 hPa 0,0 l/m 12,5 km/h (3 Bft) O 86 0 min 0,000 mm 1,3 UV-I 283 W/m 8,4 C 13,5 C 14,5 km/h (3 Bft) 100,00 %
10.04.2018 12:47 16,2 C 9,4 C 60 % 1001,7 hPa 0,0 l/m 12,7 km/h (3 Bft) O-NO 76 0 min 0,000 mm 1,3 UV-I 287 W/m 8,4 C 13,4 C 14,5 km/h (3 Bft) 95,65 %
10.04.2018 12:48 16,2 C 9,4 C 59 % 1001,7 hPa 0,0 l/m 12,7 km/h (3 Bft) O-NO 66 0 min 0,000 mm 1,4 UV-I 294 W/m 8,2 C 13,4 C 14,5 km/h (3 Bft) 100,00 %
10.04.2018 12:49 16,2 C 9,4 C 58 % 1001,7 hPa 0,0 l/m 12,7 km/h (3 Bft) O-NO 77 0 min 0,000 mm 1,4 UV-I 299 W/m 7,9 C 13,4 C 16,1 km/h (3 Bft) 92,86 %
10.04.2018 12:50 16,2 C 9,4 C 58 % 1001,7 hPa 0,0 l/m 11,7 km/h (2 Bft) O 86 0 min 0,000 mm 1,4 UV-I 306 W/m 7,9 C 13,8 C 16,1 km/h (3 Bft) 100,00 %
10.04.2018 12:51 16,2 C 9,4 C 58 % 1001,7 hPa 0,0 l/m 12,5 km/h (3 Bft) NO 55 0 min 0,000 mm 1,4 UV-I 313 W/m 7,9 C 13,5 C 14,5 km/h (3 Bft) 91,30 %
10.04.2018 12:52 16,2 C 9,4 C 59 % 1001,7 hPa 0,0 l/m 12,5 km/h (3 Bft) O 88 0 min 0,000 mm 1,5 UV-I 322 W/m 8,2 C 13,5 C 14,5 km/h (3 Bft) 95,83 %
10.04.2018 12:53 16,3 C 9,4 C 60 % 1001,7 hPa 0,0 l/m 11,5 km/h (2 Bft) O-NO 58 0 min 0,000 mm 1,7 UV-I 322 W/m 8,5 C 14,0 C 14,5 km/h (3 Bft) 100,00 %
10.04.2018 12:54 16,3 C 9,4 C 58 % 1001,7 hPa 0,0 l/m 13,7 km/h (3 Bft) O-NO 67 0 min 0,000 mm 1,8 UV-I 322 W/m 8,0 C 13,2 C 16,1 km/h (3 Bft) 96,30 %
10.04.2018 12:55 16,3 C 9,4 C 58 % 1001,7 hPa 0,0 l/m 11,4 km/h (2 Bft) NO 55 0 min 0,000 mm 1,6 UV-I 375 W/m 8,0 C 14,0 C 14,5 km/h (3 Bft) 100,00 %
10.04.2018 12:56 16,3 C 9,4 C 58 % 1001,7 hPa 0,0 l/m 9,4 km/h (2 Bft) O-NO 71 0 min 0,000 mm 1,6 UV-I 345 W/m 8,0 C 14,8 C 12,9 km/h (3 Bft) 100,00 %
10.04.2018 12:57 16,3 C 9,4 C 59 % 1001,7 hPa 0,0 l/m 10,1 km/h (2 Bft) O-NO 70 0 min 0,000 mm 1,5 UV-I 334 W/m 8,3 C 14,5 C 12,9 km/h (3 Bft) 96,15 %
10.04.2018 12:58 16,4 C 9,4 C 59 % 1001,7 hPa 0,0 l/m 9,3 km/h (2 Bft) O-NO 74 0 min 0,000 mm 1,5 UV-I 333 W/m 8,4 C 15,0 C 11,3 km/h (2 Bft) 96,67 %
10.04.2018 12:59 16,4 C 9,4 C 59 % 1001,7 hPa 0,0 l/m 11,1 km/h (2 Bft) O-NO 67 0 min 0,000 mm 1,6 UV-I 340 W/m 8,4 C 14,2 C 14,5 km/h (3 Bft) 100,00 %
10.04.2018 13:00 16,4 C 9,4 C 59 % 1001,7 hPa 0,0 l/m 9,3 km/h (2 Bft) O-NO 71 0 min 0,204 mm 1,6 UV-I 347 W/m 8,4 C 15,0 C 12,9 km/h (3 Bft) 100,00 %
10.04.2018 13:01 16,4 C 9,4 C 59 % 1001,7 hPa 0,0 l/m 11,0 km/h (2 Bft) O-NO 71 0 min 0,000 mm 1,6 UV-I 355 W/m 8,4 C 14,3 C 14,5 km/h (3 Bft) 100,00 %
10.04.2018 13:02 16,5 C 9,4 C 59 % 1001,7 hPa 0,0 l/m 11,9 km/h (2 Bft) O-NO 78 0 min 0,000 mm 1,6 UV-I 360 W/m 8,5 C 14,0 C 14,5 km/h (3 Bft) 100,00 %
10.04.2018 13:03 16,6 C 9,4 C 59 % 1001,7 hPa 0,0 l/m 10,9 km/h (2 Bft) O-NO 76 0 min 0,000 mm 1,7 UV-I 367 W/m 8,6 C 14,5 C 14,5 km/h (3 Bft) 100,00 %
10.04.2018 13:04 16,6 C 9,4 C 59 % 1001,7 hPa 0,0 l/m 10,5 km/h (2 Bft) O-NO 63 0 min 0,000 mm 1,7 UV-I 368 W/m 8,6 C 14,7 C 12,9 km/h (3 Bft) 100,00 %
10.04.2018 13:05 16,6 C 9,4 C 58 % 1001,7 hPa 0,0 l/m 10,3 km/h (2 Bft) O 96 0 min 0,000 mm 1,7 UV-I 358 W/m 8,3 C 14,8 C 14,5 km/h (3 Bft) 100,00 %
10.04.2018 13:06 16,6 C 9,4 C 59 % 1001,6 hPa 0,0 l/m 10,6 km/h (2 Bft) O-NO 63 0 min 0,000 mm 1,6 UV-I 347 W/m 8,6 C 14,6 C 12,9 km/h (3 Bft) 100,00 %
10.04.2018 13:07 16,6 C 9,4 C 58 % 1001,6 hPa 0,0 l/m 11,7 km/h (2 Bft) O-NO 73 0 min 0,000 mm 1,6 UV-I 336 W/m 8,3 C 14,2 C 14,5 km/h (3 Bft) 100,00 %
10.04.2018 13:08 16,6 C 9,4 C 58 % 1001,6 hPa 0,0 l/m 8,7 km/h (2 Bft) O-NO 67 0 min 0,000 mm 1,5 UV-I 322 W/m 8,3 C 15,5 C 11,3 km/h (2 Bft) 100,00 %
10.04.2018 13:09 16,7 C 9,4 C 59 % 1001,7 hPa 0,0 l/m 12,9 km/h (3 Bft) O 89 0 min 0,000 mm 1,5 UV-I 314 W/m 8,6 C 13,9 C 16,1 km/h (3 Bft) 100,00 %
10.04.2018 13:10 16,7 C 9,4 C 57 % 1001,6 hPa 0,0 l/m 10,3 km/h (2 Bft) O 80 0 min 0,000 mm 1,5 UV-I 311 W/m 8,1 C 14,9 C 12,9 km/h (3 Bft) 100,00 %
10.04.2018 13:11 16,7 C 9,4 C 57 % 1001,6 hPa 0,0 l/m 10,6 km/h (2 Bft) O-NO 71 0 min 0,000 mm 1,5 UV-I 311 W/m 8,1 C 14,8 C 12,9 km/h (3 Bft) 100,00 %
10.04.2018 13:12 16,7 C 9,4 C 58 % 1001,6 hPa 0,0 l/m 11,6 km/h (2 Bft) O-NO 71 0 min 0,000 mm 1,4 UV-I 316 W/m 8,4 C 14,4 C 16,1 km/h (3 Bft) 100,00 %
10.04.2018 13:13 16,7 C 9,4 C 59 % 1001,6 hPa 0,0 l/m 8,6 km/h (2 Bft) O 94 0 min 0,000 mm 1,5 UV-I 321 W/m 8,6 C 15,6 C 12,9 km/h (3 Bft) 93,33 %
10.04.2018 13:14 16,7 C 9,4 C 59 % 1001,6 hPa 0,0 l/m 10,5 km/h (2 Bft) O 85 0 min 0,000 mm 1,5 UV-I 318 W/m 8,6 C 14,8 C 12,9 km/h (3 Bft) 100,00 %
10.04.2018 13:15 16,8 C 9,4 C 60 % 1001,6 hPa 0,0 l/m 8,2 km/h (2 Bft) O-NO 75 0 min 0,000 mm 1,5 UV-I 316 W/m 9,0 C 15,9 C 11,3 km/h (2 Bft) 100,00 %
10.04.2018 13:16 16,8 C 9,4 C 58 % 1001,6 hPa 0,0 l/m 10,2 km/h (2 Bft) O 86 0 min 0,000 mm 1,5 UV-I 316 W/m 8,5 C 15,0 C 14,5 km/h (3 Bft) 100,00 %
10.04.2018 13:17 16,8 C 9,4 C 57 % 1001,6 hPa 0,0 l/m 11,7 km/h (2 Bft) O-NO 70 0 min 0,000 mm 1,5 UV-I 315 W/m 8,2 C 14,5 C 14,5 km/h (3 Bft) 93,33 %
10.04.2018 13:18 16,8 C 9,4 C 57 % 1001,6 hPa 0,0 l/m 12,3 km/h (3 Bft) O 90 0 min 0,000 mm 1,5 UV-I 314 W/m 8,2 C 14,2 C 14,5 km/h (3 Bft) 100,00 %
10.04.2018 13:19 16,8 C 9,4 C 58 % 1001,5 hPa 0,0 l/m 11,1 km/h (2 Bft) O-NO 69 0 min 0,000 mm 1,5 UV-I 311 W/m 8,5 C 14,7 C 16,1 km/h (3 Bft) 100,00 %
10.04.2018 13:20 16,8 C 9,4 C 57 % 1001,5 hPa 0,0 l/m 13,4 km/h (3 Bft) O-NO 76 0 min 0,000 mm 1,4 UV-I 308 W/m 8,2 C 13,9 C 14,5 km/h (3 Bft) 100,00 %
10.04.2018 13:21 16,9 C 9,4 C 59 % 1001,5 hPa 0,0 l/m 11,1 km/h (2 Bft) O 81 0 min 0,000 mm 1,4 UV-I 303 W/m 8,8 C 14,8 C 14,5 km/h (3 Bft) 100,00 %
10.04.2018 13:23 17,0 C 9,4 C 57 % 1001,5 hPa 0,0 l/m 9,5 km/h (2 Bft) O-NO 76 0 min 0,000 mm 1,4 UV-I 298 W/m 8,4 C 15,5 C 14,5 km/h (3 Bft) 98,11 %
10.04.2018 13:24 17,1 C 9,4 C 57 % 1001,6 hPa 0,0 l/m 9,3 km/h (2 Bft) O-NO 60 0 min 0,000 mm 1,4 UV-I 297 W/m 8,5 C 15,7 C 12,9 km/h (3 Bft) 100,00 %
10.04.2018 13:25 17,1 C 9,4 C 57 % 1001,6 hPa 0,0 l/m 9,7 km/h (2 Bft) O 100 0 min 0,000 mm 1,4 UV-I 299 W/m 8,5 C 15,6 C 14,5 km/h (3 Bft) 100,00 %
10.04.2018 13:26 17,1 C 9,4 C 56 % 1001,6 hPa 0,0 l/m 9,0 km/h (2 Bft) O-NO 57 0 min 0,000 mm 1,4 UV-I 301 W/m 8,3 C 15,9 C 11,3 km/h (2 Bft) 100,00 %
10.04.2018 13:27 17,2 C 9,4 C 57 % 1001,5 hPa 0,0 l/m 10,0 km/h (2 Bft) O-NO 69 0 min 0,000 mm 1,4 UV-I 298 W/m 8,6 C 15,5 C 12,9 km/h (3 Bft) 96,15 %
10.04.2018 13:28 17,2 C 9,4 C 57 % 1001,5 hPa 0,0 l/m 7,0 km/h (2 Bft) O-NO 75 0 min 0,000 mm 1,4 UV-I 296 W/m 8,6 C 16,9 C 11,3 km/h (2 Bft) 100,00 %
10.04.2018 13:29 17,3 C 9,4 C 57 % 1001,6 hPa 0,0 l/m 7,8 km/h (2 Bft) NO 53 0 min 0,000 mm 1,4 UV-I 294 W/m 8,7 C 16,6 C 12,9 km/h (3 Bft) 100,00 %
10.04.2018 13:30 17,3 C 9,4 C 55 % 1001,6 hPa 0,0 l/m 10,2 km/h (2 Bft) O-NO 59 0 min 0,000 mm 1,4 UV-I 291 W/m 8,2 C 15,6 C 12,9 km/h (3 Bft) 100,00 %
10.04.2018 13:31 17,3 C 9,4 C 55 % 1001,6 hPa 0,0 l/m 10,2 km/h (2 Bft) O-NO 60 0 min 0,000 mm 1,4 UV-I 288 W/m 8,2 C 15,6 C 12,9 km/h (3 Bft) 100,00 %
10.04.2018 13:32 17,3 C 9,4 C 56 % 1001,5 hPa 0,0 l/m 8,7 km/h (2 Bft) O-NO 77 0 min 0,000 mm 1,4 UV-I 287 W/m 8,4 C 16,2 C 11,3 km/h (2 Bft) 100,00 %
10.04.2018 13:33 17,3 C 9,4 C 54 % 1001,6 hPa 0,0 l/m 7,6 km/h (2 Bft) O-NO 63 0 min 0,000 mm 1,4 UV-I 290 W/m 7,9 C 16,7 C 11,3 km/h (2 Bft) 100,00 %
10.04.2018 13:34 17,4 C 9,4 C 54 % 1001,6 hPa 0,0 l/m 7,4 km/h (2 Bft) O 86 0 min 0,000 mm 1,4 UV-I 296 W/m 8,0 C 16,9 C 11,3 km/h (2 Bft) 100,00 %
10.04.2018 13:35 17,4 C 9,4 C 55 % 1001,6 hPa 0,0 l/m 6,8 km/h (2 Bft) O 90 0 min 0,000 mm 1,4 UV-I 296 W/m 8,3 C 17,2 C 9,7 km/h (2 Bft) 100,00 %
10.04.2018 13:36 17,5 C 9,4 C 55 % 1001,6 hPa 0,0 l/m 8,6 km/h (2 Bft) O-NO 73 0 min 0,000 mm 1,4 UV-I 294 W/m 8,4 C 16,5 C 12,9 km/h (3 Bft) 95,83 %
10.04.2018 13:37 17,5 C 9,4 C 54 % 1001,6 hPa 0,0 l/m 9,8 km/h (2 Bft) NO 46 0 min 0,000 mm 1,4 UV-I 292 W/m 8,1 C 16,0 C 12,9 km/h (3 Bft) 96,15 %
10.04.2018 13:38 17,6 C 9,4 C 55 % 1001,5 hPa 0,0 l/m 10,0 km/h (2 Bft) O-SO 109 0 min 0,000 mm 1,4 UV-I 294 W/m 8,5 C 16,0 C 12,9 km/h (3 Bft) 100,00 %
10.04.2018 13:39 17,6 C 9,4 C 53 % 1001,6 hPa 0,0 l/m 10,4 km/h (2 Bft) O 94 0 min 0,000 mm 1,4 UV-I 294 W/m 7,9 C 15,8 C 16,1 km/h (3 Bft) 100,00 %
10.04.2018 13:40 17,6 C 9,4 C 53 % 1001,5 hPa 0,0 l/m 11,1 km/h (2 Bft) O-NO 67 0 min 0,000 mm 1,4 UV-I 290 W/m 7,9 C 15,6 C 14,5 km/h (3 Bft) 100,00 %
10.04.2018 13:41 17,7 C 9,4 C 52 % 1001,5 hPa 0,0 l/m 8,3 km/h (2 Bft) O 80 0 min 0,000 mm 1,3 UV-I 282 W/m 7,7 C 16,8 C 11,3 km/h (2 Bft) 97,78 %
10.04.2018 13:42 17,7 C 9,4 C 53 % 1001,6 hPa 0,0 l/m 10,8 km/h (2 Bft) O 93 0 min 0,000 mm 1,3 UV-I 274 W/m 8,0 C 15,8 C 16,1 km/h (3 Bft) 100,00 %
10.04.2018 13:43 17,7 C 9,4 C 54 % 1001,5 hPa 0,0 l/m 8,5 km/h (2 Bft) O-NO 71 0 min 0,000 mm 1,2 UV-I 267 W/m 8,3 C 16,7 C 14,5 km/h (3 Bft) 100,00 %
10.04.2018 13:44 17,7 C 9,4 C 53 % 1001,6 hPa 0,0 l/m 8,2 km/h (2 Bft) NO 51 0 min 0,000 mm 1,2 UV-I 264 W/m 8,0 C 16,8 C 12,9 km/h (3 Bft) 100,00 %
10.04.2018 13:45 17,7 C 9,4 C 55 % 1001,6 hPa 0,0 l/m 10,1 km/h (2 Bft) O-NO 63 0 min 0,000 mm 1,2 UV-I 264 W/m 8,5 C 16,1 C 14,5 km/h (3 Bft) 93,33 %
10.04.2018 13:46 17,7 C 9,4 C 52 % 1001,6 hPa 0,0 l/m 7,1 km/h (2 Bft) O-NO 69 0 min 0,000 mm 1,2 UV-I 288 W/m 7,7 C 17,4 C 11,3 km/h (2 Bft) 100,00 %
10.04.2018 13:47 17,7 C 9,4 C 52 % 1001,6 hPa 0,0 l/m 7,8 km/h (2 Bft) O 85 0 min 0,000 mm 1,3 UV-I 292 W/m 7,7 C 17,0 C 12,9 km/h (3 Bft) 96,30 %
10.04.2018 13:48 17,8 C 9,4 C 53 % 1001,6 hPa 0,0 l/m 9,2 km/h (2 Bft) O 89 0 min 0,000 mm 1,3 UV-I 277 W/m 8,1 C 16,5 C 12,9 km/h (3 Bft) 100,00 %
10.04.2018 13:49 17,8 C 9,4 C 51 % 1001,6 hPa 0,0 l/m 10,1 km/h (2 Bft) O-NO 71 0 min 0,000 mm 1,2 UV-I 254 W/m 7,5 C 16,2 C 12,9 km/h (3 Bft) 96,30 %
10.04.2018 13:50 17,8 C 9,4 C 50 % 1001,6 hPa 0,0 l/m 8,6 km/h (2 Bft) O 85 0 min 0,000 mm 1,1 UV-I 231 W/m 7,2 C 16,8 C 12,9 km/h (3 Bft) 95,65 %
10.04.2018 13:51 17,8 C 9,4 C 49 % 1001,6 hPa 0,0 l/m 6,8 km/h (2 Bft) O 101 0 min 0,000 mm 1,1 UV-I 220 W/m 6,9 C 17,6 C 9,7 km/h (2 Bft) 100,00 %
10.04.2018 13:52 17,8 C 9,4 C 51 % 1001,6 hPa 0,0 l/m 8,3 km/h (2 Bft) O-NO 76 0 min 0,000 mm 1,1 UV-I 214 W/m 7,5 C 16,9 C 11,3 km/h (2 Bft) 96,55 %
10.04.2018 13:53 17,8 C 9,4 C 49 % 1001,6 hPa 0,0 l/m 7,0 km/h (2 Bft) O-NO 76 0 min 0,000 mm 1,0 UV-I 207 W/m 6,9 C 17,5 C 11,3 km/h (2 Bft) 100,00 %
10.04.2018 13:54 17,8 C 9,4 C 49 % 1001,6 hPa 0,0 l/m 5,6 km/h (1 Bft) O 83 0 min 0,000 mm 1,0 UV-I 201 W/m 6,9 C 17,8 C 6,4 km/h (2 Bft) 86,67 %
10.04.2018 13:55 17,8 C 9,4 C 49 % 1001,6 hPa 0,0 l/m 6,0 km/h (2 Bft) O-NO 73 0 min 0,000 mm 1,0 UV-I 197 W/m 6,9 C 17,8 C 8,0 km/h (2 Bft) 96,15 %
10.04.2018 13:56 17,8 C 9,4 C 51 % 1001,6 hPa 0,0 l/m 4,5 km/h (1 Bft) O-NO 77 0 min 0,000 mm 1,0 UV-I 194 W/m 7,5 C 17,8 C 6,4 km/h (2 Bft) 96,55 %
10.04.2018 13:57 17,8 C 9,4 C 51 % 1001,6 hPa 0,0 l/m 7,5 km/h (2 Bft) O-NO 67 0 min 0,000 mm 0,9 UV-I 193 W/m 7,5 C 17,3 C 9,7 km/h (2 Bft) 100,00 %
10.04.2018 13:58 17,9 C 9,4 C 50 % 1001,5 hPa 0,0 l/m 7,8 km/h (2 Bft) O-NO 68 0 min 0,000 mm 0,9 UV-I 192 W/m 7,3 C 17,2 C 11,3 km/h (2 Bft) 95,83 %
10.04.2018 13:59 17,8 C 9,4 C 49 % 1001,6 hPa 0,0 l/m 8,6 km/h (2 Bft) NO 54 0 min 0,000 mm 0,9 UV-I 192 W/m 6,9 C 16,8 C 11,3 km/h (2 Bft) 96,55 %
10.04.2018 14:00 17,8 C 9,4 C 49 % 1001,6 hPa 0,0 l/m 6,7 km/h (2 Bft) O-NO 71 0 min 0,203 mm 0,9 UV-I 187 W/m 6,9 C 17,7 C 11,3 km/h (2 Bft) 100,00 %
10.04.2018 14:01 17,8 C 9,4 C 50 % 1001,6 hPa 0,0 l/m 6,9 km/h (2 Bft) O 80 0 min 0,000 mm 0,9 UV-I 192 W/m 7,2 C 17,6 C 11,3 km/h (2 Bft) 91,30 %
10.04.2018 14:02 17,8 C 9,4 C 49 % 1001,6 hPa 0,0 l/m 7,2 km/h (2 Bft) O-NO 69 0 min 0,000 mm 0,9 UV-I 192 W/m 6,9 C 17,4 C 9,7 km/h (2 Bft) 100,00 %
10.04.2018 14:03 17,8 C 9,4 C 50 % 1001,6 hPa 0,0 l/m 6,9 km/h (2 Bft) O-NO 67 0 min 0,000 mm 0,9 UV-I 192 W/m 7,2 C 17,6 C 11,3 km/h (2 Bft) 94,12 %
10.04.2018 14:04 17,8 C 9,4 C 49 % 1001,6 hPa 0,0 l/m 7,6 km/h (2 Bft) O-NO 61 0 min 0,000 mm 0,9 UV-I 191 W/m 6,9 C 17,2 C 9,7 km/h (2 Bft) 100,00 %
10.04.2018 14:05 17,8 C 9,4 C 51 % 1001,6 hPa 0,0 l/m 8,0 km/h (2 Bft) NO 49 0 min 0,000 mm 0,9 UV-I 190 W/m 7,5 C 17,0 C 12,9 km/h (3 Bft) 96,15 %
10.04.2018 14:07 17,9 C 9,4 C 52 % 1001,6 hPa 0,0 l/m 9,7 km/h (2 Bft) O-NO 63 0 min 0,000 mm 0,9 UV-I 195 W/m 7,9 C 16,4 C 14,5 km/h (3 Bft) 100,00 %
10.04.2018 14:08 17,9 C 9,4 C 52 % 1001,6 hPa 0,0 l/m 10,3 km/h (2 Bft) O 87 0 min 0,000 mm 1,0 UV-I 200 W/m 7,9 C 16,2 C 12,9 km/h (3 Bft) 97,73 %
10.04.2018 14:09 17,9 C 9,4 C 50 % 1001,6 hPa 0,0 l/m 7,3 km/h (2 Bft) NO 56 0 min 0,000 mm 1,0 UV-I 195 W/m 7,3 C 17,5 C 11,3 km/h (2 Bft) 96,15 %
10.04.2018 14:10 17,9 C 9,4 C 52 % 1001,6 hPa 0,0 l/m 9,8 km/h (2 Bft) O-NO 63 0 min 0,000 mm 1,0 UV-I 200 W/m 7,9 C 16,4 C 14,5 km/h (3 Bft) 100,00 %
10.04.2018 14:11 17,9 C 9,4 C 51 % 1001,6 hPa 0,0 l/m 11,3 km/h (2 Bft) NO 41 0 min 0,000 mm 1,0 UV-I 205 W/m 7,6 C 15,8 C 14,5 km/h (3 Bft) 96,88 %
10.04.2018 14:12 17,9 C 9,4 C 52 % 1001,6 hPa 0,0 l/m 10,2 km/h (2 Bft) NO 41 0 min 0,000 mm 1,0 UV-I 215 W/m 7,9 C 16,2 C 14,5 km/h (3 Bft) 95,83 %
10.04.2018 14:13 17,9 C 9,4 C 52 % 1001,6 hPa 0,0 l/m 12,2 km/h (2 Bft) NO 42 0 min 0,000 mm 1,1 UV-I 230 W/m 7,9 C 15,5 C 16,1 km/h (3 Bft) 100,00 %
10.04.2018 14:14 17,9 C 9,4 C 51 % 1001,6 hPa 0,0 l/m 12,4 km/h (3 Bft) NO 36 0 min 0,000 mm 1,1 UV-I 233 W/m 7,6 C 15,5 C 16,1 km/h (3 Bft) 96,15 %
10.04.2018 14:15 17,9 C 9,4 C 51 % 1001,6 hPa 0,0 l/m 10,1 km/h (2 Bft) NO 44 0 min 0,000 mm 1,1 UV-I 232 W/m 7,6 C 16,3 C 14,5 km/h (3 Bft) 100,00 %
10.04.2018 14:16 18,0 C 9,4 C 51 % 1001,6 hPa 0,0 l/m 10,2 km/h (2 Bft) NO 43 0 min 0,000 mm 1,1 UV-I 238 W/m 7,7 C 16,4 C 16,1 km/h (3 Bft) 95,45 %
10.04.2018 14:17 18,0 C 9,4 C 51 % 1001,6 hPa 0,0 l/m 11,2 km/h (2 Bft) N-NO 24 0 min 0,000 mm 1,2 UV-I 248 W/m 7,7 C 16,0 C 14,5 km/h (3 Bft) 83,33 %
10.04.2018 14:18 18,1 C 9,4 C 51 % 1001,6 hPa 0,0 l/m 10,2 km/h (2 Bft) NO 49 0 min 0,000 mm 1,2 UV-I 259 W/m 7,8 C 16,5 C 14,5 km/h (3 Bft) 91,43 %
10.04.2018 14:19 18,1 C 9,4 C 52 % 1001,6 hPa 0,0 l/m 7,4 km/h (2 Bft) NO 44 0 min 0,000 mm 1,3 UV-I 271 W/m 8,1 C 17,6 C 9,7 km/h (2 Bft) 100,00 %
10.04.2018 14:20 18,1 C 9,4 C 51 % 1001,6 hPa 0,0 l/m 8,2 km/h (2 Bft) O-NO 64 0 min 0,000 mm 1,3 UV-I 272 W/m 7,8 C 17,3 C 11,3 km/h (2 Bft) 92,31 %
10.04.2018 14:21 18,2 C 9,4 C 51 % 1001,6 hPa 0,0 l/m 8,0 km/h (2 Bft) NO 46 0 min 0,000 mm 1,3 UV-I 283 W/m 7,9 C 17,5 C 11,3 km/h (2 Bft) 100,00 %
10.04.2018 14:22 18,2 C 9,4 C 51 % 1001,6 hPa 0,0 l/m 8,4 km/h (2 Bft) NO 56 0 min 0,000 mm 1,4 UV-I 292 W/m 7,9 C 17,3 C 11,3 km/h (2 Bft) 84,62 %
10.04.2018 14:23 18,2 C 9,4 C 51 % 1001,6 hPa 0,0 l/m 12,3 km/h (3 Bft) NO 43 0 min 0,000 mm 1,4 UV-I 307 W/m 7,9 C 15,9 C 14,5 km/h (3 Bft) 95,83 %
10.04.2018 14:24 18,2 C 9,4 C 53 % 1001,6 hPa 0,0 l/m 10,6 km/h (2 Bft) O-NO 61 0 min 0,000 mm 1,4 UV-I 316 W/m 8,5 C 16,4 C 12,9 km/h (3 Bft) 96,15 %
10.04.2018 14:25 18,2 C 9,4 C 52 % 1001,6 hPa 0,0 l/m 9,3 km/h (2 Bft) NO 56 0 min 0,000 mm 1,5 UV-I 319 W/m 8,2 C 16,9 C 11,3 km/h (2 Bft) 91,67 %
10.04.2018 14:26 18,2 C 9,4 C 51 % 1001,6 hPa 0,0 l/m 8,3 km/h (2 Bft) O-NO 65 0 min 0,000 mm 1,5 UV-I 322 W/m 7,9 C 17,3 C 9,7 km/h (2 Bft) 100,00 %
10.04.2018 14:27 18,2 C 9,4 C 55 % 1001,6 hPa 0,0 l/m 9,2 km/h (2 Bft) NO 50 0 min 0,000 mm 1,5 UV-I 318 W/m 9,0 C 17,0 C 11,3 km/h (2 Bft) 96,30 %
10.04.2018 14:28 18,2 C 9,4 C 54 % 1001,6 hPa 0,0 l/m 8,0 km/h (2 Bft) O-NO 76 0 min 0,000 mm 1,5 UV-I 325 W/m 8,7 C 17,5 C 9,7 km/h (2 Bft) 91,30 %
10.04.2018 14:29 18,2 C 9,4 C 54 % 1001,6 hPa 0,0 l/m 6,6 km/h (2 Bft) O-NO 63 0 min 0,000 mm 1,5 UV-I 330 W/m 8,7 C 18,1 C 8,0 km/h (2 Bft) 88,89 %
10.04.2018 14:30 18,2 C 9,4 C 50 % 1001,6 hPa 0,0 l/m 6,9 km/h (2 Bft) O-NO 64 0 min 0,000 mm 1,5 UV-I 338 W/m 7,6 C 18,0 C 8,0 km/h (2 Bft) 100,00 %
10.04.2018 14:31 18,2 C 9,4 C 52 % 1001,6 hPa 0,0 l/m 7,8 km/h (2 Bft) NO 38 0 min 0,000 mm 1,6 UV-I 342 W/m 8,2 C 17,6 C 9,7 km/h (2 Bft) 92,31 %
10.04.2018 14:32 18,2 C 9,4 C 54 % 1001,5 hPa 0,0 l/m 8,9 km/h (2 Bft) NO 46 0 min 0,000 mm 1,6 UV-I 348 W/m 8,7 C 17,1 C 9,7 km/h (2 Bft) 100,00 %
10.04.2018 14:33 18,2 C 9,4 C 55 % 1001,6 hPa 0,0 l/m 8,7 km/h (2 Bft) NO 42 0 min 0,000 mm 1,6 UV-I 356 W/m 9,0 C 17,2 C 11,3 km/h (2 Bft) 88,46 %
10.04.2018 14:34 18,3 C 9,4 C 51 % 1001,5 hPa 0,0 l/m 9,6 km/h (2 Bft) NO 38 0 min 0,000 mm 1,6 UV-I 364 W/m 8,0 C 16,9 C 11,3 km/h (2 Bft) 93,10 %
10.04.2018 14:35 18,3 C 9,4 C 51 % 1001,5 hPa 0,0 l/m 11,0 km/h (2 Bft) NO 53 0 min 0,000 mm 1,8 UV-I 366 W/m 8,0 C 16,4 C 16,1 km/h (3 Bft) 91,67 %
10.04.2018 14:36 18,4 C 9,4 C 51 % 1001,5 hPa 0,0 l/m 8,0 km/h (2 Bft) N-NO 32 1 min 0,000 mm 1,7 UV-I 413 W/m 8,1 C 17,7 C 9,7 km/h (2 Bft) 93,33 %
10.04.2018 14:37 18,5 C 9,4 C 53 % 1001,5 hPa 0,0 l/m 9,7 km/h (2 Bft) N-NO 28 1 min 0,000 mm 1,7 UV-I 394 W/m 8,7 C 17,1 C 12,9 km/h (3 Bft) 100,00 %
10.04.2018 14:38 18,7 C 9,4 C 53 % 1001,5 hPa 0,0 l/m 12,4 km/h (3 Bft) NO 56 1 min 0,000 mm 1,9 UV-I 410 W/m 8,9 C 16,4 C 14,5 km/h (3 Bft) 92,59 %
10.04.2018 14:39 18,8 C 9,4 C 51 % 1001,4 hPa 0,0 l/m 9,4 km/h (2 Bft) NO 53 1 min 0,000 mm 2,4 UV-I 518 W/m 8,4 C 17,5 C 14,5 km/h (3 Bft) 96,88 %
10.04.2018 14:40 18,9 C 9,4 C 50 % 1001,4 hPa 0,0 l/m 13,6 km/h (3 Bft) NO 36 1 min 0,000 mm 2,2 UV-I 650 W/m 8,2 C 16,3 C 17,7 km/h (3 Bft) 83,33 %
10.04.2018 14:41 19,0 C 9,4 C 52 % 1001,4 hPa 0,0 l/m 10,3 km/h (2 Bft) NO 44 1 min 0,000 mm 2,3 UV-I 650 W/m 8,9 C 17,4 C 14,5 km/h (3 Bft) 96,15 %
10.04.2018 14:42 19,2 C 9,4 C 50 % 1001,4 hPa 0,0 l/m 11,9 km/h (2 Bft) N-NO 32 1 min 0,000 mm 2,2 UV-I 650 W/m 8,5 C 17,1 C 16,1 km/h (3 Bft) 92,59 %
10.04.2018 14:43 19,3 C 9,4 C 50 % 1001,4 hPa 0,0 l/m 10,1 km/h (2 Bft) NO 49 1 min 0,000 mm 1,9 UV-I 558 W/m 8,6 C 17,8 C 12,9 km/h (3 Bft) 100,00 %
10.04.2018 14:44 19,3 C 9,4 C 51 % 1001,4 hPa 0,0 l/m 10,4 km/h (2 Bft) O-NO 57 0 min 0,000 mm 1,9 UV-I 378 W/m 8,9 C 17,7 C 14,5 km/h (3 Bft) 95,83 %
10.04.2018 14:45 19,3 C 9,4 C 48 % 1001,4 hPa 0,0 l/m 10,6 km/h (2 Bft) NO 43 0 min 0,000 mm 1,7 UV-I 386 W/m 8,0 C 17,7 C 14,5 km/h (3 Bft) 92,31 %
10.04.2018 14:46 19,3 C 9,4 C 48 % 1001,4 hPa 0,0 l/m 9,8 km/h (2 Bft) O-NO 67 0 min 0,000 mm 1,8 UV-I 369 W/m 8,0 C 17,9 C 12,9 km/h (3 Bft) 95,83 %
10.04.2018 14:47 19,2 C 9,4 C 48 % 1001,4 hPa 0,0 l/m 10,7 km/h (2 Bft) O-NO 71 0 min 0,000 mm 1,7 UV-I 362 W/m 7,9 C 17,5 C 14,5 km/h (3 Bft) 86,96 %
10.04.2018 14:48 18,9 C 9,4 C 45 % 1001,4 hPa 0,0 l/m 9,9 km/h (2 Bft) O 86 0 min 0,000 mm 1,7 UV-I 363 W/m 6,7 C 17,5 C 14,5 km/h (3 Bft) 100,00 %
10.04.2018 14:49 18,8 C 9,4 C 45 % 1001,4 hPa 0,0 l/m 8,1 km/h (2 Bft) NO 55 0 min 0,000 mm 1,8 UV-I 372 W/m 6,6 C 18,0 C 12,9 km/h (3 Bft) 97,57 %
10.04.2018 14:50 18,7 C 9,4 C 46 % 1001,3 hPa 0,0 l/m 11,3 km/h (2 Bft) O 94 0 min 0,000 mm 1,7 UV-I 364 W/m 6,8 C 16,8 C 14,5 km/h (3 Bft) 95,45 %
10.04.2018 14:51 18,7 C 9,4 C 46 % 1001,4 hPa 0,0 l/m 10,7 km/h (2 Bft) O-NO 67 0 min 0,000 mm 1,7 UV-I 365 W/m 6,8 C 17,0 C 12,9 km/h (3 Bft) 96,15 %
10.04.2018 14:52 18,6 C 9,4 C 48 % 1001,3 hPa 0,0 l/m 9,7 km/h (2 Bft) O-NO 57 0 min 0,000 mm 1,7 UV-I 366 W/m 7,4 C 17,2 C 14,5 km/h (3 Bft) 100,00 %
10.04.2018 14:53 18,6 C 9,4 C 46 % 1001,3 hPa 0,0 l/m 6,0 km/h (2 Bft) O-NO 70 0 min 0,000 mm 1,7 UV-I 364 W/m 6,8 C 18,6 C 8,0 km/h (2 Bft) 96,30 %
10.04.2018 14:54 18,7 C 9,4 C 48 % 1001,3 hPa 0,0 l/m 10,9 km/h (2 Bft) N-NO 31 0 min 0,000 mm 1,7 UV-I 365 W/m 7,5 C 16,9 C 12,9 km/h (3 Bft) 92,31 %
10.04.2018 14:55 18,7 C 9,4 C 49 % 1001,3 hPa 0,0 l/m 7,9 km/h (2 Bft) NO 36 0 min 0,000 mm 1,7 UV-I 370 W/m 7,8 C 18,0 C 11,3 km/h (2 Bft) 95,83 %
10.04.2018 14:56 18,7 C 9,4 C 47 % 1001,3 hPa 0,0 l/m 11,5 km/h (2 Bft) N-NO 32 1 min 0,000 mm 1,8 UV-I 384 W/m 7,2 C 16,7 C 14,5 km/h (3 Bft) 100,00 %
10.04.2018 14:57 18,8 C 9,4 C 49 % 1001,3 hPa 0,0 l/m 11,5 km/h (2 Bft) NO 36 1 min 0,000 mm 1,8 UV-I 395 W/m 7,9 C 16,8 C 14,5 km/h (3 Bft) 95,83 %
10.04.2018 14:58 19,0 C 9,4 C 48 % 1001,3 hPa 0,0 l/m 8,7 km/h (2 Bft) NO 46 1 min 0,000 mm 1,9 UV-I 412 W/m 7,7 C 18,0 C 11,3 km/h (2 Bft) 95,65 %
10.04.2018 14:59 19,1 C 9,4 C 48 % 1001,3 hPa 0,0 l/m 9,0 km/h (2 Bft) NO 42 1 min 0,000 mm 2,1 UV-I 492 W/m 7,8 C 18,0 C 11,3 km/h (2 Bft) 100,00 %
10.04.2018 15:00 19,2 C 9,4 C 50 % 1001,3 hPa 0,0 l/m 9,7 km/h (2 Bft) NO 40 1 min 0,254 mm 2,4 UV-I 499 W/m 8,5 C 17,9 C 12,9 km/h (3 Bft) 96,15 %
10.04.2018 15:01 19,4 C 9,4 C 49 % 1001,2 hPa 0,0 l/m 9,0 km/h (2 Bft) NO 38 1 min 0,000 mm 2,2 UV-I 499 W/m 8,4 C 18,3 C 12,9 km/h (3 Bft) 100,00 %
10.04.2018 15:02 19,6 C 9,4 C 48 % 1001,2 hPa 0,0 l/m 10,8 km/h (2 Bft) NO 38 1 min 0,000 mm 2,5 UV-I 499 W/m 8,3 C 17,9 C 12,9 km/h (3 Bft) 94,12 %
10.04.2018 15:03 19,8 C 9,4 C 48 % 1001,2 hPa 0,0 l/m 12,0 km/h (2 Bft) NO 36 1 min 0,000 mm 2,6 UV-I 499 W/m 8,5 C 17,8 C 16,1 km/h (3 Bft) 100,00 %
10.04.2018 15:04 20,0 C 9,4 C 46 % 1001,1 hPa 0,0 l/m 13,7 km/h (3 Bft) NO 36 1 min 0,000 mm 2,7 UV-I 499 W/m 8,0 C 17,6 C 17,7 km/h (3 Bft) 91,30 %
10.04.2018 15:05 20,2 C 9,4 C 49 % 1001,1 hPa 0,0 l/m 15,9 km/h (3 Bft) O-NO 71 1 min 0,000 mm 2,7 UV-I 499 W/m 9,1 C 17,3 C 19,3 km/h (3 Bft) 100,00 %
10.04.2018 15:06 20,3 C 9,4 C 48 % 1001,2 hPa 0,0 l/m 11,2 km/h (2 Bft) NO 44 1 min 0,000 mm 2,6 UV-I 499 W/m 8,9 C 18,6 C 16,1 km/h (3 Bft) 100,00 %
10.04.2018 15:07 20,4 C 9,4 C 49 % 1001,2 hPa 0,0 l/m 16,8 km/h (3 Bft) NO 36 1 min 0,000 mm 2,8 UV-I 620 W/m 9,3 C 17,3 C 20,9 km/h (4 Bft) 100,00 %
10.04.2018 15:08 20,5 C 9,4 C 48 % 1001,0 hPa 0,0 l/m 17,0 km/h (3 Bft) NO 44 1 min 0,000 mm 2,8 UV-I 814 W/m 9,1 C 17,4 C 20,9 km/h (4 Bft) 100,00 %
10.04.2018 15:09 20,5 C 9,4 C 47 % 1001,1 hPa 0,0 l/m 13,4 km/h (3 Bft) N-NO 33 1 min 0,000 mm 2,8 UV-I 799 W/m 8,8 C 18,2 C 16,1 km/h (3 Bft) 100,00 %
10.04.2018 15:10 20,5 C 9,4 C 48 % 1001,0 hPa 0,0 l/m 14,8 km/h (3 Bft) N-NO 23 1 min 0,000 mm 2,8 UV-I 782 W/m 9,1 C 17,9 C 16,1 km/h (3 Bft) 100,00 %
10.04.2018 15:11 20,6 C 9,4 C 48 % 1001,0 hPa 0,0 l/m 16,0 km/h (3 Bft) O-NO 59 1 min 0,000 mm 2,7 UV-I 762 W/m 9,2 C 17,8 C 19,3 km/h (3 Bft) 100,00 %
10.04.2018 15:12 20,7 C 9,4 C 48 % 1001,0 hPa 0,0 l/m 12,9 km/h (3 Bft) O-NO 57 1 min 0,000 mm 2,7 UV-I 743 W/m 9,3 C 18,6 C 19,3 km/h (3 Bft) 100,00 %
10.04.2018 15:13 20,5 C 9,4 C 44 % 1001,0 hPa 0,0 l/m 11,7 km/h (2 Bft) O-NO 60 1 min 0,000 mm 2,6 UV-I 728 W/m 7,8 C 18,7 C 16,1 km/h (3 Bft) 100,00 %
10.04.2018 15:14 20,4 C 9,4 C 46 % 1001,0 hPa 0,0 l/m 16,1 km/h (3 Bft) NO 40 1 min 0,000 mm 2,6 UV-I 710 W/m 8,4 C 17,5 C 19,3 km/h (3 Bft) 100,00 %
10.04.2018 15:15 20,3 C 9,4 C 44 % 1001,0 hPa 0,0 l/m 16,4 km/h (3 Bft) O 87 1 min 0,000 mm 2,6 UV-I 694 W/m 7,6 C 17,3 C 20,9 km/h (4 Bft) 100,00 %
10.04.2018 15:16 20,2 C 9,4 C 43 % 1001,0 hPa 0,0 l/m 17,7 km/h (3 Bft) O 83 1 min 0,000 mm 2,4 UV-I 658 W/m 7,2 C 16,9 C 22,5 km/h (4 Bft) 96,67 %
10.04.2018 15:17 19,9 C 9,4 C 42 % 1001,0 hPa 0,0 l/m 14,0 km/h (3 Bft) O 98 1 min 0,000 mm 2,4 UV-I 658 W/m 6,6 C 17,4 C 22,5 km/h (4 Bft) 90,91 %
10.04.2018 15:18 19,8 C 9,4 C 42 % 1001,0 hPa 0,0 l/m 16,3 km/h (3 Bft) O 88 1 min 0,000 mm 2,4 UV-I 636 W/m 6,5 C 16,7 C 19,3 km/h (3 Bft) 96,97 %
10.04.2018 15:19 19,6 C 9,4 C 42 % 1001,1 hPa 0,0 l/m 15,4 km/h (3 Bft) O-SO 103 1 min 0,000 mm 2,4 UV-I 630 W/m 6,3 C 16,7 C 19,3 km/h (3 Bft) 100,00 %
10.04.2018 15:20 19,4 C 9,4 C 43 % 1001,0 hPa 0,0 l/m 13,6 km/h (3 Bft) O 100 1 min 0,000 mm 2,4 UV-I 633 W/m 6,5 C 16,9 C 17,7 km/h (3 Bft) 100,00 %
10.04.2018 15:21 19,4 C 9,4 C 44 % 1001,0 hPa 0,0 l/m 11,7 km/h (2 Bft) O-SO 117 1 min 0,000 mm 2,4 UV-I 636 W/m 6,8 C 17,4 C 16,1 km/h (3 Bft) 100,00 %
10.04.2018 15:22 19,3 C 9,4 C 44 % 1001,0 hPa 0,0 l/m 9,3 km/h (2 Bft) O 86 1 min 0,000 mm 2,3 UV-I 623 W/m 6,7 C 18,1 C 14,5 km/h (3 Bft) 100,00 %
10.04.2018 15:23 19,3 C 9,4 C 45 % 1001,0 hPa 0,0 l/m 9,2 km/h (2 Bft) NO 35 1 min 0,000 mm 2,3 UV-I 575 W/m 7,1 C 18,2 C 12,9 km/h (3 Bft) 100,00 %
10.04.2018 15:24 19,4 C 9,4 C 46 % 1001,0 hPa 0,0 l/m 10,7 km/h (2 Bft) N-NO 32 1 min 0,000 mm 2,2 UV-I 537 W/m 7,5 C 17,7 C 16,1 km/h (3 Bft) 100,00 %
10.04.2018 15:25 19,7 C 9,4 C 48 % 1001,0 hPa 0,0 l/m 10,9 km/h (2 Bft) NO 56 1 min 0,000 mm 2,2 UV-I 536 W/m 8,4 C 18,0 C 16,1 km/h (3 Bft) 100,00 %
10.04.2018 15:26 19,9 C 9,4 C 45 % 1001,0 hPa 0,0 l/m 11,3 km/h (2 Bft) O-NO 67 1 min 0,000 mm 2,2 UV-I 562 W/m 7,6 C 18,1 C 14,5 km/h (3 Bft) 100,00 %
10.04.2018 15:27 20,0 C 9,4 C 46 % 1001,0 hPa 0,0 l/m 14,9 km/h (3 Bft) NO 53 1 min 0,000 mm 2,2 UV-I 558 W/m 8,0 C 17,3 C 20,9 km/h (4 Bft) 95,83 %
10.04.2018 15:28 20,0 C 9,4 C 44 % 1000,9 hPa 0,0 l/m 13,1 km/h (3 Bft) NO 41 1 min 0,000 mm 2,2 UV-I 595 W/m 7,4 C 17,7 C 19,3 km/h (3 Bft) 100,00 %
10.04.2018 15:29 20,0 C 9,4 C 45 % 1001,0 hPa 0,0 l/m 18,4 km/h (3 Bft) NO 45 1 min 0,000 mm 2,2 UV-I 602 W/m 7,7 C 16,5 C 24,1 km/h (4 Bft) 96,15 %
10.04.2018 15:30 20,1 C 9,4 C 45 % 1000,9 hPa 0,0 l/m 17,6 km/h (3 Bft) NO 53 1 min 0,000 mm 2,2 UV-I 598 W/m 7,8 C 16,8 C 19,3 km/h (3 Bft) 100,00 %
10.04.2018 15:31 20,1 C 9,4 C 44 % 1000,9 hPa 0,0 l/m 17,1 km/h (3 Bft) N-NO 24 1 min 0,000 mm 2,2 UV-I 591 W/m 7,5 C 16,9 C 20,9 km/h (4 Bft) 100,00 %
10.04.2018 15:32 20,1 C 9,4 C 44 % 1000,9 hPa 0,0 l/m 16,3 km/h (3 Bft) NO 39 1 min 0,000 mm 2,2 UV-I 579 W/m 7,5 C 17,1 C 17,7 km/h (3 Bft) 100,00 %
10.04.2018 15:33 20,1 C 9,4 C 44 % 1000,9 hPa 0,0 l/m 11,0 km/h (2 Bft) NO 35 1 min 0,000 mm 2,2 UV-I 583 W/m 7,5 C 18,4 C 16,1 km/h (3 Bft) 100,00 %
10.04.2018 15:34 20,2 C 9,4 C 45 % 1001,0 hPa 0,0 l/m 12,9 km/h (3 Bft) O-NO 59 1 min 0,000 mm 2,2 UV-I 591 W/m 7,9 C 18,0 C 16,1 km/h (3 Bft) 100,00 %
10.04.2018 15:35 20,2 C 9,4 C 48 % 1001,0 hPa 0,0 l/m 10,9 km/h (2 Bft) O-NO 68 1 min 0,000 mm 2,1 UV-I 590 W/m 8,8 C 18,6 C 16,1 km/h (3 Bft) 100,00 %
10.04.2018 15:36 20,2 C 9,4 C 44 % 1001,0 hPa 0,0 l/m 6,8 km/h (2 Bft) NO 42 1 min 0,000 mm 2,1 UV-I 589 W/m 7,6 C 20,0 C 9,7 km/h (2 Bft) 100,00 %
10.04.2018 15:37 20,2 C 9,4 C 46 % 1001,0 hPa 0,0 l/m 11,9 km/h (2 Bft) O-NO 64 1 min 0,000 mm 2,1 UV-I 592 W/m 8,2 C 18,3 C 17,7 km/h (3 Bft) 100,00 %
10.04.2018 15:38 20,1 C 9,4 C 42 % 1000,9 hPa 0,0 l/m 15,0 km/h (3 Bft) O 85 1 min 0,000 mm 2,1 UV-I 565 W/m 6,8 C 17,4 C 19,3 km/h (3 Bft) 100,00 %
10.04.2018 15:39 19,8 C 9,4 C 42 % 1000,9 hPa 0,0 l/m 12,8 km/h (3 Bft) O 93 1 min 0,000 mm 2,0 UV-I 525 W/m 6,5 C 17,6 C 16,1 km/h (3 Bft) 100,00 %
10.04.2018 15:40 19,7 C 9,4 C 42 % 1001,0 hPa 0,0 l/m 14,7 km/h (3 Bft) O 98 1 min 0,000 mm 2,0 UV-I 507 W/m 6,4 C 17,0 C 17,7 km/h (3 Bft) 95,65 %
10.04.2018 15:41 19,6 C 9,4 C 42 % 1001,0 hPa 0,0 l/m 13,9 km/h (3 Bft) O-SO 103 1 min 0,000 mm 1,9 UV-I 511 W/m 6,3 C 17,0 C 17,7 km/h (3 Bft) 100,00 %
10.04.2018 15:42 19,5 C 9,4 C 43 % 1001,0 hPa 0,0 l/m 13,6 km/h (3 Bft) O-SO 102 1 min 0,000 mm 2,0 UV-I 529 W/m 6,6 C 17,0 C 17,7 km/h (3 Bft) 91,67 %
10.04.2018 15:43 19,5 C 9,4 C 43 % 1001,0 hPa 0,0 l/m 14,4 km/h (3 Bft) O-NO 76 1 min 0,000 mm 2,0 UV-I 563 W/m 6,6 C 16,8 C 19,3 km/h (3 Bft) 100,00 %
10.04.2018 15:44 19,5 C 9,4 C 42 % 1001,0 hPa 0,0 l/m 13,1 km/h (3 Bft) SO 130 1 min 0,000 mm 2,0 UV-I 560 W/m 6,2 C 17,1 C 16,1 km/h (3 Bft) 96,15 %
10.04.2018 15:45 19,4 C 9,4 C 42 % 1001,0 hPa 0,0 l/m 9,7 km/h (2 Bft) O-SO 103 1 min 0,000 mm 1,9 UV-I 555 W/m 6,2 C 18,1 C 14,5 km/h (3 Bft) 91,67 %
10.04.2018 15:46 19,4 C 9,4 C 44 % 1001,0 hPa 0,0 l/m 13,4 km/h (3 Bft) O 93 1 min 0,000 mm 1,8 UV-I 465 W/m 6,8 C 16,9 C 16,1 km/h (3 Bft) 100,00 %
10.04.2018 15:47 19,4 C 9,4 C 42 % 1001,1 hPa 0,0 l/m 6,4 km/h (2 Bft) O 92 1 min 0,000 mm 1,7 UV-I 457 W/m 6,2 C 19,4 C 14,5 km/h (3 Bft) 100,00 %
10.04.2018 15:48 19,4 C 9,4 C 43 % 1001,1 hPa 0,0 l/m 8,9 km/h (2 Bft) O 91 1 min 0,000 mm 1,4 UV-I 337 W/m 6,5 C 18,4 C 12,9 km/h (3 Bft) 100,00 %
10.04.2018 15:49 19,3 C 9,4 C 44 % 1001,1 hPa 0,0 l/m 13,0 km/h (3 Bft) O 96 0 min 0,000 mm 1,3 UV-I 173 W/m 6,7 C 16,9 C 17,7 km/h (3 Bft) 100,00 %
10.04.2018 15:50 19,3 C 9,4 C 43 % 1001,1 hPa 0,0 l/m 8,3 km/h (2 Bft) O-SO 107 0 min 0,000 mm 1,3 UV-I 188 W/m 6,4 C 18,5 C 11,3 km/h (2 Bft) 100,00 %
10.04.2018 15:51 19,1 C 9,4 C 43 % 1001,1 hPa 0,0 l/m 6,9 km/h (2 Bft) SO 128 0 min 0,000 mm 1,4 UV-I 202 W/m 6,2 C 18,9 C 12,9 km/h (3 Bft) 100,00 %
10.04.2018 15:52 19,1 C 9,4 C 43 % 1001,1 hPa 0,0 l/m 3,6 km/h (1 Bft) O-SO 103 0 min 0,000 mm 1,6 UV-I 279 W/m 6,2 C 19,1 C 6,4 km/h (2 Bft) 95,83 %
10.04.2018 15:53 19,1 C 9,4 C 43 % 1001,1 hPa 0,0 l/m 5,3 km/h (1 Bft) O-NO 66 0 min 0,000 mm 1,8 UV-I 283 W/m 6,2 C 19,1 C 6,4 km/h (2 Bft) 100,00 %
10.04.2018 15:54 19,2 C 9,4 C 44 % 1001,1 hPa 0,0 l/m 5,4 km/h (1 Bft) O-NO 63 1 min 0,000 mm 1,7 UV-I 342 W/m 6,7 C 19,2 C 8,0 km/h (2 Bft) 95,83 %
10.04.2018 15:55 19,3 C 9,4 C 45 % 1001,1 hPa 0,0 l/m 4,5 km/h (1 Bft) O 85 1 min 0,000 mm 1,7 UV-I 475 W/m 7,1 C 19,3 C 6,4 km/h (2 Bft) 100,00 %
10.04.2018 15:56 19,4 C 9,4 C 45 % 1001,0 hPa 0,0 l/m 3,9 km/h (1 Bft) O 89 1 min 0,000 mm 1,7 UV-I 505 W/m 7,2 C 19,4 C 4,8 km/h (1 Bft) 96,67 %
10.04.2018 15:57 19,4 C 9,4 C 45 % 1001,1 hPa 0,0 l/m 10,5 km/h (2 Bft) O-NO 63 1 min 0,000 mm 1,5 UV-I 515 W/m 7,2 C 17,8 C 19,3 km/h (3 Bft) 100,00 %
10.04.2018 15:58 19,4 C 9,4 C 42 % 1001,1 hPa 0,0 l/m 15,5 km/h (3 Bft) O-NO 78 1 min 0,000 mm 1,3 UV-I 469 W/m 6,2 C 16,4 C 17,7 km/h (3 Bft) 100,00 %
10.04.2018 15:59 19,3 C 9,4 C 43 % 1001,0 hPa 0,0 l/m 13,1 km/h (3 Bft) SO 130 0 min 0,000 mm 1,3 UV-I 223 W/m 6,4 C 16,9 C 16,1 km/h (3 Bft) 100,00 %
10.04.2018 16:00 19,3 C 9,4 C 43 % 1001,1 hPa 0,0 l/m 15,5 km/h (3 Bft) O 80 1 min 0,000 mm 1,5 UV-I 326 W/m 6,4 C 16,3 C 20,9 km/h (4 Bft) 100,00 %
10.04.2018 16:02 19,3 C 9,4 C 43 % 1001,0 hPa 0,0 l/m 6,8 km/h (2 Bft) N-NO 30 2 min 0,432 mm 1,4 UV-I 501 W/m 6,4 C 19,1 C 11,3 km/h (2 Bft) 96,00 %
10.04.2018 16:03 19,5 C 9,4 C 45 % 1001,0 hPa 0,0 l/m 5,6 km/h (1 Bft) NO 49 0 min 0,000 mm 1,3 UV-I 258 W/m 7,2 C 19,5 C 8,0 km/h (2 Bft) 100,00 %
10.04.2018 16:04 19,6 C 9,4 C 44 % 1001,0 hPa 0,0 l/m 6,6 km/h (2 Bft) O 98 0 min 0,000 mm 1,4 UV-I 274 W/m 7,0 C 19,5 C 11,3 km/h (2 Bft) 100,00 %
10.04.2018 16:05 19,6 C 9,4 C 41 % 1001,0 hPa 0,0 l/m 9,7 km/h (2 Bft) NO 34 1 min 0,000 mm 1,3 UV-I 377 W/m 6,0 C 18,3 C 14,5 km/h (3 Bft) 100,00 %
10.04.2018 16:07 19,8 C 9,4 C 45 % 1001,0 hPa 0,0 l/m 8,0 km/h (2 Bft) N-NO 28 2 min 0,000 mm 1,2 UV-I 333 W/m 7,5 C 19,1 C 14,5 km/h (3 Bft) 98,21 %
10.04.2018 16:08 19,8 C 9,4 C 43 % 1001,0 hPa 0,0 l/m 13,9 km/h (3 Bft) NO 55 1 min 0,000 mm 1,0 UV-I 350 W/m 6,9 C 17,3 C 16,1 km/h (3 Bft) 93,33 %
10.04.2018 16:09 19,7 C 9,4 C 43 % 1001,0 hPa 0,0 l/m 13,1 km/h (3 Bft) NO 43 0 min 0,000 mm 1,0 UV-I 234 W/m 6,8 C 17,4 C 20,9 km/h (4 Bft) 100,00 %
10.04.2018 16:10 19,7 C 9,4 C 43 % 1001,0 hPa 0,0 l/m 10,5 km/h (2 Bft) O-NO 61 0 min 0,000 mm 0,9 UV-I 216 W/m 6,8 C 18,1 C 14,5 km/h (3 Bft) 90,91 %
10.04.2018 16:11 19,6 C 9,4 C 44 % 1001,0 hPa 0,0 l/m 14,8 km/h (3 Bft) O-NO 57 0 min 0,000 mm 0,9 UV-I 205 W/m 7,0 C 16,8 C 22,5 km/h (4 Bft) 100,00 %
10.04.2018 16:12 19,4 C 9,4 C 44 % 1001,1 hPa 0,0 l/m 11,7 km/h (2 Bft) O-NO 71 0 min 0,000 mm 0,9 UV-I 202 W/m 6,8 C 17,4 C 16,1 km/h (3 Bft) 93,33 %
10.04.2018 16:13 19,3 C 9,4 C 42 % 1001,1 hPa 0,0 l/m 9,4 km/h (2 Bft) O-NO 57 0 min 0,000 mm 0,8 UV-I 202 W/m 6,1 C 18,1 C 14,5 km/h (3 Bft) 97,56 %
10.04.2018 16:14 19,2 C 9,4 C 43 % 1001,0 hPa 0,0 l/m 10,7 km/h (2 Bft) NO 40 0 min 0,000 mm 0,8 UV-I 201 W/m 6,3 C 17,5 C 14,5 km/h (3 Bft) 100,00 %
10.04.2018 16:15 19,2 C 9,4 C 46 % 1001,0 hPa 0,0 l/m 11,3 km/h (2 Bft) NO 53 0 min 0,000 mm 0,8 UV-I 199 W/m 7,3 C 17,3 C 16,1 km/h (3 Bft) 96,30 %
10.04.2018 16:16 19,2 C 9,4 C 44 % 1001,0 hPa 0,0 l/m 11,3 km/h (2 Bft) O-NO 57 0 min 0,000 mm 0,8 UV-I 192 W/m 6,7 C 17,3 C 14,5 km/h (3 Bft) 100,00 %
10.04.2018 16:17 19,1 C 9,4 C 44 % 1001,0 hPa 0,0 l/m 7,2 km/h (2 Bft) NO 55 0 min 0,000 mm 0,8 UV-I 188 W/m 6,6 C 18,7 C 11,3 km/h (2 Bft) 97,37 %
10.04.2018 16:18 19,1 C 9,4 C 45 % 1001,0 hPa 0,0 l/m 7,8 km/h (2 Bft) NO 41 0 min 0,000 mm 0,8 UV-I 182 W/m 6,9 C 18,5 C 9,7 km/h (2 Bft) 96,15 %
10.04.2018 16:19 19,1 C 9,4 C 45 % 1001,0 hPa 0,0 l/m 8,6 km/h (2 Bft) O-NO 59 0 min 0,000 mm 0,8 UV-I 177 W/m 6,9 C 18,2 C 11,3 km/h (2 Bft) 100,00 %
10.04.2018 16:20 19,1 C 9,4 C 47 % 1001,0 hPa 0,0 l/m 9,9 km/h (2 Bft) O-NO 66 0 min 0,000 mm 0,7 UV-I 176 W/m 7,5 C 17,7 C 14,5 km/h (3 Bft) 95,65 %
10.04.2018 16:21 19,0 C 9,4 C 45 % 1001,0 hPa 0,0 l/m 9,8 km/h (2 Bft) O-NO 59 0 min 0,000 mm 0,7 UV-I 176 W/m 6,8 C 17,6 C 14,5 km/h (3 Bft) 100,00 %
10.04.2018 16:22 19,0 C 9,4 C 45 % 1001,0 hPa 0,0 l/m 9,3 km/h (2 Bft) NO 45 0 min 0,000 mm 0,7 UV-I 179 W/m 6,8 C 17,8 C 12,9 km/h (3 Bft) 96,15 %
10.04.2018 16:23 19,0 C 9,4 C 46 % 1001,0 hPa 0,0 l/m 7,1 km/h (2 Bft) O 83 0 min 0,000 mm 0,7 UV-I 186 W/m 7,1 C 18,7 C 11,3 km/h (2 Bft) 100,00 %
10.04.2018 16:24 18,9 C 9,4 C 45 % 1001,0 hPa 0,0 l/m 7,1 km/h (2 Bft) O-NO 66 0 min 0,000 mm 0,8 UV-I 194 W/m 6,7 C 18,6 C 11,3 km/h (2 Bft) 96,15 %
10.04.2018 16:25 18,9 C 9,4 C 44 % 1001,0 hPa 0,0 l/m 6,6 km/h (2 Bft) O-NO 61 0 min 0,000 mm 0,8 UV-I 201 W/m 6,4 C 18,8 C 8,0 km/h (2 Bft) 100,00 %
10.04.2018 16:26 18,9 C 9,4 C 46 % 1001,0 hPa 0,0 l/m 8,9 km/h (2 Bft) O-NO 65 0 min 0,000 mm 0,8 UV-I 206 W/m 7,0 C 17,8 C 11,3 km/h (2 Bft) 93,33 %
10.04.2018 16:27 18,9 C 9,4 C 46 % 1001,0 hPa 0,0 l/m 7,8 km/h (2 Bft) O-NO 59 0 min 0,000 mm 0,8 UV-I 209 W/m 7,0 C 18,3 C 9,7 km/h (2 Bft) 100,00 %
10.04.2018 16:28 19,0 C 9,4 C 46 % 1000,9 hPa 0,0 l/m 10,0 km/h (2 Bft) NO 43 0 min 0,000 mm 0,8 UV-I 211 W/m 7,1 C 17,5 C 14,5 km/h (3 Bft) 96,67 %
10.04.2018 16:29 19,0 C 9,4 C 46 % 1000,9 hPa 0,0 l/m 10,1 km/h (2 Bft) O-NO 63 0 min 0,000 mm 0,8 UV-I 212 W/m 7,1 C 17,5 C 16,1 km/h (3 Bft) 95,65 %
10.04.2018 16:30 19,0 C 9,4 C 47 % 1000,9 hPa 0,0 l/m 11,5 km/h (2 Bft) O-NO 64 0 min 0,000 mm 0,8 UV-I 216 W/m 7,4 C 17,0 C 14,5 km/h (3 Bft) 100,00 %
10.04.2018 16:31 19,0 C 9,4 C 46 % 1000,9 hPa 0,0 l/m 7,4 km/h (2 Bft) O-NO 65 0 min 0,000 mm 0,9 UV-I 222 W/m 7,1 C 18,6 C 11,3 km/h (2 Bft) 92,31 %
10.04.2018 16:32 19,0 C 9,4 C 45 % 1000,9 hPa 0,0 l/m 7,3 km/h (2 Bft) NO 56 0 min 0,000 mm 0,9 UV-I 229 W/m 6,8 C 18,6 C 11,3 km/h (2 Bft) 100,00 %
10.04.2018 16:33 19,0 C 9,4 C 45 % 1000,9 hPa 0,0 l/m 8,9 km/h (2 Bft) O-NO 71 0 min 0,000 mm 0,9 UV-I 239 W/m 6,8 C 17,9 C 12,9 km/h (3 Bft) 95,65 %
10.04.2018 16:34 19,0 C 9,4 C 45 % 1000,9 hPa 0,0 l/m 10,1 km/h (2 Bft) O-NO 59 0 min 0,000 mm 0,9 UV-I 243 W/m 6,8 C 17,5 C 14,5 km/h (3 Bft) 100,00 %
10.04.2018 16:35 19,0 C 9,4 C 46 % 1000,9 hPa 0,0 l/m 7,7 km/h (2 Bft) O-NO 69 0 min 0,000 mm 0,9 UV-I 246 W/m 7,1 C 18,4 C 9,7 km/h (2 Bft) 92,31 %
10.04.2018 16:36 19,0 C 9,4 C 46 % 1000,9 hPa 0,0 l/m 8,6 km/h (2 Bft) O-NO 67 0 min 0,000 mm 0,9 UV-I 245 W/m 7,1 C 18,1 C 9,7 km/h (2 Bft) 100,00 %
10.04.2018 16:37 19,1 C 9,4 C 46 % 1000,9 hPa 0,0 l/m 11,5 km/h (2 Bft) NO 40 0 min 0,000 mm 0,9 UV-I 243 W/m 7,2 C 17,1 C 16,1 km/h (3 Bft) 95,65 %
10.04.2018 16:40 19,1 C 9,4 C 46 % 1000,9 hPa 0,0 l/m 11,2 km/h (2 Bft) O-NO 68 0 min 0,000 mm 0,9 UV-I 242 W/m 7,2 C 17,2 C 14,5 km/h (3 Bft) 100,00 %
10.04.2018 16:41 19,0 C 9,4 C 46 % 1000,8 hPa 0,0 l/m 8,9 km/h (2 Bft) O-NO 63 0 min 0,000 mm 0,9 UV-I 246 W/m 7,1 C 17,9 C 14,5 km/h (3 Bft) 100,00 %
10.04.2018 16:42 19,0 C 9,4 C 45 % 1000,8 hPa 0,0 l/m 10,5 km/h (2 Bft) O-NO 64 1 min 0,000 mm 1,0 UV-I 283 W/m 6,8 C 17,4 C 12,9 km/h (3 Bft) 96,67 %
10.04.2018 16:43 18,9 C 9,4 C 46 % 1000,9 hPa 0,0 l/m 5,4 km/h (1 Bft) O-NO 70 1 min 0,000 mm 1,0 UV-I 282 W/m 7,0 C 18,9 C 8,0 km/h (2 Bft) 100,00 %
10.04.2018 16:44 18,9 C 9,4 C 45 % 1000,9 hPa 0,0 l/m 5,7 km/h (1 Bft) O 92 0 min 0,000 mm 1,0 UV-I 262 W/m 6,7 C 18,9 C 9,7 km/h (2 Bft) 100,00 %
10.04.2018 16:45 18,9 C 9,4 C 46 % 1000,8 hPa 0,0 l/m 5,6 km/h (1 Bft) NO 43 0 min 0,000 mm 0,9 UV-I 259 W/m 7,0 C 18,9 C 8,0 km/h (2 Bft) 92,31 %
10.04.2018 16:46 19,0 C 9,4 C 49 % 1000,9 hPa 0,0 l/m 12,4 km/h (3 Bft) NO 49 0 min 0,000 mm 0,9 UV-I 257 W/m 8,0 C 16,8 C 16,1 km/h (3 Bft) 100,00 %
10.04.2018 16:47 19,1 C 9,4 C 46 % 1000,9 hPa 0,0 l/m 11,0 km/h (2 Bft) O-NO 59 0 min 0,000 mm 0,9 UV-I 259 W/m 7,2 C 17,3 C 14,5 km/h (3 Bft) 100,00 %
10.04.2018 16:48 19,1 C 9,4 C 46 % 1000,9 hPa 0,0 l/m 8,2 km/h (2 Bft) O-NO 64 0 min 0,000 mm 0,9 UV-I 261 W/m 7,2 C 18,3 C 9,7 km/h (2 Bft) 97,67 %
10.04.2018 16:49 19,1 C 9,4 C 46 % 1000,8 hPa 0,0 l/m 7,2 km/h (2 Bft) NO 50 0 min 0,000 mm 0,9 UV-I 258 W/m 7,2 C 18,7 C 9,7 km/h (2 Bft) 100,00 %
10.04.2018 16:50 19,2 C 9,4 C 47 % 1000,9 hPa 0,0 l/m 7,1 km/h (2 Bft) O-NO 65 1 min 0,000 mm 0,9 UV-I 259 W/m 7,6 C 18,9 C 9,7 km/h (2 Bft) 100,00 %
10.04.2018 16:51 19,2 C 9,4 C 47 % 1000,9 hPa 0,0 l/m 6,7 km/h (2 Bft) N-NO 28 1 min 0,000 mm 0,9 UV-I 286 W/m 7,6 C 19,1 C 9,7 km/h (2 Bft) 96,15 %
10.04.2018 16:52 19,2 C 9,4 C 48 % 1000,9 hPa 0,0 l/m 9,0 km/h (2 Bft) NO 39 1 min 0,000 mm 0,9 UV-I 305 W/m 7,9 C 18,1 C 12,9 km/h (3 Bft) 100,00 %
10.04.2018 16:53 19,3 C 9,4 C 47 % 1000,9 hPa 0,0 l/m 8,8 km/h (2 Bft) NO 38 1 min 0,000 mm 0,9 UV-I 322 W/m 7,7 C 18,3 C 9,7 km/h (2 Bft) 100,00 %
10.04.2018 16:54 19,4 C 9,4 C 46 % 1000,9 hPa 0,0 l/m 8,4 km/h (2 Bft) NO 46 1 min 0,000 mm 0,9 UV-I 324 W/m 7,5 C 18,6 C 9,7 km/h (2 Bft) 100,00 %
10.04.2018 16:55 19,4 C 9,4 C 44 % 1000,9 hPa 0,0 l/m 8,3 km/h (2 Bft) N-NO 33 1 min 0,000 mm 0,8 UV-I 308 W/m 6,8 C 18,6 C 9,7 km/h (2 Bft) 100,00 %
10.04.2018 16:56 19,4 C 9,4 C 44 % 1000,9 hPa 0,0 l/m 7,8 km/h (2 Bft) NO 50 1 min 0,000 mm 0,8 UV-I 306 W/m 6,8 C 18,8 C 11,3 km/h (2 Bft) 100,00 %
10.04.2018 16:58 19,6 C 9,4 C 46 % 1000,8 hPa 0,0 l/m 10,0 km/h (2 Bft) NO 42 2 min 0,000 mm 0,8 UV-I 277 W/m 7,7 C 18,2 C 14,5 km/h (3 Bft) 100,00 %
10.04.2018 16:59 19,6 C 9,4 C 44 % 1000,8 hPa 0,0 l/m 8,3 km/h (2 Bft) O-NO 69 0 min 0,000 mm 0,7 UV-I 223 W/m 7,0 C 18,8 C 12,9 km/h (3 Bft) 100,00 %
10.04.2018 17:00 19,5 C 9,4 C 46 % 1000,8 hPa 0,0 l/m 13,0 km/h (3 Bft) N-NO 28 0 min 0,228 mm 0,7 UV-I 208 W/m 7,6 C 17,2 C 16,1 km/h (3 Bft) 100,00 %
10.04.2018 17:01 19,4 C 9,4 C 47 % 1000,8 hPa 0,0 l/m 9,7 km/h (2 Bft) NO 49 0 min 0,000 mm 0,7 UV-I 197 W/m 7,8 C 18,1 C 14,5 km/h (3 Bft) 100,00 %
10.04.2018 17:02 19,3 C 9,4 C 47 % 1000,8 hPa 0,0 l/m 12,9 km/h (3 Bft) N-NO 26 0 min 0,000 mm 0,6 UV-I 192 W/m 7,7 C 17,0 C 19,3 km/h (3 Bft) 100,00 %
10.04.2018 17:03 19,3 C 9,4 C 46 % 1000,7 hPa 0,0 l/m 12,8 km/h (3 Bft) NO 42 0 min 0,000 mm 0,6 UV-I 188 W/m 7,4 C 17,0 C 16,1 km/h (3 Bft) 100,00 %
10.04.2018 17:04 19,3 C 9,4 C 46 % 1000,8 hPa 0,0 l/m 9,4 km/h (2 Bft) NO 47 0 min 0,000 mm 0,6 UV-I 184 W/m 7,4 C 18,1 C 14,5 km/h (3 Bft) 97,71 %
10.04.2018 17:05 19,3 C 9,4 C 46 % 1000,8 hPa 0,0 l/m 9,9 km/h (2 Bft) NO 34 0 min 0,000 mm 0,6 UV-I 174 W/m 7,4 C 17,9 C 14,5 km/h (3 Bft) 100,00 %
10.04.2018 17:06 19,2 C 9,4 C 46 % 1000,8 hPa 0,0 l/m 10,2 km/h (2 Bft) NO 36 0 min 0,000 mm 0,6 UV-I 170 W/m 7,3 C 17,7 C 11,3 km/h (2 Bft) 100,00 %
10.04.2018 17:07 19,2 C 9,4 C 46 % 1000,7 hPa 0,0 l/m 12,5 km/h (3 Bft) N 10 0 min 0,000 mm 0,5 UV-I 164 W/m 7,3 C 17,0 C 14,5 km/h (3 Bft) 100,00 %
10.04.2018 17:08 19,2 C 9,4 C 46 % 1000,7 hPa 0,0 l/m 14,2 km/h (3 Bft) N-NO 21 0 min 0,000 mm 0,5 UV-I 162 W/m 7,3 C 16,5 C 17,7 km/h (3 Bft) 100,00 %
10.04.2018 17:09 19,2 C 9,4 C 46 % 1000,7 hPa 0,0 l/m 11,6 km/h (2 Bft) N-NO 15 0 min 0,000 mm 0,5 UV-I 158 W/m 7,3 C 17,2 C 17,7 km/h (3 Bft) 95,83 %
10.04.2018 17:10 19,2 C 9,4 C 45 % 1000,7 hPa 0,0 l/m 9,2 km/h (2 Bft) N-NO 26 0 min 0,000 mm 0,5 UV-I 155 W/m 7,0 C 18,0 C 12,9 km/h (3 Bft) 96,15 %
10.04.2018 17:11 19,2 C 9,4 C 46 % 1000,7 hPa 0,0 l/m 13,0 km/h (3 Bft) N-NO 21 0 min 0,000 mm 0,5 UV-I 153 W/m 7,3 C 16,8 C 16,1 km/h (3 Bft) 91,67 %
10.04.2018 17:12 19,1 C 9,4 C 47 % 1000,7 hPa 0,0 l/m 9,5 km/h (2 Bft) N-NO 30 0 min 0,000 mm 0,5 UV-I 150 W/m 7,5 C 17,8 C 14,5 km/h (3 Bft) 100,00 %
10.04.2018 17:13 19,1 C 9,4 C 47 % 1000,7 hPa 0,0 l/m 12,4 km/h (3 Bft) N-NO 24 0 min 0,000 mm 0,5 UV-I 149 W/m 7,5 C 16,9 C 14,5 km/h (3 Bft) 100,00 %
10.04.2018 17:14 19,0 C 9,4 C 46 % 1000,7 hPa 0,0 l/m 10,7 km/h (2 Bft) N-NO 24 0 min 0,000 mm 0,5 UV-I 149 W/m 7,1 C 17,3 C 14,5 km/h (3 Bft) 100,00 %
10.04.2018 17:15 18,9 C 9,4 C 45 % 1000,7 hPa 0,0 l/m 7,9 km/h (2 Bft) NO 42 0 min 0,000 mm 0,0 UV-I 148 W/m 6,7 C 18,2 C 11,3 km/h (2 Bft) 100,00 %
10.04.2018 17:16 18,9 C 9,4 C 48 % 1000,7 hPa 0,0 l/m 7,2 km/h (2 Bft) NO 38 0 min 0,000 mm 0,0 UV-I 149 W/m 7,6 C 18,5 C 8,0 km/h (2 Bft) 100,00 %
10.04.2018 17:17 18,9 C 9,4 C 48 % 1000,7 hPa 0,0 l/m 7,8 km/h (2 Bft) NO 38 0 min 0,000 mm 0,0 UV-I 150 W/m 7,6 C 18,3 C 11,3 km/h (2 Bft) 100,00 %
10.04.2018 17:18 18,8 C 9,4 C 48 % 1000,7 hPa 0,0 l/m 7,7 km/h (2 Bft) NO 46 0 min 0,000 mm 0,0 UV-I 150 W/m 7,6 C 18,2 C 9,7 km/h (2 Bft) 100,00 %
10.04.2018 17:19 18,8 C 9,4 C 50 % 1000,7 hPa 0,0 l/m 8,2 km/h (2 Bft) O-NO 57 0 min 0,000 mm 0,0 UV-I 148 W/m 8,2 C 18,0 C 9,7 km/h (2 Bft) 100,00 %
10.04.2018 17:20 18,8 C 9,4 C 49 % 1000,7 hPa 0,0 l/m 7,4 km/h (2 Bft) NO 44 0 min 0,000 mm 0,0 UV-I 148 W/m 7,9 C 18,4 C 9,7 km/h (2 Bft) 100,00 %
10.04.2018 17:21 18,7 C 9,4 C 48 % 1000,7 hPa 0,0 l/m 8,6 km/h (2 Bft) NO 46 0 min 0,000 mm 0,0 UV-I 146 W/m 7,5 C 17,7 C 9,7 km/h (2 Bft) 100,00 %
10.04.2018 17:22 18,7 C 9,4 C 49 % 1000,7 hPa 0,0 l/m 8,1 km/h (2 Bft) NO 42 0 min 0,000 mm 0,0 UV-I 145 W/m 7,8 C 17,9 C 9,7 km/h (2 Bft) 100,00 %
10.04.2018 17:23 18,7 C 9,4 C 49 % 1000,7 hPa 0,0 l/m 8,4 km/h (2 Bft) NO 42 0 min 0,000 mm 0,0 UV-I 144 W/m 7,8 C 17,8 C 11,3 km/h (2 Bft) 100,00 %
10.04.2018 17:24 18,7 C 9,4 C 49 % 1000,7 hPa 0,0 l/m 7,4 km/h (2 Bft) NO 46 0 min 0,000 mm 0,0 UV-I 144 W/m 7,8 C 18,2 C 9,7 km/h (2 Bft) 96,30 %
10.04.2018 17:25 18,7 C 9,4 C 50 % 1000,8 hPa 0,0 l/m 5,6 km/h (1 Bft) O-NO 57 0 min 0,000 mm 0,0 UV-I 146 W/m 8,1 C 18,7 C 8,0 km/h (2 Bft) 100,00 %
10.04.2018 17:26 18,7 C 9,4 C 49 % 1000,8 hPa 0,0 l/m 6,8 km/h (2 Bft) O-NO 57 0 min 0,000 mm 0,0 UV-I 141 W/m 7,8 C 18,5 C 9,7 km/h (2 Bft) 100,00 %
10.04.2018 17:28 18,7 C 9,4 C 48 % 1000,8 hPa 0,0 l/m 9,6 km/h (2 Bft) O-NO 59 0 min 0,000 mm 0,0 UV-I 138 W/m 7,5 C 17,4 C 16,1 km/h (3 Bft) 100,00 %
10.04.2018 17:29 18,7 C 9,4 C 48 % 1000,8 hPa 0,0 l/m 9,6 km/h (2 Bft) O-NO 60 0 min 0,000 mm 0,0 UV-I 137 W/m 7,5 C 17,4 C 11,3 km/h (2 Bft) 96,15 %
10.04.2018 17:30 18,7 C 9,4 C 47 % 1000,8 hPa 0,0 l/m 7,7 km/h (2 Bft) O-NO 60 0 min 0,000 mm 0,0 UV-I 137 W/m 7,2 C 18,1 C 12,9 km/h (3 Bft) 100,00 %
10.04.2018 17:31 18,7 C 9,4 C 47 % 1000,8 hPa 0,0 l/m 6,2 km/h (2 Bft) O-NO 63 0 min 0,000 mm 0,0 UV-I 137 W/m 7,2 C 18,7 C 8,0 km/h (2 Bft) 100,00 %
10.04.2018 17:32 18,7 C 9,4 C 47 % 1000,8 hPa 0,0 l/m 8,0 km/h (2 Bft) O-NO 74 0 min 0,000 mm 0,0 UV-I 139 W/m 7,2 C 18,0 C 11,3 km/h (2 Bft) 100,00 %
10.04.2018 17:33 18,7 C 9,4 C 47 % 1000,7 hPa 0,0 l/m 7,4 km/h (2 Bft) O-NO 58 0 min 0,000 mm 0,0 UV-I 139 W/m 7,2 C 18,2 C 9,7 km/h (2 Bft) 96,15 %
10.04.2018 17:34 18,7 C 9,4 C 45 % 1000,8 hPa 0,0 l/m 5,9 km/h (2 Bft) NO 40 0 min 0,000 mm 0,0 UV-I 140 W/m 6,5 C 18,7 C 9,7 km/h (2 Bft) 95,83 %
10.04.2018 17:35 18,7 C 9,4 C 45 % 1000,8 hPa 0,0 l/m 5,6 km/h (1 Bft) O-NO 69 0 min 0,000 mm 0,0 UV-I 141 W/m 6,5 C 18,7 C 8,0 km/h (2 Bft) 100,00 %
10.04.2018 17:36 18,7 C 9,4 C 45 % 1000,8 hPa 0,0 l/m 5,1 km/h (1 Bft) O-NO 63 0 min 0,000 mm 0,0 UV-I 140 W/m 6,5 C 18,7 C 6,4 km/h (2 Bft) 100,00 %
10.04.2018 17:37 18,7 C 9,4 C 47 % 1000,8 hPa 0,0 l/m 4,2 km/h (1 Bft) O-NO 76 0 min 0,000 mm 0,0 UV-I 139 W/m 7,2 C 18,7 C 4,8 km/h (1 Bft) 100,00 %
10.04.2018 17:38 18,7 C 9,4 C 46 % 1000,8 hPa 0,0 l/m 3,8 km/h (1 Bft) O-NO 64 0 min 0,000 mm 0,0 UV-I 139 W/m 6,8 C 18,7 C 4,8 km/h (1 Bft) 100,00 %
10.04.2018 17:39 18,7 C 9,4 C 46 % 1000,8 hPa 0,0 l/m 4,7 km/h (1 Bft) O-NO 74 0 min 0,000 mm 0,0 UV-I 136 W/m 6,8 C 18,7 C 8,0 km/h (2 Bft) 100,00 %
10.04.2018 17:40 18,6 C 9,4 C 47 % 1000,9 hPa 0,0 l/m 5,3 km/h (1 Bft) NO 47 0 min 0,000 mm 0,0 UV-I 134 W/m 7,1 C 18,6 C 8,0 km/h (2 Bft) 100,00 %
10.04.2018 17:41 18,6 C 9,4 C 50 % 1000,9 hPa 0,0 l/m 4,6 km/h (1 Bft) NO 55 0 min 0,000 mm 0,0 UV-I 133 W/m 8,0 C 18,6 C 6,4 km/h (2 Bft) 96,30 %
10.04.2018 17:42 18,6 C 9,4 C 51 % 1000,9 hPa 0,0 l/m 4,9 km/h (1 Bft) NO 49 0 min 0,000 mm 0,0 UV-I 130 W/m 8,3 C 18,6 C 8,0 km/h (2 Bft) 100,00 %
10.04.2018 17:43 18,5 C 9,4 C 50 % 1000,9 hPa 0,0 l/m 8,6 km/h (2 Bft) NO 47 0 min 0,000 mm 0,0 UV-I 130 W/m 7,9 C 17,5 C 11,3 km/h (2 Bft) 100,00 %
10.04.2018 17:44 18,5 C 9,4 C 49 % 1000,9 hPa 0,0 l/m 6,0 km/h (2 Bft) N-NO 32 0 min 0,000 mm 0,0 UV-I 128 W/m 7,6 C 18,5 C 9,7 km/h (2 Bft) 100,00 %
10.04.2018 17:45 18,5 C 9,4 C 50 % 1000,9 hPa 0,0 l/m 6,4 km/h (2 Bft) NO 51 0 min 0,000 mm 0,0 UV-I 128 W/m 7,9 C 18,5 C 9,7 km/h (2 Bft) 97,78 %
10.04.2018 17:46 18,4 C 9,4 C 50 % 1000,9 hPa 0,0 l/m 6,2 km/h (2 Bft) O-NO 59 0 min 0,000 mm 0,0 UV-I 127 W/m 7,8 C 18,4 C 8,0 km/h (2 Bft) 100,00 %
10.04.2018 17:47 18,4 C 9,4 C 50 % 1000,9 hPa 0,0 l/m 5,0 km/h (1 Bft) NO 43 0 min 0,000 mm 0,0 UV-I 126 W/m 7,8 C 18,4 C 6,4 km/h (2 Bft) 100,00 %
10.04.2018 17:48 18,4 C 9,4 C 51 % 1000,9 hPa 0,0 l/m 6,5 km/h (2 Bft) NO 53 0 min 0,000 mm 0,0 UV-I 123 W/m 8,1 C 18,4 C 8,0 km/h (2 Bft) 100,00 %
10.04.2018 17:49 18,4 C 9,4 C 50 % 1000,9 hPa 0,0 l/m 6,6 km/h (2 Bft) NO 53 0 min 0,000 mm 0,0 UV-I 123 W/m 7,8 C 18,3 C 8,0 km/h (2 Bft) 100,00 %
10.04.2018 17:50 18,4 C 9,4 C 49 % 1000,9 hPa 0,0 l/m 6,3 km/h (2 Bft) NO 42 0 min 0,000 mm 0,0 UV-I 121 W/m 7,5 C 18,4 C 8,0 km/h (2 Bft) 100,00 %
10.04.2018 17:51 18,4 C 9,4 C 50 % 1000,9 hPa 0,0 l/m 7,0 km/h (2 Bft) NO 42 0 min 0,000 mm 0,0 UV-I 119 W/m 7,8 C 18,1 C 8,0 km/h (2 Bft) 97,80 %
10.04.2018 17:52 18,3 C 9,4 C 49 % 1000,9 hPa 0,0 l/m 6,0 km/h (2 Bft) NO 55 0 min 0,000 mm 0,0 UV-I 117 W/m 7,4 C 18,3 C 8,0 km/h (2 Bft) 100,00 %
10.04.2018 17:53 18,3 C 9,4 C 51 % 1000,9 hPa 0,0 l/m 6,0 km/h (2 Bft) O-NO 67 0 min 0,000 mm 0,0 UV-I 115 W/m 8,0 C 18,3 C 8,0 km/h (2 Bft) 100,00 %
10.04.2018 17:54 18,3 C 9,4 C 53 % 1000,9 hPa 0,0 l/m 6,4 km/h (2 Bft) O-NO 58 0 min 0,000 mm 0,0 UV-I 113 W/m 8,6 C 18,3 C 8,0 km/h (2 Bft) 92,59 %
10.04.2018 17:55 18,2 C 9,4 C 52 % 1000,9 hPa 0,0 l/m 5,7 km/h (1 Bft) NO 44 0 min 0,000 mm 0,0 UV-I 111 W/m 8,2 C 18,2 C 6,4 km/h (2 Bft) 100,00 %
10.04.2018 17:56 18,2 C 9,4 C 53 % 1000,9 hPa 0,0 l/m 7,3 km/h (2 Bft) NO 55 0 min 0,000 mm 0,0 UV-I 109 W/m 8,5 C 17,8 C 11,3 km/h (2 Bft) 100,00 %
10.04.2018 17:57 18,2 C 9,4 C 53 % 1000,9 hPa 0,0 l/m 8,3 km/h (2 Bft) NO 47 0 min 0,000 mm 0,0 UV-I 106 W/m 8,5 C 17,3 C 9,7 km/h (2 Bft) 100,00 %
10.04.2018 17:58 18,1 C 9,4 C 52 % 1000,9 hPa 0,0 l/m 8,5 km/h (2 Bft) O-NO 61 0 min 0,000 mm 0,0 UV-I 104 W/m 8,1 C 17,1 C 11,3 km/h (2 Bft) 100,00 %
10.04.2018 17:59 18,1 C 9,4 C 52 % 1000,9 hPa 0,0 l/m 7,8 km/h (2 Bft) O-NO 63 0 min 0,000 mm 0,0 UV-I 104 W/m 8,1 C 17,4 C 9,7 km/h (2 Bft) 95,65 %
10.04.2018 18:00 18,1 C 9,4 C 53 % 1000,9 hPa 0,0 l/m 7,0 km/h (2 Bft) O-NO 61 0 min 0,000 mm 0,0 UV-I 99 W/m 8,4 C 17,8 C 9,7 km/h (2 Bft) 95,83 %
10.04.2018 18:02 18,0 C 9,4 C 53 % 1000,9 hPa 0,0 l/m 5,7 km/h (1 Bft) O-NO 65 0 min 0,153 mm 0,0 UV-I 96 W/m 8,3 C 18,0 C 8,0 km/h (2 Bft) 97,56 %
10.04.2018 18:03 17,9 C 9,4 C 52 % 1000,9 hPa 0,0 l/m 5,9 km/h (2 Bft) O-NO 65 0 min 0,000 mm 0,0 UV-I 92 W/m 7,9 C 17,9 C 8,0 km/h (2 Bft) 95,65 %
10.04.2018 18:04 17,9 C 9,4 C 52 % 1000,9 hPa 0,0 l/m 5,4 km/h (1 Bft) NO 39 0 min 0,000 mm 0,0 UV-I 90 W/m 7,9 C 17,9 C 8,0 km/h (2 Bft) 95,83 %
10.04.2018 18:05 17,9 C 9,4 C 53 % 1000,9 hPa 0,0 l/m 6,2 km/h (2 Bft) NO 43 0 min 0,000 mm 0,0 UV-I 89 W/m 8,2 C 17,9 C 8,0 km/h (2 Bft) 100,00 %
10.04.2018 18:07 17,9 C 9,4 C 52 % 1000,9 hPa 0,0 l/m 6,4 km/h (2 Bft) O-NO 65 0 min 0,000 mm 0,0 UV-I 85 W/m 7,9 C 17,9 C 8,0 km/h (2 Bft) 95,74 %
10.04.2018 18:08 17,9 C 9,4 C 51 % 1000,9 hPa 0,0 l/m 5,7 km/h (1 Bft) NO 49 0 min 0,000 mm 0,0 UV-I 84 W/m 7,6 C 17,9 C 8,0 km/h (2 Bft) 95,83 %
10.04.2018 18:10 17,9 C 9,4 C 52 % 1000,9 hPa 0,0 l/m 6,1 km/h (2 Bft) O-NO 62 0 min 0,000 mm 0,0 UV-I 81 W/m 7,9 C 17,9 C 9,7 km/h (2 Bft) 97,73 %
10.04.2018 18:11 17,9 C 9,4 C 52 % 1000,9 hPa 0,0 l/m 5,7 km/h (1 Bft) NO 56 0 min 0,000 mm 0,0 UV-I 77 W/m 7,9 C 17,9 C 6,4 km/h (2 Bft) 100,00 %
10.04.2018 18:12 17,8 C 9,4 C 52 % 1000,9 hPa 0,0 l/m 5,7 km/h (1 Bft) NO 56 0 min 0,000 mm 0,0 UV-I 77 W/m 7,8 C 17,8 C 6,4 km/h (2 Bft) 91,30 %
10.04.2018 18:15 17,8 C 9,4 C 52 % 1001,0 hPa 0,0 l/m 4,0 km/h (1 Bft) NO 56 0 min 0,000 mm 0,0 UV-I 72 W/m 7,8 C 17,8 C 4,8 km/h (1 Bft) 93,75 %
10.04.2018 18:16 17,8 C 9,4 C 53 % 1001,0 hPa 0,0 l/m 4,5 km/h (1 Bft) O-NO 65 0 min 0,000 mm 0,0 UV-I 71 W/m 8,1 C 17,8 C 6,4 km/h (2 Bft) 100,00 %
10.04.2018 18:17 17,7 C 9,4 C 52 % 1001,0 hPa 0,0 l/m 5,4 km/h (1 Bft) O-NO 59 0 min 0,000 mm 0,0 UV-I 70 W/m 7,7 C 17,7 C 6,4 km/h (2 Bft) 95,83 %
10.04.2018 18:18 17,7 C 9,4 C 52 % 1001,0 hPa 0,0 l/m 4,2 km/h (1 Bft) O-NO 59 0 min 0,000 mm 0,0 UV-I 67 W/m 7,7 C 17,7 C 6,4 km/h (2 Bft) 95,65 %
10.04.2018 18:19 17,7 C 9,4 C 53 % 1001,0 hPa 0,0 l/m 4,7 km/h (1 Bft) NO 45 0 min 0,000 mm 0,0 UV-I 65 W/m 8,0 C 17,7 C 6,4 km/h (2 Bft) 91,67 %
10.04.2018 18:20 17,7 C 9,4 C 52 % 1001,0 hPa 0,0 l/m 4,8 km/h (1 Bft) NO 44 0 min 0,000 mm 0,0 UV-I 64 W/m 7,7 C 17,7 C 6,4 km/h (2 Bft) 100,00 %
10.04.2018 18:21 17,7 C 9,4 C 52 % 1001,0 hPa 0,0 l/m 4,6 km/h (1 Bft) NO 44 0 min 0,000 mm 0,0 UV-I 63 W/m 7,7 C 17,7 C 6,4 km/h (2 Bft) 95,65 %
10.04.2018 18:22 17,7 C 9,4 C 52 % 1001,0 hPa 0,0 l/m 4,7 km/h (1 Bft) NO 44 0 min 0,000 mm 0,0 UV-I 62 W/m 7,7 C 17,7 C 6,4 km/h (2 Bft) 95,83 %
10.04.2018 18:23 17,7 C 9,4 C 52 % 1001,0 hPa 0,0 l/m 4,6 km/h (1 Bft) NO 44 0 min 0,000 mm 0,0 UV-I 61 W/m 7,7 C 17,7 C 6,4 km/h (2 Bft) 100,00 %
10.04.2018 18:24 17,7 C 9,4 C 52 % 1001,0 hPa 0,0 l/m 4,1 km/h (1 Bft) NO 44 0 min 0,000 mm 0,0 UV-I 60 W/m 7,7 C 17,7 C 4,8 km/h (1 Bft) 92,59 %
10.04.2018 18:25 17,7 C 9,4 C 53 % 1001,0 hPa 0,0 l/m 3,4 km/h (1 Bft) NO 44 0 min 0,000 mm 0,0 UV-I 58 W/m 8,0 C 17,7 C 4,8 km/h (1 Bft) 100,00 %
10.04.2018 18:27 17,6 C 9,4 C 52 % 1001,0 hPa 0,0 l/m 2,8 km/h (1 Bft) NO 44 0 min 0,000 mm 0,0 UV-I 56 W/m 7,6 C 17,6 C 3,2 km/h (1 Bft) 96,43 %
10.04.2018 18:28 17,6 C 9,4 C 52 % 1001,0 hPa 0,0 l/m 1,9 km/h (1 Bft) NO 44 0 min 0,000 mm 0,0 UV-I 56 W/m 7,6 C 17,6 C 3,2 km/h (1 Bft) 92,59 %
10.04.2018 18:30 17,7 C 9,4 C 53 % 1001,1 hPa 0,0 l/m 1,0 km/h (0 Bft) NO 44 0 min 0,000 mm 0,0 UV-I 54 W/m 8,0 C 17,7 C 1,6 km/h (1 Bft) 96,00 %
10.04.2018 18:31 17,7 C 9,4 C 53 % 1001,1 hPa 0,0 l/m 1,7 km/h (1 Bft) NO 44 0 min 0,000 mm 0,0 UV-I 54 W/m 8,0 C 17,7 C 3,2 km/h (1 Bft) 100,00 %
10.04.2018 18:32 17,6 C 9,4 C 55 % 1001,1 hPa 0,0 l/m 2,0 km/h (1 Bft) NO 44 0 min 0,000 mm 0,0 UV-I 55 W/m 8,5 C 17,6 C 3,2 km/h (1 Bft) 93,33 %
10.04.2018 18:35 17,4 C 9,4 C 57 % 1001,0 hPa 0,0 l/m 1,8 km/h (1 Bft) NO 44 0 min 0,000 mm 0,0 UV-I 56 W/m 8,8 C 17,4 C 3,2 km/h (1 Bft) 100,00 %
10.04.2018 18:37 17,3 C 9,4 C 56 % 1001,1 hPa 0,0 l/m 1,8 km/h (1 Bft) NO 44 0 min 0,000 mm 0,0 UV-I 58 W/m 8,4 C 17,3 C 3,2 km/h (1 Bft) 98,00 %
10.04.2018 18:38 17,3 C 9,4 C 55 % 1001,0 hPa 0,0 l/m 2,1 km/h (1 Bft) NO 44 0 min 0,000 mm 0,0 UV-I 59 W/m 8,2 C 17,3 C 3,2 km/h (1 Bft) 93,33 %
10.04.2018 18:40 17,2 C 9,4 C 57 % 1001,0 hPa 0,0 l/m 1,0 km/h (0 Bft) NO 44 0 min 0,000 mm 0,0 UV-I 60 W/m 8,6 C 17,2 C 3,2 km/h (1 Bft) 94,92 %
10.04.2018 18:41 17,2 C 9,4 C 57 % 1001,0 hPa 0,0 l/m 0,2 km/h (0 Bft) NO 44 0 min 0,000 mm 0,0 UV-I 60 W/m 8,6 C 17,2 C 1,6 km/h (1 Bft) 95,65 %
10.04.2018 18:42 17,1 C 9,4 C 58 % 1001,0 hPa 0,0 l/m 1,3 km/h (1 Bft) NO 44 0 min 0,000 mm 0,0 UV-I 60 W/m 8,8 C 17,1 C 3,2 km/h (1 Bft) 100,00 %
10.04.2018 18:45 17,1 C 9,4 C 58 % 1001,0 hPa 0,0 l/m 1,6 km/h (1 Bft) NO 44 0 min 0,000 mm 0,0 UV-I 59 W/m 8,8 C 17,1 C 1,6 km/h (1 Bft) 93,75 %
10.04.2018 18:46 17,0 C 9,4 C 58 % 1001,0 hPa 0,0 l/m 1,5 km/h (1 Bft) NO 44 0 min 0,000 mm 0,0 UV-I 58 W/m 8,7 C 17,0 C 3,2 km/h (1 Bft) 100,00 %
10.04.2018 18:47 16,9 C 9,4 C 57 % 1001,0 hPa 0,0 l/m 1,7 km/h (1 Bft) NO 44 0 min 0,000 mm 0,0 UV-I 58 W/m 8,3 C 16,9 C 3,2 km/h (1 Bft) 91,30 %
10.04.2018 18:48 16,9 C 9,4 C 58 % 1001,1 hPa 0,0 l/m 2,6 km/h (1 Bft) NO 44 0 min 0,000 mm 0,0 UV-I 56 W/m 8,6 C 16,9 C 3,2 km/h (1 Bft) 100,00 %
10.04.2018 18:49 16,9 C 9,4 C 56 % 1001,0 hPa 0,0 l/m 2,9 km/h (1 Bft) NO 44 0 min 0,000 mm 0,0 UV-I 56 W/m 8,1 C 16,9 C 4,8 km/h (1 Bft) 96,55 %
10.04.2018 18:50 17,0 C 9,4 C 57 % 1001,0 hPa 0,0 l/m 3,1 km/h (1 Bft) O-NO 61 0 min 0,000 mm 0,0 UV-I 55 W/m 8,4 C 17,0 C 4,8 km/h (1 Bft) 100,00 %
10.04.2018 18:51 17,1 C 9,4 C 56 % 1001,0 hPa 0,0 l/m 2,5 km/h (1 Bft) O-NO 61 0 min 0,000 mm 0,0 UV-I 54 W/m 8,3 C 17,1 C 3,2 km/h (1 Bft) 95,65 %
10.04.2018 18:52 17,1 C 9,4 C 56 % 1001,0 hPa 0,0 l/m 2,8 km/h (1 Bft) O-NO 61 0 min 0,000 mm 0,0 UV-I 53 W/m 8,3 C 17,1 C 4,8 km/h (1 Bft) 100,00 %
10.04.2018 18:53 17,1 C 9,4 C 55 % 1001,0 hPa 0,0 l/m 3,2 km/h (1 Bft) O-NO 63 0 min 0,000 mm 0,0 UV-I 53 W/m 8,0 C 17,1 C 4,8 km/h (1 Bft) 96,15 %
10.04.2018 18:54 17,1 C 9,4 C 55 % 1001,0 hPa 0,0 l/m 3,0 km/h (1 Bft) O-NO 63 0 min 0,000 mm 0,0 UV-I 53 W/m 8,0 C 17,1 C 4,8 km/h (1 Bft) 95,83 %
10.04.2018 18:55 17,1 C 9,4 C 55 % 1001,0 hPa 0,0 l/m 2,3 km/h (1 Bft) O-NO 63 0 min 0,000 mm 0,0 UV-I 51 W/m 8,0 C 17,1 C 3,2 km/h (1 Bft) 100,00 %
10.04.2018 18:56 17,1 C 9,4 C 54 % 1001,0 hPa 0,0 l/m 3,0 km/h (1 Bft) O-NO 63 0 min 0,000 mm 0,0 UV-I 50 W/m 7,7 C 17,1 C 4,8 km/h (1 Bft) 93,33 %
10.04.2018 18:57 17,2 C 9,4 C 54 % 1000,9 hPa 0,0 l/m 2,3 km/h (1 Bft) O-NO 63 0 min 0,000 mm 0,0 UV-I 49 W/m 7,8 C 17,2 C 4,8 km/h (1 Bft) 100,00 %
10.04.2018 18:58 17,1 C 9,4 C 55 % 1001,0 hPa 0,0 l/m 3,9 km/h (1 Bft) O-NO 63 0 min 0,000 mm 0,0 UV-I 49 W/m 8,0 C 17,1 C 4,8 km/h (1 Bft) 96,15 %
10.04.2018 18:59 17,1 C 9,4 C 54 % 1001,0 hPa 0,0 l/m 5,2 km/h (1 Bft) O-NO 64 0 min 0,000 mm 0,0 UV-I 47 W/m 7,7 C 17,1 C 6,4 km/h (2 Bft) 100,00 %
10.04.2018 19:00 17,0 C 9,4 C 55 % 1001,0 hPa 0,0 l/m 3,8 km/h (1 Bft) O-NO 64 0 min 0,076 mm 0,0 UV-I 47 W/m 7,9 C 17,0 C 6,4 km/h (2 Bft) 95,83 %
10.04.2018 19:01 17,0 C 9,4 C 54 % 1000,9 hPa 0,0 l/m 4,2 km/h (1 Bft) O-NO 65 0 min 0,000 mm 0,0 UV-I 46 W/m 7,6 C 17,0 C 4,8 km/h (1 Bft) 95,83 %
10.04.2018 19:02 17,0 C 9,4 C 54 % 1000,9 hPa 0,0 l/m 4,5 km/h (1 Bft) O-NO 61 0 min 0,000 mm 0,0 UV-I 45 W/m 7,6 C 17,0 C 6,4 km/h (2 Bft) 100,00 %
10.04.2018 19:03 16,9 C 9,4 C 56 % 1000,9 hPa 0,0 l/m 3,7 km/h (1 Bft) O-NO 61 0 min 0,000 mm 0,0 UV-I 44 W/m 8,1 C 16,9 C 4,8 km/h (1 Bft) 100,00 %
10.04.2018 19:04 16,9 C 9,4 C 56 % 1000,9 hPa 0,0 l/m 3,7 km/h (1 Bft) O-NO 61 0 min 0,000 mm 0,0 UV-I 42 W/m 8,1 C 16,9 C 4,8 km/h (1 Bft) 95,65 %
10.04.2018 19:05 16,9 C 9,4 C 56 % 1000,9 hPa 0,0 l/m 3,1 km/h (1 Bft) O-NO 61 0 min 0,000 mm 0,0 UV-I 42 W/m 8,1 C 16,9 C 4,8 km/h (1 Bft) 95,83 %
10.04.2018 19:06 16,8 C 9,4 C 57 % 1000,9 hPa 0,0 l/m 3,4 km/h (1 Bft) O-NO 61 0 min 0,000 mm 0,0 UV-I 40 W/m 8,2 C 16,8 C 4,8 km/h (1 Bft) 100,00 %
10.04.2018 19:07 16,8 C 9,4 C 57 % 1000,9 hPa 0,0 l/m 2,5 km/h (1 Bft) O-NO 61 0 min 0,000 mm 0,0 UV-I 40 W/m 8,2 C 16,8 C 4,8 km/h (1 Bft) 95,83 %
10.04.2018 19:08 16,8 C 9,4 C 57 % 1000,9 hPa 0,0 l/m 2,4 km/h (1 Bft) O-NO 61 0 min 0,000 mm 0,0 UV-I 39 W/m 8,2 C 16,8 C 3,2 km/h (1 Bft) 100,00 %
10.04.2018 19:09 16,8 C 9,4 C 56 % 1000,9 hPa 0,0 l/m 1,9 km/h (1 Bft) O-NO 61 0 min 0,000 mm 0,0 UV-I 38 W/m 8,0 C 16,8 C 3,2 km/h (1 Bft) 95,83 %
10.04.2018 19:10 16,8 C 9,4 C 56 % 1000,9 hPa 0,0 l/m 1,5 km/h (1 Bft) O-NO 61 0 min 0,000 mm 0,0 UV-I 37 W/m 8,0 C 16,8 C 3,2 km/h (1 Bft) 100,00 %
10.04.2018 19:11 16,8 C 9,4 C 56 % 1000,9 hPa 0,0 l/m 1,4 km/h (1 Bft) O-NO 61 0 min 0,000 mm 0,0 UV-I 35 W/m 8,0 C 16,8 C 3,2 km/h (1 Bft) 96,97 %
10.04.2018 19:12 16,8 C 9,4 C 56 % 1001,0 hPa 0,0 l/m 2,0 km/h (1 Bft) O-NO 61 0 min 0,000 mm 0,0 UV-I 35 W/m 8,0 C 16,8 C 3,2 km/h (1 Bft) 95,65 %
10.04.2018 19:13 16,7 C 9,4 C 56 % 1000,9 hPa 0,0 l/m 3,0 km/h (1 Bft) O-NO 61 0 min 0,000 mm 0,0 UV-I 33 W/m 7,9 C 16,7 C 4,8 km/h (1 Bft) 95,83 %
10.04.2018 19:14 16,7 C 9,4 C 56 % 1001,0 hPa 0,0 l/m 2,8 km/h (1 Bft) O-NO 61 0 min 0,000 mm 0,0 UV-I 33 W/m 7,9 C 16,7 C 4,8 km/h (1 Bft) 100,00 %
10.04.2018 19:15 16,6 C 9,4 C 57 % 1001,0 hPa 0,0 l/m 3,4 km/h (1 Bft) O-NO 64 0 min 0,000 mm 0,0 UV-I 32 W/m 8,0 C 16,6 C 4,8 km/h (1 Bft) 96,15 %
10.04.2018 19:16 16,6 C 9,4 C 57 % 1001,0 hPa 0,0 l/m 2,2 km/h (1 Bft) O-NO 64 0 min 0,000 mm 0,0 UV-I 32 W/m 8,0 C 16,6 C 3,2 km/h (1 Bft) 95,83 %
10.04.2018 19:17 16,5 C 9,4 C 57 % 1001,0 hPa 0,0 l/m 2,5 km/h (1 Bft) O-NO 64 0 min 0,000 mm 0,0 UV-I 30 W/m 8,0 C 16,5 C 3,2 km/h (1 Bft) 95,65 %
10.04.2018 19:18 16,4 C 9,4 C 58 % 1001,0 hPa 0,0 l/m 4,2 km/h (1 Bft) O-NO 64 0 min 0,000 mm 0,0 UV-I 30 W/m 8,1 C 16,4 C 4,8 km/h (1 Bft) 92,59 %
10.04.2018 19:19 16,3 C 9,4 C 58 % 1001,1 hPa 0,0 l/m 2,7 km/h (1 Bft) O-NO 64 0 min 0,000 mm 0,0 UV-I 28 W/m 8,0 C 16,3 C 3,2 km/h (1 Bft) 100,00 %
10.04.2018 19:20 16,3 C 9,4 C 58 % 1001,0 hPa 0,0 l/m 3,2 km/h (1 Bft) O-NO 70 0 min 0,000 mm 0,0 UV-I 27 W/m 8,0 C 16,3 C 3,2 km/h (1 Bft) 91,67 %
10.04.2018 19:21 16,3 C 9,4 C 58 % 1001,1 hPa 0,0 l/m 3,3 km/h (1 Bft) O-SO 105 0 min 0,000 mm 0,0 UV-I 26 W/m 8,0 C 16,3 C 4,8 km/h (1 Bft) 100,00 %
10.04.2018 19:22 16,2 C 9,4 C 59 % 1001,1 hPa 0,0 l/m 3,7 km/h (1 Bft) O-SO 105 0 min 0,000 mm 0,0 UV-I 25 W/m 8,2 C 16,2 C 4,8 km/h (1 Bft) 91,67 %
10.04.2018 19:23 16,1 C 9,4 C 59 % 1001,1 hPa 0,0 l/m 4,2 km/h (1 Bft) O-SO 105 0 min 0,000 mm 0,0 UV-I 25 W/m 8,1 C 16,1 C 4,8 km/h (1 Bft) 100,00 %
10.04.2018 19:24 16,1 C 9,4 C 59 % 1001,1 hPa 0,0 l/m 4,3 km/h (1 Bft) O-SO 104 0 min 0,000 mm 0,0 UV-I 23 W/m 8,1 C 16,1 C 4,8 km/h (1 Bft) 95,83 %
10.04.2018 19:25 16,1 C 9,4 C 59 % 1001,1 hPa 0,0 l/m 4,3 km/h (1 Bft) O-SO 104 0 min 0,000 mm 0,0 UV-I 22 W/m 8,1 C 16,1 C 6,4 km/h (2 Bft) 96,15 %
10.04.2018 19:26 16,0 C 9,4 C 59 % 1001,1 hPa 0,0 l/m 4,2 km/h (1 Bft) O 89 0 min 0,000 mm 0,0 UV-I 21 W/m 8,0 C 16,0 C 4,8 km/h (1 Bft) 100,00 %
10.04.2018 19:27 16,1 C 9,4 C 58 % 1001,1 hPa 0,0 l/m 4,1 km/h (1 Bft) O 94 0 min 0,000 mm 0,0 UV-I 19 W/m 7,8 C 16,1 C 4,8 km/h (1 Bft) 100,00 %
10.04.2018 19:28 16,1 C 9,4 C 58 % 1001,1 hPa 0,0 l/m 3,8 km/h (1 Bft) O 90 0 min 0,000 mm 0,0 UV-I 19 W/m 7,8 C 16,1 C 4,8 km/h (1 Bft) 95,83 %
10.04.2018 19:29 16,0 C 9,4 C 58 % 1001,1 hPa 0,0 l/m 4,8 km/h (1 Bft) O 96 0 min 0,000 mm 0,0 UV-I 18 W/m 7,7 C 16,0 C 6,4 km/h (2 Bft) 91,30 %
10.04.2018 19:30 16,0 C 9,4 C 58 % 1001,1 hPa 0,0 l/m 4,1 km/h (1 Bft) O 94 0 min 0,000 mm 0,0 UV-I 17 W/m 7,7 C 16,0 C 6,4 km/h (2 Bft) 100,00 %
10.04.2018 19:31 16,0 C 9,4 C 58 % 1001,1 hPa 0,0 l/m 3,8 km/h (1 Bft) O 94 0 min 0,000 mm 0,0 UV-I 16 W/m 7,7 C 16,0 C 4,8 km/h (1 Bft) 96,15 %
10.04.2018 19:32 15,9 C 9,4 C 58 % 1001,1 hPa 0,0 l/m 3,3 km/h (1 Bft) O 94 1 min 0,000 mm 0,0 UV-I 15 W/m 7,6 C 15,9 C 4,8 km/h (1 Bft) 100,00 %
10.04.2018 19:33 15,9 C 9,4 C 59 % 1001,0 hPa 0,0 l/m 3,1 km/h (1 Bft) O 94 1 min 0,000 mm 0,0 UV-I 14 W/m 7,9 C 15,9 C 4,8 km/h (1 Bft) 95,65 %
10.04.2018 19:34 15,9 C 9,4 C 59 % 1001,1 hPa 0,0 l/m 3,3 km/h (1 Bft) O 94 1 min 0,000 mm 0,0 UV-I 14 W/m 7,9 C 15,9 C 4,8 km/h (1 Bft) 100,00 %
10.04.2018 19:35 15,8 C 9,4 C 59 % 1001,1 hPa 0,0 l/m 3,1 km/h (1 Bft) O 94 1 min 0,000 mm 0,0 UV-I 14 W/m 7,8 C 15,8 C 4,8 km/h (1 Bft) 91,30 %
10.04.2018 19:36 15,8 C 9,4 C 59 % 1001,1 hPa 0,0 l/m 4,0 km/h (1 Bft) O 97 1 min 0,000 mm 0,0 UV-I 12 W/m 7,8 C 15,8 C 4,8 km/h (1 Bft) 100,00 %
10.04.2018 19:37 15,8 C 9,4 C 58 % 1001,1 hPa 0,0 l/m 5,3 km/h (1 Bft) O-SO 105 0 min 0,000 mm 0,0 UV-I 12 W/m 7,6 C 15,8 C 6,4 km/h (2 Bft) 96,97 %
10.04.2018 19:38 15,8 C 9,4 C 59 % 1001,1 hPa 0,0 l/m 4,9 km/h (1 Bft) O 94 0 min 0,000 mm 0,0 UV-I 11 W/m 7,8 C 15,8 C 6,4 km/h (2 Bft) 95,65 %
10.04.2018 19:39 15,8 C 9,4 C 58 % 1001,1 hPa 0,0 l/m 5,2 km/h (1 Bft) O 94 0 min 0,000 mm 0,0 UV-I 11 W/m 7,6 C 15,8 C 6,4 km/h (2 Bft) 100,00 %
10.04.2018 19:40 15,7 C 9,4 C 59 % 1001,0 hPa 0,0 l/m 4,3 km/h (1 Bft) O-SO 105 0 min 0,000 mm 0,0 UV-I 9 W/m 7,7 C 15,7 C 6,4 km/h (2 Bft) 100,00 %
10.04.2018 19:41 15,7 C 9,4 C 59 % 1001,1 hPa 0,0 l/m 4,4 km/h (1 Bft) O-SO 105 0 min 0,000 mm 0,0 UV-I 9 W/m 7,7 C 15,7 C 6,4 km/h (2 Bft) 100,00 %
10.04.2018 19:42 15,6 C 9,4 C 59 % 1001,1 hPa 0,0 l/m 5,7 km/h (1 Bft) O-SO 107 0 min 0,000 mm 0,0 UV-I 8 W/m 7,6 C 15,6 C 6,4 km/h (2 Bft) 100,00 %
10.04.2018 19:43 15,6 C 9,4 C 59 % 1001,1 hPa 0,0 l/m 5,1 km/h (1 Bft) O-SO 107 0 min 0,000 mm 0,0 UV-I 7 W/m 7,6 C 15,6 C 6,4 km/h (2 Bft) 100,00 %
10.04.2018 19:44 15,6 C 9,4 C 59 % 1001,1 hPa 0,0 l/m 5,2 km/h (1 Bft) O-SO 107 0 min 0,000 mm 0,0 UV-I 7 W/m 7,6 C 15,6 C 6,4 km/h (2 Bft) 100,00 %
10.04.2018 19:45 15,6 C 9,4 C 59 % 1001,1 hPa 0,0 l/m 5,1 km/h (1 Bft) O-SO 105 0 min 0,000 mm 0,0 UV-I 7 W/m 7,6 C 15,6 C 6,4 km/h (2 Bft) 100,00 %
10.04.2018 19:46 15,6 C 9,4 C 59 % 1001,1 hPa 0,0 l/m 4,4 km/h (1 Bft) O-SO 105 0 min 0,000 mm 0,0 UV-I 7 W/m 7,6 C 15,6 C 6,4 km/h (2 Bft) 100,00 %
10.04.2018 19:47 15,6 C 9,4 C 59 % 1001,1 hPa 0,0 l/m 4,7 km/h (1 Bft) O-SO 103 0 min 0,000 mm 0,0 UV-I 6 W/m 7,6 C 15,6 C 4,8 km/h (1 Bft) 100,00 %
10.04.2018 19:48 15,6 C 9,4 C 58 % 1001,1 hPa 0,0 l/m 4,6 km/h (1 Bft) O-SO 102 0 min 0,000 mm 0,0 UV-I 5 W/m 7,4 C 15,6 C 6,4 km/h (2 Bft) 100,00 %
10.04.2018 19:49 15,6 C 9,4 C 58 % 1001,1 hPa 0,0 l/m 4,4 km/h (1 Bft) O-NO 72 0 min 0,000 mm 0,0 UV-I 5 W/m 7,4 C 15,6 C 4,8 km/h (1 Bft) 100,00 %
10.04.2018 19:50 15,6 C 9,4 C 58 % 1001,1 hPa 0,0 l/m 3,7 km/h (1 Bft) O 87 0 min 0,000 mm 0,0 UV-I 5 W/m 7,4 C 15,6 C 4,8 km/h (1 Bft) 100,00 %
10.04.2018 19:51 15,6 C 9,4 C 58 % 1001,1 hPa 0,0 l/m 3,3 km/h (1 Bft) O 87 0 min 0,000 mm 0,0 UV-I 5 W/m 7,4 C 15,6 C 4,8 km/h (1 Bft) 100,00 %
10.04.2018 19:52 15,7 C 9,4 C 58 % 1001,2 hPa 0,0 l/m 3,8 km/h (1 Bft) O 84 0 min 0,000 mm 0,0 UV-I 5 W/m 7,5 C 15,7 C 4,8 km/h (1 Bft) 100,00 %
10.04.2018 19:53 15,7 C 9,4 C 58 % 1001,2 hPa 0,0 l/m 4,2 km/h (1 Bft) O 84 0 min 0,000 mm 0,0 UV-I 5 W/m 7,5 C 15,7 C 6,4 km/h (2 Bft) 95,83 %
10.04.2018 19:54 15,7 C 9,4 C 57 % 1001,2 hPa 0,0 l/m 4,3 km/h (1 Bft) O-NO 65 0 min 0,000 mm 0,0 UV-I 5 W/m 7,2 C 15,7 C 6,4 km/h (2 Bft) 100,00 %
10.04.2018 19:55 15,7 C 9,4 C 58 % 1001,2 hPa 0,0 l/m 3,6 km/h (1 Bft) O-NO 67 0 min 0,000 mm 0,0 UV-I 5 W/m 7,5 C 15,7 C 4,8 km/h (1 Bft) 100,00 %
10.04.2018 19:56 15,7 C 9,4 C 58 % 1001,2 hPa 0,0 l/m 3,6 km/h (1 Bft) O-NO 67 0 min 0,000 mm 0,0 UV-I 5 W/m 7,5 C 15,7 C 4,8 km/h (1 Bft) 100,00 %
10.04.2018 19:57 15,6 C 9,4 C 58 % 1001,1 hPa 0,0 l/m 2,7 km/h (1 Bft) O-NO 67 0 min 0,000 mm 0,0 UV-I 5 W/m 7,4 C 15,6 C 3,2 km/h (1 Bft) 100,00 %
10.04.2018 19:58 15,6 C 9,4 C 58 % 1001,2 hPa 0,0 l/m 3,9 km/h (1 Bft) O 80 0 min 0,000 mm 0,0 UV-I 0 W/m 7,4 C 15,6 C 4,8 km/h (1 Bft) 100,00 %
10.04.2018 19:59 15,6 C 9,4 C 58 % 1001,2 hPa 0,0 l/m 3,6 km/h (1 Bft) O 80 0 min 0,000 mm 0,0 UV-I 0 W/m 7,4 C 15,6 C 4,8 km/h (1 Bft) 95,65 %
10.04.2018 20:00 15,6 C 9,4 C 59 % 1001,2 hPa 0,0 l/m 3,9 km/h (1 Bft) O-NO 74 0 min 0,000 mm 0,0 UV-I 0 W/m 7,6 C 15,6 C 4,8 km/h (1 Bft) 100,00 %
10.04.2018 20:02 15,4 C 9,4 C 59 % 1001,2 hPa 0,0 l/m 5,5 km/h (1 Bft) O 89 0 min 0,025 mm 0,0 UV-I 0 W/m 7,4 C 15,4 C 8,0 km/h (2 Bft) 96,00 %
10.04.2018 20:03 15,4 C 9,4 C 59 % 1001,2 hPa 0,0 l/m 5,9 km/h (2 Bft) O 95 0 min 0,000 mm 0,0 UV-I 0 W/m 7,4 C 15,4 C 6,4 km/h (2 Bft) 90,91 %
10.04.2018 20:04 15,4 C 9,4 C 59 % 1001,2 hPa 0,0 l/m 6,4 km/h (2 Bft) O-SO 107 0 min 0,000 mm 0,0 UV-I 0 W/m 7,4 C 15,4 C 9,7 km/h (2 Bft) 100,00 %
10.04.2018 20:05 15,3 C 9,4 C 59 % 1001,2 hPa 0,0 l/m 6,2 km/h (2 Bft) O-SO 105 0 min 0,000 mm 0,0 UV-I 0 W/m 7,3 C 15,3 C 9,7 km/h (2 Bft) 92,31 %
10.04.2018 20:07 15,2 C 9,4 C 60 % 1001,2 hPa 0,0 l/m 6,6 km/h (2 Bft) SO 125 0 min 0,000 mm 0,0 UV-I 0 W/m 7,5 C 15,1 C 11,3 km/h (2 Bft) 97,56 %
10.04.2018 20:08 15,1 C 9,4 C 60 % 1001,2 hPa 0,0 l/m 7,0 km/h (2 Bft) O-SO 113 0 min 0,000 mm 0,0 UV-I 0 W/m 7,4 C 14,8 C 11,3 km/h (2 Bft) 96,30 %
10.04.2018 20:10 14,8 C 9,4 C 61 % 1001,2 hPa 0,0 l/m 6,1 km/h (2 Bft) O 98 0 min 0,000 mm 0,0 UV-I 0 W/m 7,4 C 14,8 C 11,3 km/h (2 Bft) 95,45 %
10.04.2018 20:11 14,8 C 9,4 C 61 % 1001,3 hPa 0,0 l/m 6,6 km/h (2 Bft) O-SO 116 0 min 0,000 mm 0,0 UV-I 0 W/m 7,4 C 14,7 C 9,7 km/h (2 Bft) 100,00 %
10.04.2018 20:12 14,9 C 9,4 C 61 % 1001,3 hPa 0,0 l/m 6,2 km/h (2 Bft) O-SO 105 0 min 0,000 mm 0,0 UV-I 0 W/m 7,4 C 14,9 C 9,7 km/h (2 Bft) 91,30 %
10.04.2018 20:15 15,1 C 9,4 C 60 % 1001,3 hPa 0,0 l/m 5,9 km/h (2 Bft) O 91 0 min 0,000 mm 0,0 UV-I 0 W/m 7,4 C 15,1 C 6,4 km/h (2 Bft) 93,75 %
10.04.2018 20:17 15,3 C 9,4 C 59 % 1001,3 hPa 0,0 l/m 6,3 km/h (2 Bft) O-NO 71 0 min 0,000 mm 0,0 UV-I 0 W/m 7,3 C 15,3 C 9,7 km/h (2 Bft) 97,73 %
10.04.2018 20:18 15,3 C 9,4 C 59 % 1001,3 hPa 0,0 l/m 6,7 km/h (2 Bft) O 94 0 min 0,000 mm 0,0 UV-I 0 W/m 7,3 C 15,1 C 9,7 km/h (2 Bft) 100,00 %
10.04.2018 20:20 15,4 C 9,4 C 58 % 1001,3 hPa 0,0 l/m 5,4 km/h (1 Bft) O 92 0 min 0,000 mm 0,0 UV-I 0 W/m 7,2 C 15,4 C 6,4 km/h (2 Bft) 98,11 %
10.04.2018 20:21 15,4 C 9,4 C 58 % 1001,3 hPa 0,0 l/m 5,4 km/h (1 Bft) O 87 0 min 0,000 mm 0,0 UV-I 0 W/m 7,2 C 15,4 C 6,4 km/h (2 Bft) 96,30 %
10.04.2018 20:22 15,6 C 9,4 C 58 % 1001,3 hPa 0,0 l/m 5,3 km/h (1 Bft) O-NO 73 0 min 0,000 mm 0,0 UV-I 0 W/m 7,4 C 15,6 C 8,0 km/h (2 Bft) 95,65 %
10.04.2018 20:25 15,6 C 9,4 C 58 % 1001,3 hPa 0,0 l/m 6,0 km/h (2 Bft) O-NO 77 0 min 0,000 mm 0,0 UV-I 0 W/m 7,4 C 15,6 C 6,4 km/h (2 Bft) 93,75 %
10.04.2018 20:26 15,6 C 9,4 C 58 % 1001,3 hPa 0,0 l/m 5,5 km/h (1 Bft) O-NO 71 0 min 0,000 mm 0,0 UV-I 0 W/m 7,4 C 15,6 C 6,4 km/h (2 Bft) 95,83 %
10.04.2018 20:27 15,5 C 9,4 C 58 % 1001,3 hPa 0,0 l/m 6,0 km/h (2 Bft) O 83 0 min 0,000 mm 0,0 UV-I 0 W/m 7,3 C 15,5 C 8,0 km/h (2 Bft) 100,00 %
10.04.2018 20:28 15,5 C 9,4 C 58 % 1001,3 hPa 0,0 l/m 6,0 km/h (2 Bft) O 90 0 min 0,000 mm 0,0 UV-I 0 W/m 7,3 C 15,5 C 9,7 km/h (2 Bft) 93,33 %
10.04.2018 20:29 15,4 C 9,4 C 58 % 1001,3 hPa 0,0 l/m 6,7 km/h (2 Bft) O-SO 105 0 min 0,000 mm 0,0 UV-I 0 W/m 7,2 C 15,2 C 9,7 km/h (2 Bft) 100,00 %
10.04.2018 20:30 15,4 C 9,4 C 59 % 1001,3 hPa 0,0 l/m 8,3 km/h (2 Bft) O 98 0 min 0,000 mm 0,0 UV-I 0 W/m 7,4 C 14,4 C 9,7 km/h (2 Bft) 95,65 %
10.04.2018 20:32 15,0 C 9,4 C 60 % 1001,4 hPa 0,0 l/m 7,5 km/h (2 Bft) O 100 0 min 0,000 mm 0,0 UV-I 0 W/m 7,3 C 14,4 C 9,7 km/h (2 Bft) 97,87 %
10.04.2018 20:33 14,9 C 9,4 C 60 % 1001,4 hPa 0,0 l/m 9,8 km/h (2 Bft) O-SO 102 0 min 0,000 mm 0,0 UV-I 0 W/m 7,2 C 13,1 C 11,3 km/h (2 Bft) 100,00 %
10.04.2018 20:35 14,9 C 9,4 C 60 % 1001,4 hPa 0,0 l/m 8,3 km/h (2 Bft) O 96 0 min 0,000 mm 0,0 UV-I 0 W/m 7,2 C 13,8 C 11,3 km/h (2 Bft) 96,61 %
10.04.2018 20:36 15,0 C 9,4 C 60 % 1001,4 hPa 0,0 l/m 8,0 km/h (2 Bft) O 96 0 min 0,000 mm 0,0 UV-I 0 W/m 7,3 C 14,1 C 11,3 km/h (2 Bft) 100,00 %
10.04.2018 20:37 15,1 C 9,4 C 60 % 1001,4 hPa 0,0 l/m 7,1 km/h (2 Bft) O 96 0 min 0,000 mm 0,0 UV-I 0 W/m 7,4 C 14,7 C 9,7 km/h (2 Bft) 100,00 %
10.04.2018 20:40 15,2 C 9,4 C 59 % 1001,4 hPa 0,0 l/m 6,7 km/h (2 Bft) O 94 0 min 0,000 mm 0,0 UV-I 0 W/m 7,2 C 15,0 C 9,7 km/h (2 Bft) 100,00 %
10.04.2018 20:41 15,2 C 9,4 C 59 % 1001,4 hPa 0,0 l/m 7,7 km/h (2 Bft) O 97 0 min 0,000 mm 0,0 UV-I 0 W/m 7,2 C 14,5 C 9,7 km/h (2 Bft) 100,00 %
10.04.2018 20:43 15,2 C 9,4 C 59 % 1001,5 hPa 0,0 l/m 9,5 km/h (2 Bft) O-SO 108 0 min 0,000 mm 0,0 UV-I 0 W/m 7,2 C 13,6 C 12,9 km/h (3 Bft) 100,00 %
10.04.2018 20:44 15,2 C 9,4 C 59 % 1001,5 hPa 0,0 l/m 8,3 km/h (2 Bft) O 91 0 min 0,000 mm 0,0 UV-I 0 W/m 7,2 C 14,2 C 11,3 km/h (2 Bft) 97,37 %
10.04.2018 20:45 15,2 C 9,4 C 59 % 1001,5 hPa 0,0 l/m 8,2 km/h (2 Bft) O 94 0 min 0,000 mm 0,0 UV-I 0 W/m 7,2 C 14,2 C 11,3 km/h (2 Bft) 100,00 %
10.04.2018 20:46 15,2 C 9,4 C 59 % 1001,5 hPa 0,0 l/m 8,4 km/h (2 Bft) O 92 0 min 0,000 mm 0,0 UV-I 0 W/m 7,2 C 14,1 C 11,3 km/h (2 Bft) 100,00 %
10.04.2018 20:47 15,2 C 9,4 C 59 % 1001,5 hPa 0,0 l/m 7,3 km/h (2 Bft) O 96 0 min 0,000 mm 0,0 UV-I 0 W/m 7,2 C 14,7 C 9,7 km/h (2 Bft) 100,00 %
10.04.2018 20:48 15,3 C 9,4 C 58 % 1001,5 hPa 0,0 l/m 10,9 km/h (2 Bft) O 83 0 min 0,000 mm 0,0 UV-I 0 W/m 7,1 C 13,1 C 12,9 km/h (3 Bft) 100,00 %
10.04.2018 20:49 15,3 C 9,4 C 58 % 1001,5 hPa 0,0 l/m 10,2 km/h (2 Bft) O 98 0 min 0,000 mm 0,0 UV-I 0 W/m 7,1 C 13,4 C 12,9 km/h (3 Bft) 96,55 %
10.04.2018 20:50 15,3 C 9,4 C 58 % 1001,5 hPa 0,0 l/m 9,3 km/h (2 Bft) O 88 0 min 0,000 mm 0,0 UV-I 0 W/m 7,1 C 13,8 C 11,3 km/h (2 Bft) 100,00 %
10.04.2018 20:52 15,4 C 9,4 C 58 % 1001,5 hPa 0,0 l/m 8,9 km/h (2 Bft) O 90 0 min 0,000 mm 0,0 UV-I 0 W/m 7,2 C 14,1 C 12,9 km/h (3 Bft) 98,21 %
10.04.2018 20:53 15,4 C 9,4 C 58 % 1001,5 hPa 0,0 l/m 8,4 km/h (2 Bft) O 99 0 min 0,000 mm 0,0 UV-I 0 W/m 7,2 C 14,3 C 11,3 km/h (2 Bft) 100,00 %
10.04.2018 20:55 15,4 C 9,4 C 58 % 1001,5 hPa 0,0 l/m 7,5 km/h (2 Bft) O 92 0 min 0,000 mm 0,0 UV-I 0 W/m 7,2 C 14,8 C 11,3 km/h (2 Bft) 97,87 %
10.04.2018 20:56 15,4 C 9,4 C 58 % 1001,5 hPa 0,0 l/m 6,9 km/h (2 Bft) O 86 0 min 0,000 mm 0,0 UV-I 0 W/m 7,2 C 15,1 C 9,7 km/h (2 Bft) 100,00 %
10.04.2018 20:57 15,4 C 9,4 C 58 % 1001,5 hPa 0,0 l/m 7,1 km/h (2 Bft) O 93 0 min 0,000 mm 0,0 UV-I 0 W/m 7,2 C 15,0 C 9,7 km/h (2 Bft) 100,00 %
10.04.2018 21:00 15,3 C 9,4 C 58 % 1001,5 hPa 0,0 l/m 8,2 km/h (2 Bft) O 82 0 min 0,051 mm 0,0 UV-I 0 W/m 7,1 C 14,3 C 11,3 km/h (2 Bft) 100,00 %
10.04.2018 21:02 15,2 C 9,4 C 58 % 1001,6 hPa 0,0 l/m 7,2 km/h (2 Bft) O 98 0 min 0,000 mm 0,0 UV-I 0 W/m 7,0 C 14,8 C 9,7 km/h (2 Bft) 100,00 %
10.04.2018 21:03 15,2 C 9,4 C 58 % 1001,6 hPa 0,0 l/m 7,2 km/h (2 Bft) O 85 0 min 0,000 mm 0,0 UV-I 0 W/m 7,0 C 14,8 C 9,7 km/h (2 Bft) 100,00 %
10.04.2018 21:05 15,1 C 9,4 C 58 % 1001,6 hPa 0,0 l/m 7,7 km/h (2 Bft) O 96 0 min 0,000 mm 0,0 UV-I 0 W/m 6,9 C 14,4 C 9,7 km/h (2 Bft) 100,00 %
10.04.2018 21:06 15,1 C 9,4 C 59 % 1001,5 hPa 0,0 l/m 6,6 km/h (2 Bft) O 90 0 min 0,000 mm 0,0 UV-I 0 W/m 7,1 C 15,0 C 11,3 km/h (2 Bft) 100,00 %
10.04.2018 21:07 15,1 C 9,4 C 59 % 1001,6 hPa 0,0 l/m 6,2 km/h (2 Bft) O 93 0 min 0,000 mm 0,0 UV-I 0 W/m 7,1 C 15,1 C 9,7 km/h (2 Bft) 100,00 %
10.04.2018 21:10 15,0 C 9,4 C 59 % 1001,6 hPa 0,0 l/m 5,7 km/h (1 Bft) O 82 0 min 0,000 mm 0,0 UV-I 0 W/m 7,1 C 15,0 C 6,4 km/h (2 Bft) 100,00 %
10.04.2018 21:11 14,9 C 9,4 C 59 % 1001,6 hPa 0,0 l/m 5,2 km/h (1 Bft) O 86 0 min 0,000 mm 0,0 UV-I 0 W/m 7,0 C 14,9 C 6,4 km/h (2 Bft) 100,00 %
10.04.2018 21:12 14,9 C 9,4 C 59 % 1001,6 hPa 0,0 l/m 5,6 km/h (1 Bft) O 88 0 min 0,000 mm 0,0 UV-I 0 W/m 7,0 C 14,9 C 6,4 km/h (2 Bft) 100,00 %
10.04.2018 21:13 14,9 C 9,4 C 59 % 1001,6 hPa 0,0 l/m 4,6 km/h (1 Bft) O 88 0 min 0,000 mm 0,0 UV-I 0 W/m 7,0 C 14,9 C 6,4 km/h (2 Bft) 100,00 %
10.04.2018 21:14 14,9 C 9,4 C 59 % 1001,6 hPa 0,0 l/m 4,8 km/h (1 Bft) O-SO 103 0 min 0,000 mm 0,0 UV-I 0 W/m 7,0 C 14,9 C 9,7 km/h (2 Bft) 100,00 %
10.04.2018 21:15 14,7 C 9,4 C 60 % 1001,6 hPa 0,0 l/m 5,8 km/h (2 Bft) O-SO 107 0 min 0,000 mm 0,0 UV-I 0 W/m 7,0 C 14,7 C 9,7 km/h (2 Bft) 100,00 %
10.04.2018 21:16 14,4 C 9,4 C 61 % 1001,6 hPa 0,0 l/m 3,9 km/h (1 Bft) O-SO 107 0 min 0,000 mm 0,0 UV-I 0 W/m 7,0 C 14,4 C 4,8 km/h (1 Bft) 100,00 %
10.04.2018 21:17 14,0 C 9,4 C 62 % 1001,7 hPa 0,0 l/m 3,6 km/h (1 Bft) O-SO 107 0 min 0,000 mm 0,0 UV-I 0 W/m 6,8 C 14,0 C 4,8 km/h (1 Bft) 100,00 %
10.04.2018 21:18 13,6 C 9,4 C 65 % 1001,7 hPa 0,0 l/m 3,4 km/h (1 Bft) O-SO 108 0 min 0,000 mm 0,0 UV-I 0 W/m 7,1 C 13,6 C 4,8 km/h (1 Bft) 100,00 %
10.04.2018 21:19 13,1 C 9,4 C 67 % 1001,7 hPa 0,0 l/m 4,8 km/h (1 Bft) O-SO 113 0 min 0,000 mm 0,0 UV-I 0 W/m 7,1 C 13,1 C 6,4 km/h (2 Bft) 100,00 %
10.04.2018 21:20 12,8 C 9,4 C 68 % 1001,7 hPa 0,0 l/m 4,3 km/h (1 Bft) O-SO 113 0 min 0,000 mm 0,0 UV-I 0 W/m 7,0 C 12,8 C 6,4 km/h (2 Bft) 100,00 %
10.04.2018 21:21 12,6 C 9,4 C 69 % 1001,7 hPa 0,0 l/m 4,4 km/h (1 Bft) O-SO 113 0 min 0,000 mm 0,0 UV-I 0 W/m 7,1 C 12,6 C 4,8 km/h (1 Bft) 100,00 %
10.04.2018 21:22 12,6 C 9,4 C 69 % 1001,6 hPa 0,0 l/m 4,6 km/h (1 Bft) O-SO 118 0 min 0,000 mm 0,0 UV-I 0 W/m 7,1 C 12,6 C 4,8 km/h (1 Bft) 100,00 %
10.04.2018 21:23 12,5 C 9,4 C 69 % 1001,6 hPa 0,0 l/m 4,6 km/h (1 Bft) O-SO 120 0 min 0,000 mm 0,0 UV-I 0 W/m 7,0 C 12,5 C 8,0 km/h (2 Bft) 95,65 %
10.04.2018 21:24 12,4 C 9,4 C 70 % 1001,7 hPa 0,0 l/m 3,9 km/h (1 Bft) O-SO 120 0 min 0,000 mm 0,0 UV-I 0 W/m 7,1 C 12,4 C 4,8 km/h (1 Bft) 100,00 %
10.04.2018 21:25 12,4 C 9,4 C 70 % 1001,7 hPa 0,0 l/m 5,2 km/h (1 Bft) O-SO 115 0 min 0,000 mm 0,0 UV-I 0 W/m 7,1 C 12,4 C 6,4 km/h (2 Bft) 100,00 %
10.04.2018 21:26 12,3 C 9,4 C 70 % 1001,7 hPa 0,0 l/m 5,0 km/h (1 Bft) O-SO 118 0 min 0,000 mm 0,0 UV-I 0 W/m 7,0 C 12,3 C 6,4 km/h (2 Bft) 100,00 %
10.04.2018 21:27 12,2 C 9,4 C 70 % 1001,7 hPa 0,0 l/m 4,4 km/h (1 Bft) O-SO 119 0 min 0,000 mm 0,0 UV-I 0 W/m 6,9 C 12,2 C 6,4 km/h (2 Bft) 100,00 %
10.04.2018 21:28 12,1 C 9,4 C 71 % 1001,7 hPa 0,0 l/m 4,5 km/h (1 Bft) SO 126 0 min 0,000 mm 0,0 UV-I 0 W/m 7,0 C 12,1 C 6,4 km/h (2 Bft) 93,33 %
10.04.2018 21:29 12,0 C 9,4 C 71 % 1001,7 hPa 0,0 l/m 5,6 km/h (1 Bft) O-SO 123 0 min 0,000 mm 0,0 UV-I 0 W/m 6,9 C 12,0 C 6,4 km/h (2 Bft) 100,00 %
10.04.2018 21:30 11,9 C 9,4 C 72 % 1001,7 hPa 0,0 l/m 5,2 km/h (1 Bft) O-SO 102 0 min 0,000 mm 0,0 UV-I 0 W/m 7,0 C 11,9 C 6,4 km/h (2 Bft) 100,00 %
10.04.2018 21:31 12,0 C 9,4 C 71 % 1001,7 hPa 0,0 l/m 5,8 km/h (2 Bft) O-SO 103 0 min 0,000 mm 0,0 UV-I 0 W/m 6,9 C 12,0 C 9,7 km/h (2 Bft) 100,00 %
10.04.2018 21:33 12,7 C 9,4 C 68 % 1001,7 hPa 0,0 l/m 5,7 km/h (1 Bft) O-SO 108 0 min 0,000 mm 0,0 UV-I 0 W/m 6,9 C 12,7 C 9,7 km/h (2 Bft) 100,00 %
10.04.2018 21:34 13,2 C 9,4 C 67 % 1001,7 hPa 0,0 l/m 6,2 km/h (2 Bft) O-SO 105 0 min 0,000 mm 0,0 UV-I 0 W/m 7,2 C 13,2 C 9,7 km/h (2 Bft) 100,00 %
10.04.2018 21:35 13,3 C 9,4 C 65 % 1001,7 hPa 0,0 l/m 4,9 km/h (1 Bft) O-SO 115 0 min 0,000 mm 0,0 UV-I 0 W/m 6,9 C 13,3 C 9,7 km/h (2 Bft) 100,00 %
10.04.2018 21:36 13,5 C 9,4 C 64 % 1001,7 hPa 0,0 l/m 6,2 km/h (2 Bft) O 86 0 min 0,000 mm 0,0 UV-I 0 W/m 6,8 C 13,5 C 9,7 km/h (2 Bft) 100,00 %
10.04.2018 21:37 13,7 C 9,4 C 63 % 1001,7 hPa 0,0 l/m 6,3 km/h (2 Bft) O 101 0 min 0,000 mm 0,0 UV-I 0 W/m 6,8 C 13,7 C 9,7 km/h (2 Bft) 100,00 %
10.04.2018 21:38 13,9 C 9,4 C 63 % 1001,7 hPa 0,0 l/m 5,6 km/h (1 Bft) O 84 0 min 0,000 mm 0,0 UV-I 0 W/m 7,0 C 13,9 C 9,7 km/h (2 Bft) 100,00 %
10.04.2018 21:39 14,1 C 9,4 C 63 % 1001,8 hPa 0,0 l/m 6,5 km/h (2 Bft) O 92 0 min 0,000 mm 0,0 UV-I 0 W/m 7,2 C 14,1 C 9,7 km/h (2 Bft) 100,00 %
10.04.2018 21:40 14,1 C 9,4 C 62 % 1001,7 hPa 0,0 l/m 7,2 km/h (2 Bft) O 98 0 min 0,000 mm 0,0 UV-I 0 W/m 6,9 C 13,6 C 9,7 km/h (2 Bft) 100,00 %
10.04.2018 21:41 14,1 C 9,4 C 63 % 1001,7 hPa 0,0 l/m 6,0 km/h (2 Bft) O-SO 103 0 min 0,000 mm 0,0 UV-I 0 W/m 7,2 C 14,1 C 9,7 km/h (2 Bft) 100,00 %
10.04.2018 21:42 13,7 C 9,4 C 64 % 1001,8 hPa 0,0 l/m 5,0 km/h (1 Bft) O-SO 109 0 min 0,000 mm 0,0 UV-I 0 W/m 7,0 C 13,7 C 6,4 km/h (2 Bft) 100,00 %
10.04.2018 21:43 13,3 C 9,4 C 65 % 1001,8 hPa 0,0 l/m 2,3 km/h (1 Bft) O-SO 109 0 min 0,000 mm 0,0 UV-I 0 W/m 6,9 C 13,3 C 3,2 km/h (1 Bft) 100,00 %
10.04.2018 21:44 12,9 C 9,4 C 67 % 1001,8 hPa 0,0 l/m 3,1 km/h (1 Bft) O-SO 109 0 min 0,000 mm 0,0 UV-I 0 W/m 6,9 C 12,9 C 4,8 km/h (1 Bft) 100,00 %
10.04.2018 21:45 12,5 C 9,4 C 68 % 1001,8 hPa 0,0 l/m 2,7 km/h (1 Bft) O-SO 109 0 min 0,000 mm 0,0 UV-I 0 W/m 6,8 C 12,5 C 3,2 km/h (1 Bft) 100,00 %
10.04.2018 21:46 12,2 C 9,4 C 70 % 1001,8 hPa 0,0 l/m 2,6 km/h (1 Bft) O-SO 110 0 min 0,000 mm 0,0 UV-I 0 W/m 6,9 C 12,2 C 3,2 km/h (1 Bft) 100,00 %
10.04.2018 21:47 12,0 C 9,4 C 71 % 1001,8 hPa 0,0 l/m 5,1 km/h (1 Bft) O-SO 123 0 min 0,000 mm 0,0 UV-I 0 W/m 6,9 C 12,0 C 6,4 km/h (2 Bft) 100,00 %
10.04.2018 21:48 11,8 C 9,4 C 72 % 1001,7 hPa 0,0 l/m 4,3 km/h (1 Bft) O-SO 122 0 min 0,000 mm 0,0 UV-I 0 W/m 6,9 C 11,8 C 4,8 km/h (1 Bft) 100,00 %
10.04.2018 21:49 11,6 C 9,4 C 73 % 1001,7 hPa 0,0 l/m 4,6 km/h (1 Bft) O-SO 113 0 min 0,000 mm 0,0 UV-I 0 W/m 6,9 C 11,6 C 6,4 km/h (2 Bft) 100,00 %
10.04.2018 21:50 11,4 C 9,4 C 74 % 1001,7 hPa 0,0 l/m 6,5 km/h (2 Bft) SO 142 0 min 0,000 mm 0,0 UV-I 0 W/m 6,9 C 11,4 C 11,3 km/h (2 Bft) 100,00 %
10.04.2018 21:51 11,4 C 9,4 C 74 % 1001,8 hPa 0,0 l/m 3,4 km/h (1 Bft) O 94 0 min 0,000 mm 0,0 UV-I 0 W/m 6,9 C 11,4 C 4,8 km/h (1 Bft) 100,00 %
10.04.2018 21:52 11,5 C 9,4 C 74 % 1001,8 hPa 0,0 l/m 4,9 km/h (1 Bft) O 81 0 min 0,000 mm 0,0 UV-I 0 W/m 7,0 C 11,5 C 6,4 km/h (2 Bft) 100,00 %
10.04.2018 21:53 11,7 C 9,4 C 72 % 1001,7 hPa 0,0 l/m 3,9 km/h (1 Bft) O 82 0 min 0,000 mm 0,0 UV-I 0 W/m 6,8 C 11,7 C 6,4 km/h (2 Bft) 93,33 %
10.04.2018 21:54 11,9 C 9,4 C 70 % 1001,8 hPa 0,0 l/m 4,6 km/h (1 Bft) NO 42 0 min 0,000 mm 0,0 UV-I 0 W/m 6,6 C 11,9 C 4,8 km/h (1 Bft) 100,00 %
10.04.2018 21:55 11,8 C 9,4 C 70 % 1001,8 hPa 0,0 l/m 4,6 km/h (1 Bft) NO 42 0 min 0,000 mm 0,0 UV-I 0 W/m 6,5 C 11,8 C 4,8 km/h (1 Bft) 100,00 %
10.04.2018 21:56 11,7 C 9,4 C 71 % 1001,8 hPa 0,0 l/m 3,9 km/h (1 Bft) NO 42 0 min 0,000 mm 0,0 UV-I 0 W/m 6,6 C 11,7 C 4,8 km/h (1 Bft) 100,00 %
10.04.2018 21:57 11,6 C 9,4 C 72 % 1001,8 hPa 0,0 l/m 3,4 km/h (1 Bft) NO 42 0 min 0,000 mm 0,0 UV-I 0 W/m 6,7 C 11,6 C 4,8 km/h (1 Bft) 100,00 %
10.04.2018 21:58 11,6 C 9,4 C 73 % 1001,8 hPa 0,0 l/m 3,6 km/h (1 Bft) NO 42 0 min 0,000 mm 0,0 UV-I 0 W/m 6,9 C 11,6 C 4,8 km/h (1 Bft) 96,15 %
10.04.2018 21:59 11,5 C 9,4 C 74 % 1001,8 hPa 0,0 l/m 4,4 km/h (1 Bft) NO 44 0 min 0,000 mm 0,0 UV-I 0 W/m 7,0 C 11,5 C 4,8 km/h (1 Bft) 100,00 %
10.04.2018 22:00 11,5 C 9,4 C 74 % 1001,8 hPa 0,0 l/m 4,9 km/h (1 Bft) NO 45 0 min 0,000 mm 0,0 UV-I 0 W/m 7,0 C 11,5 C 6,4 km/h (2 Bft) 100,00 %
10.04.2018 22:01 11,5 C 9,4 C 74 % 1001,9 hPa 0,0 l/m 5,8 km/h (2 Bft) NO 44 0 min 0,025 mm 0,0 UV-I 0 W/m 7,0 C 11,5 C 6,4 km/h (2 Bft) 95,65 %
10.04.2018 22:02 11,5 C 9,4 C 74 % 1001,8 hPa 0,0 l/m 5,5 km/h (1 Bft) NO 44 0 min 0,000 mm 0,0 UV-I 0 W/m 7,0 C 11,5 C 6,4 km/h (2 Bft) 100,00 %
10.04.2018 22:03 11,5 C 9,4 C 74 % 1001,8 hPa 0,0 l/m 5,8 km/h (2 Bft) NO 45 0 min 0,000 mm 0,0 UV-I 0 W/m 7,0 C 11,5 C 6,4 km/h (2 Bft) 96,15 %
10.04.2018 22:04 11,6 C 9,4 C 74 % 1001,9 hPa 0,0 l/m 6,1 km/h (2 Bft) NO 45 0 min 0,000 mm 0,0 UV-I 0 W/m 7,1 C 11,6 C 6,4 km/h (2 Bft) 96,30 %
10.04.2018 22:05 11,6 C 9,4 C 74 % 1001,8 hPa 0,0 l/m 5,6 km/h (1 Bft) NO 46 0 min 0,000 mm 0,0 UV-I 0 W/m 7,1 C 11,6 C 6,4 km/h (2 Bft) 100,00 %
10.04.2018 22:06 11,7 C 9,4 C 74 % 1001,8 hPa 0,0 l/m 5,6 km/h (1 Bft) NO 56 0 min 0,000 mm 0,0 UV-I 0 W/m 7,2 C 11,7 C 6,4 km/h (2 Bft) 95,83 %
10.04.2018 22:08 12,0 C 9,4 C 73 % 1001,8 hPa 0,0 l/m 5,6 km/h (1 Bft) O-NO 59 0 min 0,000 mm 0,0 UV-I 0 W/m 7,3 C 12,0 C 6,4 km/h (2 Bft) 98,00 %
10.04.2018 22:09 12,1 C 9,4 C 72 % 1001,8 hPa 0,0 l/m 5,4 km/h (1 Bft) O-NO 67 0 min 0,000 mm 0,0 UV-I 0 W/m 7,2 C 12,1 C 6,4 km/h (2 Bft) 90,91 %
10.04.2018 22:10 12,3 C 9,4 C 71 % 1001,7 hPa 0,0 l/m 6,3 km/h (2 Bft) O-NO 67 0 min 0,000 mm 0,0 UV-I 0 W/m 7,2 C 12,3 C 8,0 km/h (2 Bft) 96,30 %
10.04.2018 22:11 12,4 C 9,4 C 70 % 1001,7 hPa 0,0 l/m 5,7 km/h (1 Bft) O-NO 69 0 min 0,000 mm 0,0 UV-I 0 W/m 7,1 C 12,4 C 6,4 km/h (2 Bft) 92,31 %
10.04.2018 22:12 12,6 C 9,4 C 69 % 1001,7 hPa 0,0 l/m 6,4 km/h (2 Bft) O-NO 71 0 min 0,000 mm 0,0 UV-I 0 W/m 7,1 C 12,6 C 8,0 km/h (2 Bft) 96,67 %
10.04.2018 22:13 12,8 C 9,4 C 69 % 1001,7 hPa 0,0 l/m 6,6 km/h (2 Bft) O-NO 78 0 min 0,000 mm 0,0 UV-I 0 W/m 7,3 C 12,7 C 8,0 km/h (2 Bft) 95,65 %
10.04.2018 22:14 12,9 C 9,4 C 68 % 1001,7 hPa 0,0 l/m 6,7 km/h (2 Bft) O-NO 66 0 min 0,000 mm 0,0 UV-I 0 W/m 7,1 C 12,7 C 8,0 km/h (2 Bft) 100,00 %
10.04.2018 22:15 13,1 C 9,4 C 67 % 1001,7 hPa 0,0 l/m 7,7 km/h (2 Bft) O 88 0 min 0,000 mm 0,0 UV-I 0 W/m 7,1 C 12,3 C 9,7 km/h (2 Bft) 86,96 %
10.04.2018 22:16 13,2 C 9,4 C 66 % 1001,7 hPa 0,0 l/m 7,5 km/h (2 Bft) O 90 0 min 0,000 mm 0,0 UV-I 0 W/m 7,0 C 12,5 C 11,3 km/h (2 Bft) 100,00 %
10.04.2018 22:17 13,2 C 9,4 C 66 % 1001,7 hPa 0,0 l/m 6,4 km/h (2 Bft) O-NO 75 0 min 0,000 mm 0,0 UV-I 0 W/m 7,0 C 13,2 C 8,0 km/h (2 Bft) 95,83 %
10.04.2018 22:18 13,2 C 9,4 C 66 % 1001,7 hPa 0,0 l/m 5,1 km/h (1 Bft) O-NO 71 0 min 0,000 mm 0,0 UV-I 0 W/m 7,0 C 13,2 C 8,0 km/h (2 Bft) 100,00 %
10.04.2018 22:19 13,2 C 9,4 C 66 % 1001,7 hPa 0,0 l/m 5,3 km/h (1 Bft) O 97 0 min 0,000 mm 0,0 UV-I 0 W/m 7,0 C 13,2 C 6,4 km/h (2 Bft) 96,15 %
10.04.2018 22:20 13,2 C 9,4 C 66 % 1001,8 hPa 0,0 l/m 4,4 km/h (1 Bft) O 96 0 min 0,000 mm 0,0 UV-I 0 W/m 7,0 C 13,2 C 6,4 km/h (2 Bft) 100,00 %
10.04.2018 22:21 13,2 C 9,4 C 67 % 1001,8 hPa 0,0 l/m 4,4 km/h (1 Bft) O 98 0 min 0,000 mm 0,0 UV-I 0 W/m 7,2 C 13,2 C 6,4 km/h (2 Bft) 93,33 %
10.04.2018 22:22 13,2 C 9,4 C 66 % 1001,8 hPa 0,0 l/m 5,2 km/h (1 Bft) O 98 0 min 0,000 mm 0,0 UV-I 0 W/m 7,0 C 13,2 C 9,7 km/h (2 Bft) 100,00 %
10.04.2018 22:23 13,1 C 9,4 C 66 % 1001,8 hPa 0,0 l/m 6,0 km/h (2 Bft) O-SO 103 0 min 0,000 mm 0,0 UV-I 0 W/m 6,9 C 13,1 C 9,7 km/h (2 Bft) 96,30 %
10.04.2018 22:24 13,0 C 9,4 C 67 % 1001,8 hPa 0,0 l/m 6,8 km/h (2 Bft) O-SO 109 0 min 0,000 mm 0,0 UV-I 0 W/m 7,0 C 12,8 C 9,7 km/h (2 Bft) 96,15 %
10.04.2018 22:25 12,9 C 9,4 C 67 % 1001,9 hPa 0,0 l/m 6,7 km/h (2 Bft) O 94 0 min 0,000 mm 0,0 UV-I 0 W/m 6,9 C 12,7 C 9,7 km/h (2 Bft) 100,00 %
10.04.2018 22:26 12,9 C 9,4 C 67 % 1001,9 hPa 0,0 l/m 7,2 km/h (2 Bft) O-SO 120 0 min 0,000 mm 0,0 UV-I 0 W/m 6,9 C 12,4 C 11,3 km/h (2 Bft) 92,31 %
10.04.2018 22:27 12,9 C 9,4 C 67 % 1001,8 hPa 0,0 l/m 4,5 km/h (1 Bft) O-SO 106 0 min 0,000 mm 0,0 UV-I 0 W/m 6,9 C 12,9 C 6,4 km/h (2 Bft) 100,00 %
10.04.2018 22:28 12,7 C 9,4 C 68 % 1001,9 hPa 0,0 l/m 7,3 km/h (2 Bft) O 101 0 min 0,000 mm 0,0 UV-I 0 W/m 6,9 C 12,1 C 11,3 km/h (2 Bft) 95,65 %
10.04.2018 22:29 12,7 C 9,4 C 68 % 1001,9 hPa 0,0 l/m 4,7 km/h (1 Bft) O-SO 105 0 min 0,000 mm 0,0 UV-I 0 W/m 6,9 C 12,7 C 6,4 km/h (2 Bft) 100,00 %
10.04.2018 22:30 12,8 C 9,4 C 67 % 1001,9 hPa 0,0 l/m 4,1 km/h (1 Bft) O 89 0 min 0,000 mm 0,0 UV-I 0 W/m 6,8 C 12,8 C 6,4 km/h (2 Bft) 95,65 %
10.04.2018 22:31 12,9 C 9,4 C 67 % 1001,9 hPa 0,0 l/m 3,8 km/h (1 Bft) O 88 0 min 0,000 mm 0,0 UV-I 0 W/m 6,9 C 12,9 C 4,8 km/h (1 Bft) 95,83 %
10.04.2018 22:32 13,0 C 9,4 C 66 % 1001,9 hPa 0,0 l/m 4,6 km/h (1 Bft) O 79 0 min 0,000 mm 0,0 UV-I 0 W/m 6,8 C 13,0 C 6,4 km/h (2 Bft) 100,00 %
10.04.2018 22:33 13,1 C 9,4 C 66 % 1001,9 hPa 0,0 l/m 5,0 km/h (1 Bft) O-NO 78 0 min 0,000 mm 0,0 UV-I 0 W/m 6,9 C 13,1 C 6,4 km/h (2 Bft) 100,00 %
10.04.2018 22:34 13,1 C 9,4 C 66 % 1001,9 hPa 0,0 l/m 4,8 km/h (1 Bft) O 89 0 min 0,000 mm 0,0 UV-I 0 W/m 6,9 C 13,1 C 6,4 km/h (2 Bft) 93,10 %
10.04.2018 22:35 13,1 C 9,4 C 66 % 1001,9 hPa 0,0 l/m 5,6 km/h (1 Bft) O 90 0 min 0,000 mm 0,0 UV-I 0 W/m 6,9 C 13,1 C 6,4 km/h (2 Bft) 100,00 %
10.04.2018 22:36 13,1 C 9,4 C 66 % 1002,0 hPa 0,0 l/m 6,1 km/h (2 Bft) O 94 0 min 0,000 mm 0,0 UV-I 0 W/m 6,9 C 13,1 C 9,7 km/h (2 Bft) 96,55 %
10.04.2018 22:37 13,1 C 9,4 C 66 % 1002,0 hPa 0,0 l/m 5,5 km/h (1 Bft) O 86 0 min 0,000 mm 0,0 UV-I 0 W/m 6,9 C 13,1 C 6,4 km/h (2 Bft) 96,30 %
10.04.2018 22:38 13,1 C 9,4 C 66 % 1002,0 hPa 0,0 l/m 8,8 km/h (2 Bft) O 99 0 min 0,000 mm 0,0 UV-I 0 W/m 6,9 C 11,7 C 11,3 km/h (2 Bft) 96,15 %
10.04.2018 22:39 13,1 C 9,4 C 66 % 1002,0 hPa 0,0 l/m 6,8 km/h (2 Bft) O-SO 106 0 min 0,000 mm 0,0 UV-I 0 W/m 6,9 C 12,9 C 9,7 km/h (2 Bft) 91,67 %
10.04.2018 22:40 13,1 C 9,4 C 66 % 1002,0 hPa 0,0 l/m 9,2 km/h (2 Bft) O 91 0 min 0,000 mm 0,0 UV-I 0 W/m 6,9 C 11,4 C 12,9 km/h (3 Bft) 100,00 %
10.04.2018 22:41 13,1 C 9,4 C 66 % 1001,9 hPa 0,0 l/m 6,0 km/h (2 Bft) O-SO 107 0 min 0,000 mm 0,0 UV-I 0 W/m 6,9 C 13,1 C 6,4 km/h (2 Bft) 91,30 %
10.04.2018 22:42 13,1 C 9,4 C 66 % 1002,0 hPa 0,0 l/m 5,3 km/h (1 Bft) O-SO 116 0 min 0,000 mm 0,0 UV-I 0 W/m 6,9 C 13,1 C 9,7 km/h (2 Bft) 96,67 %
10.04.2018 22:43 13,2 C 9,4 C 65 % 1002,0 hPa 0,0 l/m 6,6 km/h (2 Bft) O 97 0 min 0,000 mm 0,0 UV-I 0 W/m 6,8 C 13,1 C 9,7 km/h (2 Bft) 95,65 %
10.04.2018 22:44 13,2 C 9,4 C 65 % 1002,0 hPa 0,0 l/m 7,4 km/h (2 Bft) O 98 0 min 0,000 mm 0,0 UV-I 0 W/m 6,8 C 12,6 C 11,3 km/h (2 Bft) 91,67 %
10.04.2018 22:45 13,2 C 9,4 C 65 % 1001,9 hPa 0,0 l/m 5,8 km/h (2 Bft) O-SO 116 0 min 0,000 mm 0,0 UV-I 0 W/m 6,8 C 13,2 C 11,3 km/h (2 Bft) 92,31 %
10.04.2018 22:46 13,2 C 9,4 C 64 % 1002,0 hPa 0,0 l/m 9,8 km/h (2 Bft) O 79 0 min 0,000 mm 0,0 UV-I 0 W/m 6,5 C 11,2 C 12,9 km/h (3 Bft) 100,00 %
10.04.2018 22:47 13,2 C 9,4 C 65 % 1002,0 hPa 0,0 l/m 7,8 km/h (2 Bft) O-NO 75 0 min 0,000 mm 0,0 UV-I 0 W/m 6,8 C 12,3 C 11,3 km/h (2 Bft) 96,55 %
10.04.2018 22:48 13,2 C 9,4 C 65 % 1002,0 hPa 0,0 l/m 6,2 km/h (2 Bft) O 83 0 min 0,000 mm 0,0 UV-I 0 W/m 6,8 C 13,2 C 11,3 km/h (2 Bft) 95,83 %
10.04.2018 22:49 13,2 C 9,4 C 65 % 1002,0 hPa 0,0 l/m 7,1 km/h (2 Bft) O-SO 103 0 min 0,000 mm 0,0 UV-I 0 W/m 6,8 C 12,8 C 11,3 km/h (2 Bft) 95,65 %
10.04.2018 22:50 13,2 C 9,4 C 65 % 1002,0 hPa 0,0 l/m 7,6 km/h (2 Bft) O 98 0 min 0,000 mm 0,0 UV-I 0 W/m 6,8 C 12,5 C 9,7 km/h (2 Bft) 97,81 %
10.04.2018 22:51 13,2 C 9,4 C 64 % 1001,9 hPa 0,0 l/m 6,1 km/h (2 Bft) O-NO 76 0 min 0,000 mm 0,0 UV-I 0 W/m 6,5 C 13,2 C 9,7 km/h (2 Bft) 95,12 %
10.04.2018 22:52 13,2 C 9,4 C 64 % 1001,9 hPa 0,0 l/m 6,2 km/h (2 Bft) O 96 0 min 0,000 mm 0,0 UV-I 0 W/m 6,5 C 13,2 C 11,3 km/h (2 Bft) 96,67 %
10.04.2018 22:53 13,3 C 9,4 C 64 % 1001,9 hPa 0,0 l/m 9,5 km/h (2 Bft) O-SO 103 0 min 0,000 mm 0,0 UV-I 0 W/m 6,6 C 11,5 C 12,9 km/h (3 Bft) 100,00 %
10.04.2018 22:54 13,3 C 9,4 C 64 % 1001,9 hPa 0,0 l/m 10,1 km/h (2 Bft) O 99 0 min 0,000 mm 0,0 UV-I 0 W/m 6,6 C 11,2 C 12,9 km/h (3 Bft) 96,55 %
10.04.2018 22:55 13,4 C 9,4 C 64 % 1002,0 hPa 0,0 l/m 6,0 km/h (2 Bft) O 97 0 min 0,000 mm 0,0 UV-I 0 W/m 6,7 C 13,4 C 9,7 km/h (2 Bft) 100,00 %
10.04.2018 22:56 13,4 C 9,4 C 63 % 1002,0 hPa 0,0 l/m 6,6 km/h (2 Bft) O 93 0 min 0,000 mm 0,0 UV-I 0 W/m 6,5 C 13,3 C 12,9 km/h (3 Bft) 95,65 %
10.04.2018 22:57 13,4 C 9,4 C 63 % 1002,0 hPa 0,0 l/m 6,4 km/h (2 Bft) O-NO 78 0 min 0,000 mm 0,0 UV-I 0 W/m 6,5 C 13,4 C 9,7 km/h (2 Bft) 96,30 %
10.04.2018 22:58 13,4 C 9,4 C 64 % 1002,1 hPa 0,0 l/m 6,8 km/h (2 Bft) O 90 0 min 0,000 mm 0,0 UV-I 0 W/m 6,7 C 13,2 C 9,7 km/h (2 Bft) 100,00 %
10.04.2018 22:59 13,3 C 9,4 C 64 % 1002,1 hPa 0,0 l/m 6,1 km/h (2 Bft) O 80 0 min 0,000 mm 0,0 UV-I 0 W/m 6,6 C 13,3 C 9,7 km/h (2 Bft) 100,00 %
10.04.2018 23:00 13,3 C 9,4 C 64 % 1002,1 hPa 0,0 l/m 5,0 km/h (1 Bft) O-NO 67 0 min 0,000 mm 0,0 UV-I 0 W/m 6,6 C 13,3 C 6,4 km/h (2 Bft) 96,15 %
10.04.2018 23:01 13,2 C 9,4 C 64 % 1002,1 hPa 0,0 l/m 4,2 km/h (1 Bft) O-NO 73 0 min 0,026 mm 0,0 UV-I 0 W/m 6,5 C 13,2 C 6,4 km/h (2 Bft) 95,83 %
10.04.2018 23:02 13,1 C 9,4 C 64 % 1002,1 hPa 0,0 l/m 4,8 km/h (1 Bft) O-NO 78 0 min 0,000 mm 0,0 UV-I 0 W/m 6,4 C 13,1 C 6,4 km/h (2 Bft) 100,00 %
10.04.2018 23:03 12,9 C 9,4 C 66 % 1002,1 hPa 0,0 l/m 4,0 km/h (1 Bft) O-NO 77 0 min 0,000 mm 0,0 UV-I 0 W/m 6,7 C 12,9 C 4,8 km/h (1 Bft) 96,30 %
10.04.2018 23:04 12,8 C 9,4 C 67 % 1002,1 hPa 0,0 l/m 4,9 km/h (1 Bft) O-NO 66 0 min 0,000 mm 0,0 UV-I 0 W/m 6,8 C 12,8 C 6,4 km/h (2 Bft) 100,00 %
10.04.2018 23:05 12,5 C 9,4 C 68 % 1002,1 hPa 0,0 l/m 4,4 km/h (1 Bft) O-NO 66 0 min 0,000 mm 0,0 UV-I 0 W/m 6,8 C 12,5 C 4,8 km/h (1 Bft) 93,33 %
10.04.2018 23:06 12,3 C 9,4 C 69 % 1002,2 hPa 0,0 l/m 4,8 km/h (1 Bft) O-NO 66 0 min 0,000 mm 0,0 UV-I 0 W/m 6,8 C 12,3 C 6,4 km/h (2 Bft) 100,00 %
10.04.2018 23:08 11,9 C 9,4 C 71 % 1002,2 hPa 0,0 l/m 5,4 km/h (1 Bft) O-NO 67 0 min 0,000 mm 0,0 UV-I 0 W/m 6,8 C 11,9 C 6,4 km/h (2 Bft) 96,43 %
10.04.2018 23:09 11,8 C 9,4 C 72 % 1002,2 hPa 0,0 l/m 5,4 km/h (1 Bft) O-NO 67 0 min 0,000 mm 0,0 UV-I 0 W/m 6,9 C 11,8 C 6,4 km/h (2 Bft) 100,00 %
10.04.2018 23:10 11,7 C 9,4 C 73 % 1002,2 hPa 0,0 l/m 5,1 km/h (1 Bft) O-NO 64 0 min 0,000 mm 0,0 UV-I 0 W/m 7,0 C 11,7 C 6,4 km/h (2 Bft) 97,81 %
10.04.2018 23:11 11,6 C 9,4 C 73 % 1002,2 hPa 0,0 l/m 5,0 km/h (1 Bft) O-NO 65 0 min 0,000 mm 0,0 UV-I 0 W/m 6,9 C 11,6 C 6,4 km/h (2 Bft) 97,56 %
10.04.2018 23:12 11,5 C 9,4 C 73 % 1002,2 hPa 0,0 l/m 4,6 km/h (1 Bft) O-NO 65 0 min 0,000 mm 0,0 UV-I 0 W/m 6,8 C 11,5 C 4,8 km/h (1 Bft) 95,65 %
10.04.2018 23:13 11,4 C 9,4 C 74 % 1002,2 hPa 0,0 l/m 5,5 km/h (1 Bft) O-NO 65 0 min 0,000 mm 0,0 UV-I 0 W/m 6,9 C 11,4 C 6,4 km/h (2 Bft) 100,00 %
10.04.2018 23:14 11,4 C 9,4 C 73 % 1002,2 hPa 0,0 l/m 5,7 km/h (1 Bft) O-NO 65 0 min 0,000 mm 0,0 UV-I 0 W/m 6,7 C 11,4 C 6,4 km/h (2 Bft) 95,65 %
10.04.2018 23:15 11,4 C 9,4 C 74 % 1002,2 hPa 0,0 l/m 5,4 km/h (1 Bft) O-NO 65 0 min 0,000 mm 0,0 UV-I 0 W/m 6,9 C 11,4 C 6,4 km/h (2 Bft) 100,00 %
10.04.2018 23:16 11,3 C 9,4 C 74 % 1002,2 hPa 0,0 l/m 5,3 km/h (1 Bft) O-NO 65 0 min 0,000 mm 0,0 UV-I 0 W/m 6,8 C 11,3 C 6,4 km/h (2 Bft) 95,83 %
10.04.2018 23:17 11,3 C 9,4 C 74 % 1002,2 hPa 0,0 l/m 4,2 km/h (1 Bft) O-NO 65 0 min 0,000 mm 0,0 UV-I 0 W/m 6,8 C 11,3 C 4,8 km/h (1 Bft) 100,00 %
10.04.2018 23:18 11,3 C 9,4 C 74 % 1002,2 hPa 0,0 l/m 5,2 km/h (1 Bft) O-NO 65 0 min 0,000 mm 0,0 UV-I 0 W/m 6,8 C 11,3 C 6,4 km/h (2 Bft) 95,83 %
10.04.2018 23:19 11,3 C 9,4 C 74 % 1002,2 hPa 0,0 l/m 5,0 km/h (1 Bft) O-NO 65 0 min 0,000 mm 0,0 UV-I 0 W/m 6,8 C 11,3 C 6,4 km/h (2 Bft) 100,00 %
10.04.2018 23:20 11,4 C 9,4 C 73 % 1002,2 hPa 0,0 l/m 4,5 km/h (1 Bft) O-NO 61 0 min 0,000 mm 0,0 UV-I 0 W/m 6,7 C 11,4 C 4,8 km/h (1 Bft) 83,33 %
10.04.2018 23:21 11,4 C 9,4 C 73 % 1002,2 hPa 0,0 l/m 4,8 km/h (1 Bft) O-NO 61 0 min 0,000 mm 0,0 UV-I 0 W/m 6,7 C 11,4 C 6,4 km/h (2 Bft) 94,74 %
10.04.2018 23:22 11,4 C 9,4 C 73 % 1002,2 hPa 0,0 l/m 5,0 km/h (1 Bft) O-NO 61 0 min 0,000 mm 0,0 UV-I 0 W/m 6,7 C 11,4 C 6,4 km/h (2 Bft) 96,30 %
10.04.2018 23:23 11,5 C 9,4 C 73 % 1002,2 hPa 0,0 l/m 5,5 km/h (1 Bft) O-NO 61 0 min 0,000 mm 0,0 UV-I 0 W/m 6,8 C 11,5 C 6,4 km/h (2 Bft) 96,15 %
10.04.2018 23:24 11,6 C 9,4 C 73 % 1002,2 hPa 0,0 l/m 5,6 km/h (1 Bft) O-NO 61 0 min 0,000 mm 0,0 UV-I 0 W/m 6,9 C 11,6 C 6,4 km/h (2 Bft) 100,00 %
10.04.2018 23:25 11,6 C 9,4 C 73 % 1002,2 hPa 0,0 l/m 5,4 km/h (1 Bft) O-NO 60 0 min 0,000 mm 0,0 UV-I 0 W/m 6,9 C 11,6 C 6,4 km/h (2 Bft) 92,86 %
10.04.2018 23:26 11,6 C 9,4 C 73 % 1002,2 hPa 0,0 l/m 4,9 km/h (1 Bft) O-NO 60 0 min 0,000 mm 0,0 UV-I 0 W/m 6,9 C 11,6 C 6,4 km/h (2 Bft) 100,00 %
10.04.2018 23:27 11,5 C 9,4 C 73 % 1002,2 hPa 0,0 l/m 5,0 km/h (1 Bft) NO 56 0 min 0,000 mm 0,0 UV-I 0 W/m 6,8 C 11,5 C 6,4 km/h (2 Bft) 91,30 %
10.04.2018 23:28 11,5 C 9,4 C 73 % 1002,3 hPa 0,0 l/m 4,3 km/h (1 Bft) NO 55 0 min 0,000 mm 0,0 UV-I 0 W/m 6,8 C 11,5 C 6,4 km/h (2 Bft) 100,00 %
10.04.2018 23:29 11,5 C 9,4 C 73 % 1002,3 hPa 0,0 l/m 3,9 km/h (1 Bft) NO 55 0 min 0,000 mm 0,0 UV-I 0 W/m 6,8 C 11,5 C 4,8 km/h (1 Bft) 100,00 %
10.04.2018 23:30 11,6 C 9,4 C 73 % 1002,3 hPa 0,0 l/m 4,3 km/h (1 Bft) NO 55 0 min 0,000 mm 0,0 UV-I 0 W/m 6,9 C 11,6 C 6,4 km/h (2 Bft) 97,56 %
10.04.2018 23:31 11,6 C 9,4 C 72 % 1002,4 hPa 0,0 l/m 4,0 km/h (1 Bft) NO 55 0 min 0,000 mm 0,0 UV-I 0 W/m 6,7 C 11,6 C 4,8 km/h (1 Bft) 96,15 %
10.04.2018 23:32 11,6 C 9,4 C 72 % 1002,3 hPa 0,0 l/m 4,2 km/h (1 Bft) NO 55 0 min 0,000 mm 0,0 UV-I 0 W/m 6,7 C 11,6 C 4,8 km/h (1 Bft) 95,83 %
10.04.2018 23:33 11,7 C 9,4 C 72 % 1002,4 hPa 0,0 l/m 4,0 km/h (1 Bft) NO 55 0 min 0,000 mm 0,0 UV-I 0 W/m 6,8 C 11,7 C 4,8 km/h (1 Bft) 91,30 %
10.04.2018 23:34 11,8 C 9,4 C 72 % 1002,3 hPa 0,0 l/m 4,1 km/h (1 Bft) NO 55 0 min 0,000 mm 0,0 UV-I 0 W/m 6,9 C 11,8 C 4,8 km/h (1 Bft) 95,83 %
10.04.2018 23:35 11,8 C 9,4 C 71 % 1002,4 hPa 0,0 l/m 4,7 km/h (1 Bft) NO 55 0 min 0,000 mm 0,0 UV-I 0 W/m 6,7 C 11,8 C 6,4 km/h (2 Bft) 100,00 %
10.04.2018 23:36 11,8 C 9,4 C 71 % 1002,4 hPa 0,0 l/m 4,1 km/h (1 Bft) O-NO 57 0 min 0,000 mm 0,0 UV-I 0 W/m 6,7 C 11,8 C 4,8 km/h (1 Bft) 96,88 %
10.04.2018 23:37 11,8 C 9,4 C 71 % 1002,3 hPa 0,0 l/m 3,7 km/h (1 Bft) O-NO 57 0 min 0,000 mm 0,0 UV-I 0 W/m 6,7 C 11,8 C 4,8 km/h (1 Bft) 100,00 %
10.04.2018 23:38 11,9 C 9,4 C 70 % 1002,4 hPa 0,0 l/m 4,0 km/h (1 Bft) O-NO 57 0 min 0,000 mm 0,0 UV-I 0 W/m 6,6 C 11,9 C 6,4 km/h (2 Bft) 95,65 %
10.04.2018 23:39 11,9 C 9,4 C 70 % 1002,4 hPa 0,0 l/m 4,8 km/h (1 Bft) O-NO 60 0 min 0,000 mm 0,0 UV-I 0 W/m 6,6 C 11,9 C 6,4 km/h (2 Bft) 100,00 %
10.04.2018 23:40 12,0 C 9,4 C 70 % 1002,4 hPa 0,0 l/m 4,4 km/h (1 Bft) O-NO 67 0 min 0,000 mm 0,0 UV-I 0 W/m 6,7 C 12,0 C 6,4 km/h (2 Bft) 81,82 %
10.04.2018 23:41 12,1 C 9,4 C 70 % 1002,3 hPa 0,0 l/m 4,2 km/h (1 Bft) O-NO 71 0 min 0,000 mm 0,0 UV-I 0 W/m 6,8 C 12,1 C 6,4 km/h (2 Bft) 100,00 %
10.04.2018 23:42 12,1 C 9,4 C 70 % 1002,4 hPa 0,0 l/m 4,5 km/h (1 Bft) O-NO 71 0 min 0,000 mm 0,0 UV-I 0 W/m 6,8 C 12,1 C 6,4 km/h (2 Bft) 95,65 %
10.04.2018 23:43 12,1 C 9,4 C 70 % 1002,4 hPa 0,0 l/m 3,6 km/h (1 Bft) O-NO 71 0 min 0,000 mm 0,0 UV-I 0 W/m 6,8 C 12,1 C 4,8 km/h (1 Bft) 100,00 %
10.04.2018 23:44 12,1 C 9,4 C 69 % 1002,4 hPa 0,0 l/m 3,3 km/h (1 Bft) O-NO 71 0 min 0,000 mm 0,0 UV-I 0 W/m 6,6 C 12,1 C 4,8 km/h (1 Bft) 92,31 %
10.04.2018 23:45 12,1 C 9,4 C 69 % 1002,4 hPa 0,0 l/m 3,8 km/h (1 Bft) O-NO 71 0 min 0,000 mm 0,0 UV-I 0 W/m 6,6 C 12,1 C 4,8 km/h (1 Bft) 96,30 %
10.04.2018 23:46 12,0 C 9,4 C 69 % 1002,4 hPa 0,0 l/m 4,0 km/h (1 Bft) O-NO 71 0 min 0,000 mm 0,0 UV-I 0 W/m 6,5 C 12,0 C 4,8 km/h (1 Bft) 91,30 %
10.04.2018 23:47 12,0 C 9,4 C 70 % 1002,4 hPa 0,0 l/m 3,4 km/h (1 Bft) O-NO 71 0 min 0,000 mm 0,0 UV-I 0 W/m 6,7 C 12,0 C 4,8 km/h (1 Bft) 95,83 %
10.04.2018 23:48 12,1 C 9,4 C 69 % 1002,4 hPa 0,0 l/m 4,1 km/h (1 Bft) O-NO 71 0 min 0,000 mm 0,0 UV-I 0 W/m 6,6 C 12,1 C 4,8 km/h (1 Bft) 100,00 %
10.04.2018 23:49 12,1 C 9,4 C 69 % 1002,4 hPa 0,0 l/m 3,6 km/h (1 Bft) O-NO 71 0 min 0,000 mm 0,0 UV-I 0 W/m 6,6 C 12,1 C 4,8 km/h (1 Bft) 96,15 %
10.04.2018 23:50 12,1 C 9,4 C 69 % 1002,4 hPa 0,0 l/m 4,0 km/h (1 Bft) O-NO 71 0 min 0,000 mm 0,0 UV-I 0 W/m 6,6 C 12,1 C 4,8 km/h (1 Bft) 100,00 %
10.04.2018 23:51 12,1 C 9,4 C 69 % 1002,4 hPa 0,0 l/m 3,2 km/h (1 Bft) O-NO 71 0 min 0,000 mm 0,0 UV-I 0 W/m 6,6 C 12,1 C 4,8 km/h (1 Bft) 100,00 %
10.04.2018 23:52 12,1 C 9,4 C 69 % 1002,4 hPa 0,0 l/m 3,9 km/h (1 Bft) O-NO 71 0 min 0,000 mm 0,0 UV-I 0 W/m 6,6 C 12,1 C 4,8 km/h (1 Bft) 100,00 %
10.04.2018 23:53 12,0 C 9,4 C 69 % 1002,4 hPa 0,0 l/m 4,5 km/h (1 Bft) O-NO 71 0 min 0,000 mm 0,0 UV-I 0 W/m 6,5 C 12,0 C 6,4 km/h (2 Bft) 100,00 %
10.04.2018 23:54 11,9 C 9,4 C 70 % 1002,4 hPa 0,0 l/m 5,1 km/h (1 Bft) O-NO 71 0 min 0,000 mm 0,0 UV-I 0 W/m 6,6 C 11,9 C 6,4 km/h (2 Bft) 100,00 %
10.04.2018 23:55 11,8 C 9,4 C 70 % 1002,4 hPa 0,0 l/m 4,9 km/h (1 Bft) O-NO 71 0 min 0,000 mm 0,0 UV-I 0 W/m 6,5 C 11,8 C 6,4 km/h (2 Bft) 100,00 %
10.04.2018 23:56 11,7 C 9,4 C 71 % 1002,3 hPa 0,0 l/m 4,7 km/h (1 Bft) NO 52 0 min 0,000 mm 0,0 UV-I 0 W/m 6,6 C 11,7 C 6,4 km/h (2 Bft) 100,00 %
10.04.2018 23:57 11,7 C 9,4 C 71 % 1002,3 hPa 0,0 l/m 4,2 km/h (1 Bft) NO 52 0 min 0,000 mm 0,0 UV-I 0 W/m 6,6 C 11,7 C 4,8 km/h (1 Bft) 96,15 %
10.04.2018 23:58 11,6 C 9,4 C 71 % 1002,3 hPa 0,0 l/m 4,2 km/h (1 Bft) NO 53 0 min 0,000 mm 0,0 UV-I 0 W/m 6,5 C 11,6 C 6,4 km/h (2 Bft) 100,00 %
10.04.2018 23:59 11,6 C 9,4 C 71 % 1002,4 hPa 0,0 l/m 4,4 km/h (1 Bft) NO 54 0 min 0,000 mm 0,0 UV-I 0 W/m 6,5 C 11,6 C 6,4 km/h (2 Bft) 100,00 %
_ Min-Zeit 06:53 00:00 16:05 17:03 - 05:03 - - - - - - 00:23 03:47 05:03 23:40
Minimum _ 9,9 C 9,4 C 41 % 1000,7 hPa - 0,0 km/h (0 Bft) - - - - - - 3,9 C 7,1 C 0,0 km/h (0 Bft) 81,82 %
_ Max-Zeit 15:12 00:00 06:52 00:00 00:00 15:29 - - 10:02 16:02 15:07 15:08 15:07 15:36 15:29 00:00
Maximum _ 20,7 C 9,4 C 79 % 1003,4 hPa 0,0 l/m 18,4 km/h
NO (3 Bft)
- - 2 min 0,432 mm 2,8 UV-I 814 W/m 9,3 C 20,0 C 24,1 km/h
NO (4 Bft)
100,00 %
Durchschnitt _ 14,3 C 9,4 C 62 % 1001,5 hPa #0,0 l/m 6,1 km/h (2 Bft) O-NO - #1:59 h #2,464 mm 1,2 UV-I 215 W/m 6,9 C 13,7 C 8,4 km/h (2 Bft) 97,75 %